GFSGL_2pvu_pres_000.txt.gz
Presure
218 214 232 255 290 279 291 299 313 313 324 322 319 305 299 299 300 245 298 304 309 318 323 320 368 369 366 359 353 355 375 306 240 226 219 204 194 207 200 198 187 183 186
227 219 243 266 301 292 313 312 321 323 318 309 303 308 312 302 297 300 309 314 355 368 344 398 383 382 370 382 390 389 354 363 378 429 224 225 210 201 201 195 195 196 186
228 226 266 282 304 317 331 325 320 316 301 300 305 296 300 313 314 350 358 371 387 362 354 376 472 472 402 489 449 368 376 383 362 358 417 246 228 215 203 203 197 196 205
233 233 252 291 327 320 332 324 312 302 303 302 309 304 323 350 362 388 364 347 466 499 483 476 382 467 282 374 311 492 416 371 382 363 421 337 261 227 220 213 211 211 199
228 249 259 324 335 329 323 318 307 311 310 303 312 348 352 389 343 350 492 476 460 433 422 413 414 417 425 454 471 480 484 423 366 380 344 413 298 263 232 138 206 212 192
239 252 271 308 334 325 319 314 311 312 295 348 346 393 346 343 526 462 446 405 395 393 379 373 370 375 383 397 428 457 495 486 377 369 387 394 396 296 253 236 223 217 221
239 265 329 320 328 322 319 316 308 318 349 340 377 332 514 461 446 405 378 389 372 364 358 351 351 356 365 375 385 409 456 499 498 379 363 364 403 380 270 253 240 222 218
257 305 318 319 324 319 316 309 353 342 360 342 365 485 455 414 383 375 351 351 349 348 350 349 353 360 366 367 367 379 418 493 509 497 376 395 367 380 337 269 247 234 225
285 323 323 317 325 322 310 355 333 364 323 451 469 451 406 380 366 352 335 336 332 327 338 332 338 348 345 356 372 362 388 465 518 510 469 360 416 372 374 284 261 243 232
331 319 316 328 327 317 353 329 356 314 431 470 440 403 378 366 348 335 332 331 328 330 336 344 350 347 350 353 361 369 370 396 528 504 488 382 367 355 373 357 268 252 241
323 314 327 330 325 351 328 339 313 369 466 443 395 386 371 339 331 328 329 342 364 361 360 351 356 351 351 349 358 370 371 389 512 514 484 479 364 366 356 368 359 265 253
322 320 331 329 332 327 335 336 351 491 431 403 380 371 334 333 324 324 345 340 339 338 351 372 350 348 347 352 367 365 368 373 422 504 500 484 406 353 417 358 363 295 265
318 327 331 323 330 336 379 333 453 449 401 369 368 332 332 322 320 328 319 330 333 335 363 366 358 360 351 379 400 365 366 378 391 418 510 503 493 371 361 384 357 357 346
322 332 351 330 333 356 308 465 467 428 376 352 341 317 316 302 307 313 299 323 349 350 372 374 365 366 359 365 363 362 379 417 439 434 443 477 485 479 359 372 333 352 353
332 343 321 327 335 326 437 420 433 392 358 363 326 318 312 303 290 294 312 295 364 394 396 379 359 360 356 351 373 375 379 409 457 441 454 478 453 463 413 340 390 328 345
330 313 330 338 373 335 461 406 424 374 354 333 327 304 310 291 289 291 291 295 315 387 392 392 401 387 388 392 376 372 390 394 407 474 459 455 469 494 466 365 341 395 319
319 333 329 330 308 402 440 393 397 372 360 325 314 307 293 292 289 279 265 279 284 313 318 320 324 377 394 354 385 386 388 386 389 402 427 488 473 483 486 493 347 342 371
331 322 344 305 338 443 442 402 397 358 356 320 302 300 293 289 291 291 281 274 286 279 301 305 315 291 304 333 308 319 366 392 403 395 411 414 424 448 494 502 506 347 335
324 346 301 349 397 414 418 390 382 354 355 314 304 292 292 291 277 266 275 274 255 261 271 290 278 284 307 303 289 306 307 315 323 407 426 415 421 422 438 443 439 514 337
337 304 352 342 433 394 419 385 368 339 350 317 300 301 292 291 276 279 279 255 256 279 278 261 269 293 279 284 291 297 299 313 305 318 331 416 412 405 399 408 425 462 450
298 323 341 418 416 385 401 376 361 336 347 317 300 293 295 290 276 282 261 271 251 268 259 267 277 272 284 266 270 276 285 290 301 297 308 297 319 393 378 364 373 396 422
320 347 364 413 403 375 410 366 354 333 342 327 301 295 288 279 280 274 261 269 257 252 269 254 269 269 270 266 272 282 277 278 277 287 286 289 290 288 299 306 313 314 300
346 418 438 398 388 366 412 363 348 334 354 332 305 298 287 287 282 275 275 278 269 267 251 268 268 268 268 258 269 271 261 276 280 279 276 275 275 281 287 288 288 290 289
443 448 423 384 378 358 410 359 345 339 348 311 318 293 289 291 279 281 281 254 263 266 279 253 259 269 268 265 266 267 271 275 256 264 274 270 270 266 271 275 274 270 271
429 434 394 373 364 350 404 356 346 333 339 306 317 309 304 276 289 277 281 268 274 276 265 269 269 262 255 262 270 274 270 270 270 268 267 273 276 257 271 271 269 266 265
428 421 371 360 355 345 400 369 345 329 321 325 317 309 302 294 284 282 275 279 271 277 271 266 265 264 271 272 267 266 269 277 274 268 267 269 275 270 268 267 267 271 268

GFSGL_2pvu_pres_003.txt.gz
Presure
211 215 220 227 225 252 235 252 292 353 330 344 338 335 327 324 321 321 320 318 326 326 326 328 323 315 131 306 303 306 314 263 260 245 224 217 217 212 207 201 198 194 198
207 216 223 229 230 250 252 288 307 336 326 335 322 325 321 323 324 321 321 320 321 322 322 328 336 333 330 178 326 325 327 323 327 328 321 305 237 232 227 220 210 203 199
214 218 224 228 250 245 271 308 341 327 319 323 324 322 320 321 320 318 319 320 325 326 326 329 329 329 335 336 339 335 333 309 337 346 345 350 346 349 268 239 227 218 206
227 222 231 240 260 260 333 337 321 316 315 318 320 320 321 322 320 323 344 372 369 392 399 386 376 371 370 370 307 378 427 429 295 412 445 396 402 407 397 391 440 239 219
235 226 240 241 255 341 343 322 320 312 320 319 325 319 315 365 343 343 399 369 338 332 453 457 470 443 210 436 439 438 441 458 471 474 486 505 485 394 398 371 444 436 234
224 242 248 237 282 355 331 323 312 319 322 323 318 349 333 351 388 335 334 506 480 463 430 335 392 393 386 385 385 385 393 403 411 440 174 489 501 381 390 375 364 425 401
244 243 250 271 356 291 327 317 318 318 324 327 340 335 402 331 415 500 467 423 404 390 383 372 366 368 364 363 361 364 367 375 384 394 418 479 492 490 318 378 345 357 402
246 240 267 325 333 328 325 321 318 328 343 331 344 379 333 486 466 420 402 373 365 357 351 349 348 342 339 347 351 355 356 368 369 373 396 439 473 305 366 374 360 341 403
253 264 290 341 268 328 326 319 328 352 332 346 342 401 479 454 407 390 372 351 337 335 336 335 335 333 331 336 339 335 345 345 358 369 369 396 460 477 486 362 363 349 367
251 321 327 327 334 330 327 329 347 334 348 322 468 477 438 399 384 350 334 337 338 349 342 354 347 359 365 343 335 339 344 348 339 357 365 366 398 486 486 373 358 361 331
256 302 345 335 333 330 333 345 332 340 333 401 476 418 396 363 343 335 335 333 341 329 331 340 335 345 352 364 339 350 346 341 340 346 366 369 383 509 487 457 359 413 331
305 346 310 338 336 338 348 331 336 360 400 473 410 388 351 337 334 332 337 333 326 331 340 338 337 351 377 363 359 344 338 349 344 352 367 363 382 538 495 482 367 227 364
310 344 339 344 339 350 336 338 382 327 427 417 372 345 335 332 322 328 322 318 339 338 346 355 366 376 366 355 349 352 373 393 375 366 368 359 371 411 486 470 474 350 398
348 344 349 342 352 328 331 387 305 442 445 391 367 338 330 314 305 321 316 295 340 358 382 394 375 353 372 350 351 367 367 364 364 369 369 374 386 396 486 467 472 367 358
348 348 343 353 316 328 356 304 504 437 416 364 342 331 328 300 306 296 278 295 309 391 378 381 395 371 363 351 348 356 360 387 405 453 428 407 411 417 471 462 459 482 344
348 343 349 313 332 351 306 364 491 427 386 367 326 324 302 307 294 278 293 301 307 311 305 320 331 315 345 391 383 383 396 390 408 463 457 429 434 425 461 466 461 466 378
342 349 319 334 331 336 344 440 427 419 367 366 327 320 307 291 294 279 268 268 291 291 312 290 295 306 305 305 313 384 391 397 397 401 487 452 452 453 440 456 457 459 456
351 324 334 322 357 301 437 421 422 416 362 334 322 301 295 293 276 286 273 269 290 298 290 287 303 286 287 292 298 306 310 397 401 401 405 434 471 462 465 447 446 453 472
321 334 321 364 297 390 445 407 404 397 354 333 317 300 290 292 267 282 267 265 278 261 270 287 281 289 298 304 302 301 297 327 395 400 404 419 435 469 463 476 465 453 467
332 319 360 298 446 450 418 397 394 374 358 328 315 304 286 291 272 277 279 278 260 275 280 261 267 281 279 282 292 301 301 304 317 343 383 391 390 399 412 427 468 481 485
321 357 301 456 456 432 398 388 389 360 354 322 309 303 292 279 276 274 268 265 274 270 254 281 277 270 288 281 270 287 292 300 301 306 306 338 361 359 374 388 411 432 451
341 311 468 452 443 416 384 444 382 355 347 320 307 298 292 280 286 276 273 263 258 280 264 255 274 274 278 277 279 286 287 286 290 294 294 305 308 306 330 345 371 388 401
352 464 449 430 425 396 373 432 374 355 343 329 307 302 293 289 286 273 277 270 263 257 274 279 257 276 273 271 262 278 270 267 282 270 284 287 284 291 294 298 309 337 355
460 446 429 418 395 379 362 417 368 354 331 337 315 302 293 290 290 277 277 269 276 268 269 265 278 261 271 270 269 267 267 277 276 272 275 277 279 289 287 278 287 300 301
441 427 417 422 376 368 356 405 371 352 329 345 327 304 294 299 279 288 279 267 272 272 280 261 261 278 269 265 255 269 273 275 269 270 268 272 274 271 276 278 283 287 277
424 411 412 383 362 358 349 345 386 347 339 338 317 320 303 291 293 281 288 278 275 276 268 274 269 268 266 269 268 273 276 274 268 273 282 279 270 272 273 276 276 274 277

GFSGL_2pvu_pres_006.txt.gz
Presure
192 191 199 195 196 214 219 245 223 245 254 289 354 340 333 325 322 323 322 329 330 332 332 330 320 319 310 310 317 321 327 331 339 260 241 230 227 229 226 221 207 206 206
199 194 203 197 212 215 194 232 247 252 275 357 349 334 325 319 319 319 321 319 321 325 325 331 329 328 327 331 338 340 345 341 338 346 277 326 273 245 240 229 223 215 217
201 207 210 216 213 222 229 240 246 265 304 355 264 324 319 316 313 317 322 326 326 322 320 322 327 332 337 335 331 330 330 333 339 299 349 341 325 317 305 254 240 227 218
205 205 215 202 221 235 277 254 258 362 313 337 325 321 317 318 320 325 330 333 356 353 342 345 349 355 365 371 353 339 335 337 338 109 342 339 335 331 328 320 318 281 240
213 216 225 217 236 275 256 274 288 355 338 330 323 320 321 327 330 362 336 338 352 387 379 363 350 347 349 356 363 367 374 382 387 390 380 385 283 339 339 273 338 330 325
221 222 235 237 245 287 275 282 310 343 333 324 323 330 332 335 332 341 399 372 324 496 477 464 456 445 441 427 423 424 435 333 414 369 419 300 441 480 219 300 503 155 351
223 238 239 247 300 282 290 357 346 335 329 328 333 341 345 334 362 363 381 465 475 425 406 397 393 391 390 389 394 384 382 383 383 388 388 386 390 396 436 460 232 491 526
233 234 242 308 287 306 355 347 338 334 331 336 343 331 340 385 324 483 453 425 406 372 368 364 359 353 352 353 353 354 355 358 361 367 376 372 377 380 386 419 450 485 449
247 230 279 297 304 333 348 341 335 336 340 325 331 346 377 349 473 438 405 394 373 352 345 340 340 346 345 349 347 337 335 337 341 343 344 348 356 367 362 388 413 460 386
246 235 308 340 316 346 270 335 340 346 323 328 350 369 370 475 404 389 351 347 340 335 333 335 337 339 346 338 342 334 345 350 349 337 349 342 345 344 366 364 381 411 478
255 337 347 309 297 265 338 345 346 318 326 354 345 379 472 389 365 347 341 338 333 326 333 336 339 345 346 345 340 342 349 364 369 353 334 344 350 343 346 360 369 379 411
337 332 309 300 261 344 349 343 324 332 354 316 358 458 393 364 342 338 334 309 331 336 344 353 356 356 358 355 354 373 360 356 349 349 333 339 349 338 335 349 369 371 396
307 299 292 258 347 346 344 340 334 343 319 364 451 397 373 343 337 321 310 323 359 370 281 391 391 396 383 366 369 365 356 357 362 369 365 352 349 351 339 349 370 368 390
282 362 270 348 343 344 344 324 322 348 305 455 448 371 351 343 325 309 304 310 308 309 352 318 322 393 393 365 369 349 350 347 349 362 378 379 378 356 346 358 366 369 385
338 348 350 344 344 345 318 323 367 295 446 433 390 371 337 329 308 295 301 281 297 305 291 312 311 305 310 331 365 363 362 367 384 395 442 437 383 382 369 361 368 365 392
349 353 346 344 345 323 326 343 301 406 442 428 372 340 333 323 291 302 278 295 283 268 296 301 292 296 299 310 316 311 393 399 390 393 437 463 413 383 374 375 377 382 396
353 344 342 344 325 330 330 304 354 442 421 401 363 336 327 314 303 280 293 267 297 285 297 293 295 298 305 307 304 304 399 397 395 392 408 454 440 423 405 390 395 407 467
336 342 348 336 333 328 318 355 462 420 412 382 364 329 320 293 298 284 282 280 278 276 290 263 276 282 286 292 301 312 304 426 417 421 432 444 453 449 444 436 432 465 457
337 343 343 333 331 324 369 462 434 407 402 368 357 325 310 302 287 294 279 279 267 285 276 284 277 271 276 281 288 297 301 317 367 383 394 395 417 464 465 458 445 453 452
348 349 328 334 321 451 459 446 408 396 394 361 344 324 306 298 284 285 283 283 279 276 288 263 279 281 282 279 281 286 298 294 305 314 353 361 388 408 441 457 486 433 438
348 325 351 310 471 455 442 427 390 386 376 345 337 321 303 292 285 288 277 277 274 272 284 279 249 280 278 273 277 284 287 290 301 294 293 316 325 351 384 397 409 465 447
340 337 374 462 450 431 427 401 377 380 366 348 336 317 304 291 288 284 275 273 275 265 256 282 273 255 278 283 277 279 268 282 280 289 299 280 307 303 318 341 386 417 424
332 460 452 443 429 422 406 382 367 381 356 339 334 316 304 292 289 277 279 274 274 278 268 258 276 266 268 267 275 269 271 273 272 278 280 285 285 280 299 301 313 341 398
450 444 437 423 406 418 383 367 358 400 355 335 331 315 303 296 290 281 278 281 272 273 269 280 271 267 268 276 269 271 279 276 277 271 271 268 271 281 287 288 285 301 311
438 432 422 411 415 383 371 354 355 398 357 334 334 317 308 300 292 284 280 279 280 270 269 264 263 278 271 269 267 276 279 278 277 289 282 289 281 275 269 269 278 277 292
432 420 409 405 399 363 358 351 341 403 357 335 335 321 314 303 297 291 286 278 276 275 278 270 266 274 274 278 271 270 270 267 268 275 274 276 284 276 286 282 278 283 282

GFSGL_2pvu_pres_009.txt.gz
Presure
191 195 195 192 204 197 206 219 217 221 238 237 245 307 304 316 370 362 348 340 332 325 319 320 317 318 319 321 327 332 340 341 315 295 284 282 288 272 229 230 228 218 220
191 193 199 189 200 212 213 217 228 227 243 243 266 309 320 363 360 346 340 335 328 320 316 316 316 320 323 323 320 324 329 340 328 295 274 316 276 244 289 249 237 229 225
201 193 194 194 220 216 220 229 235 252 272 246 330 347 365 358 350 337 331 322 318 316 320 322 321 325 330 331 336 339 332 333 336 340 326 308 263 304 295 261 292 250 237
211 197 193 209 226 234 235 250 264 270 266 332 342 310 316 347 334 326 324 324 330 338 341 344 345 352 344 347 350 347 346 345 345 349 345 334 332 316 308 309 310 280 303
219 210 203 231 241 253 264 267 256 335 340 376 306 269 342 337 333 332 338 347 335 333 339 346 372 383 389 384 383 384 392 388 371 346 349 350 345 338 336 333 336 334 329
242 241 254 261 269 278 266 282 345 378 322 302 285 317 337 336 339 357 332 337 347 395 317 388 463 471 470 468 458 460 461 464 403 362 380 394 356 343 345 341 336 332 335
239 259 292 282 282 345 338 332 319 306 293 285 310 341 342 356 330 328 351 370 353 462 458 435 416 406 400 402 400 401 402 404 412 412 435 416 346 356 331 364 339 275 184
267 356 346 341 338 324 314 303 289 277 306 345 342 349 351 334 333 356 312 467 442 414 408 399 386 377 364 372 369 365 364 363 365 367 381 388 395 264 290 337 349 369 269
326 316 325 318 306 298 269 268 356 360 347 342 347 347 340 338 327 335 447 416 372 356 346 346 345 343 346 348 356 349 352 358 358 342 354 356 364 372 376 385 342 405 410
296 257 293 287 282 261 305 294 362 349 346 346 344 335 343 315 379 417 404 360 339 334 331 331 333 337 338 340 343 343 345 333 344 343 349 354 349 353 189 360 368 376 391
297 275 273 263 266 323 361 362 351 348 349 345 327 326 322 413 415 386 362 336 327 326 323 343 354 357 359 360 360 355 351 353 346 352 352 343 353 355 340 346 351 359 367
265 270 271 277 348 376 358 352 350 348 346 331 317 347 316 470 392 368 335 317 337 300 367 293 350 382 381 404 396 381 371 366 360 372 372 373 375 380 377 351 344 347 361
273 266 285 388 374 354 351 350 343 349 326 306 363 298 457 392 382 337 309 318 300 311 309 281 311 294 329 396 389 375 380 368 366 361 358 354 354 352 356 354 348 342 354
283 397 385 373 352 351 345 341 348 337 326 334 307 411 454 388 348 326 319 304 285 305 284 304 279 303 306 321 391 383 370 362 354 357 360 364 355 361 366 360 351 344 354
389 378 369 355 348 343 336 342 342 342 325 313 405 446 403 371 334 315 313 290 306 276 289 280 296 294 310 313 321 391 381 378 370 372 387 397 404 413 411 383 370 352 348
374 369 355 349 348 336 342 346 344 322 336 324 442 432 384 341 323 311 297 287 289 290 284 281 295 283 293 302 312 362 401 390 391 401 415 425 454 470 449 416 383 358 349
369 356 349 343 339 347 352 338 320 351 324 458 418 408 377 335 319 310 298 308 276 294 285 280 288 268 291 295 302 303 314 382 412 420 483 476 454 425 420 406 385 381 357
349 342 335 345 351 343 326 338 343 333 451 434 402 398 352 332 314 295 287 285 285 281 281 277 289 284 262 287 286 295 293 291 325 361 420 465 459 444 430 404 382 375 373
339 338 349 347 326 343 347 323 465 453 427 403 391 381 343 322 312 295 305 285 291 282 277 285 287 287 284 272 286 290 287 293 302 319 328 350 439 462 466 458 439 423 406
348 353 323 346 339 330 461 453 442 437 402 390 386 363 339 312 306 287 286 275 289 286 280 291 283 252 280 286 279 279 283 287 279 281 291 317 331 343 440 460 476 442 461
327 336 341 330 458 454 444 431 424 403 384 377 379 354 330 316 305 291 288 277 288 285 278 256 266 277 264 278 282 280 280 273 284 301 278 295 290 304 328 349 461 441 430
337 337 353 450 446 436 424 413 414 380 374 368 369 343 326 314 301 290 290 279 288 277 281 270 262 258 270 275 273 282 279 277 280 286 289 274 278 300 293 309 332 423 464
331 417 448 440 430 422 406 410 389 364 365 367 356 339 328 313 302 291 290 280 277 281 274 278 271 264 267 269 268 273 275 276 278 281 283 280 278 270 279 298 303 312 346
328 450 435 425 417 403 412 387 373 357 365 362 352 335 331 315 302 291 287 279 279 280 279 275 268 266 271 278 280 271 267 271 280 284 281 284 283 280 283 269 285 297 307
440 426 422 411 410 411 384 366 366 348 407 363 345 336 330 317 305 294 287 282 278 279 279 279 280 268 273 264 268 269 281 275 282 278 270 288 276 287 282 286 283 276 290
424 412 420 409 406 398 363 357 354 344 389 374 344 333 328 322 307 301 291 283 286 278 278 279 275 279 279 276 275 267 278 273 275 275 282 283 281 281 288 290 288 283 278

GFSGL_2pvu_pres_012.txt.gz
Presure
197 210 206 204 211 222 227 234 242 252 253 252 252 273 307 284 329 331 331 373 329 306 268 347 341 336 331 330 327 326 324 331 332 329 343 314 293 291 296 300 291 248 223
202 202 205 216 226 236 247 236 240 258 283 339 334 336 332 332 334 351 318 314 303 273 346 343 333 331 332 328 330 327 324 323 334 335 332 335 315 307 290 298 294 290 245
221 220 231 250 251 247 248 346 345 336 335 341 336 331 321 311 306 305 291 290 284 345 334 333 331 331 331 331 332 332 328 322 322 332 335 327 325 318 300 291 296 294 294
235 247 238 256 300 348 334 317 302 301 314 285 301 297 291 281 269 330 318 347 339 335 337 340 348 357 365 358 354 356 356 359 353 343 330 330 327 325 316 306 294 296 298
273 282 279 330 293 309 298 299 307 299 282 288 287 264 287 310 301 357 349 345 346 354 352 334 337 345 355 390 391 392 364 360 356 353 353 352 332 330 330 311 304 299 295
284 296 293 300 288 317 295 287 286 279 268 263 282 320 322 368 359 351 352 352 351 334 332 383 323 322 471 474 474 480 486 487 497 368 381 398 353 357 345 338 325 304 304
300 301 276 274 279 281 264 271 302 290 269 282 368 375 364 351 351 353 354 338 327 359 315 464 439 424 421 415 413 413 409 408 413 424 435 417 395 380 355 355 345 340 314
316 267 269 275 291 306 280 273 270 264 282 390 374 360 350 350 353 346 330 342 316 359 420 384 370 361 361 359 359 360 359 361 372 381 385 399 409 432 415 377 348 354 347
285 258 260 267 270 282 284 291 280 388 389 372 357 351 351 349 343 327 352 307 438 388 361 354 349 339 343 339 345 345 347 347 361 363 359 368 381 383 402 428 228 324 340
255 263 273 263 358 292 423 408 398 388 370 352 351 346 349 344 320 350 307 434 377 350 343 337 344 358 360 368 366 361 349 346 346 345 349 352 374 368 370 383 402 387 360
261 270 421 406 421 414 404 393 383 372 351 350 339 346 350 336 329 311 431 391 346 334 341 328 324 331 295 333 392 390 389 406 367 347 347 347 349 350 356 363 364 188 396
366 410 398 410 413 402 389 378 370 350 349 337 338 347 353 321 313 432 400 351 328 331 319 298 297 284 316 295 323 335 407 389 387 373 353 348 352 352 347 352 357 361 363
406 429 415 411 398 379 372 363 351 347 344 338 348 349 313 337 358 405 380 333 314 305 312 288 280 302 314 295 432 398 383 381 380 381 374 375 374 375 380 380 356 347 350
425 415 401 384 369 367 357 348 344 339 346 348 346 317 349 301 427 386 345 317 320 301 286 304 288 300 300 306 302 415 402 371 391 385 372 363 360 357 352 354 360 363 379
399 387 374 363 363 349 346 344 348 355 348 332 320 349 309 459 401 366 333 310 299 302 287 273 291 281 289 298 287 318 324 388 408 396 390 395 398 389 386 385 375 358 362
377 367 362 354 347 344 351 352 341 330 334 367 359 318 453 421 383 347 317 318 303 281 291 284 284 282 294 289 290 300 305 305 340 347 444 464 493 473 433 412 408 405 385
361 353 347 344 354 356 333 328 355 340 335 480 465 447 428 400 370 335 310 294 298 281 283 290 284 280 282 279 293 299 300 295 313 322 331 365 465 445 434 437 451 464 481
344 346 347 354 335 329 353 334 363 464 455 449 449 424 402 375 347 326 314 300 292 298 272 291 276 276 270 281 283 287 287 296 283 295 306 326 350 452 440 420 410 411 414
345 356 342 324 340 334 332 460 456 447 438 437 420 398 389 359 333 317 317 293 284 297 271 289 278 284 279 252 278 287 282 286 291 292 288 301 314 334 417 446 425 407 395
349 330 330 335 329 431 451 444 435 427 427 410 396 379 380 349 328 307 312 290 281 296 272 287 279 270 276 275 273 283 287 281 288 294 278 289 306 305 322 355 444 448 426
323 325 335 325 455 446 436 426 417 411 408 391 380 370 367 345 324 304 303 291 289 285 277 286 276 265 256 269 276 271 280 278 282 290 292 279 276 296 302 310 333 447 454
325 331 322 426 435 426 422 411 415 410 384 377 374 368 357 344 322 302 297 289 291 283 268 285 275 267 261 266 264 279 266 276 278 271 281 285 291 278 281 299 313 324 340
328 320 319 413 426 414 410 409 401 382 366 368 367 367 344 339 320 303 297 291 279 286 278 281 276 279 277 267 267 277 279 275 273 272 284 284 285 292 282 281 294 303 316
318 316 430 407 424 413 406 398 388 368 355 362 363 363 339 335 319 306 297 291 286 281 277 278 278 278 274 268 269 269 267 269 277 281 285 281 278 290 291 299 287 298 296
312 330 417 400 420 410 401 381 365 364 351 349 362 360 345 331 325 308 302 293 285 281 281 278 275 281 276 280 279 276 279 279 276 281 280 280 290 291 288 292 299 288 290
304 357 400 399 405 405 393 368 354 359 346 339 377 355 346 332 322 318 307 296 293 286 281 281 279 275 273 277 280 280 275 275 277 283 281 292 290 288 288 293 293 293 307

GFSGL_2pvu_pres_015.txt.gz
Presure
207 211 224 215 226 222 225 251 288 275 281 295 284 279 280 280 295 300 293 285 283 288 284 276 274 276 276 313 295 281 337 360 365 360 352 335 335 346 345 365 381 327 257
213 220 217 228 243 217 272 286 287 300 301 277 272 267 282 284 261 256 268 268 270 266 254 305 304 311 356 291 346 351 350 344 343 345 339 334 322 327 336 341 375 341 329
212 214 236 249 251 289 267 290 300 300 283 261 264 274 296 289 293 304 293 275 272 355 369 303 355 351 345 344 342 341 343 345 349 343 335 333 323 320 328 335 344 360 327
234 238 254 250 297 306 303 307 309 284 258 260 265 273 276 246 256 259 270 276 377 368 359 352 348 346 348 350 353 355 358 361 361 364 359 337 332 320 315 322 336 348 330
234 257 302 299 309 309 318 279 274 259 256 259 263 263 276 289 295 287 293 373 361 352 348 351 354 359 357 347 337 334 346 377 358 355 349 348 358 332 327 317 320 339 342
263 300 312 317 316 288 285 281 298 292 262 270 424 409 401 395 389 380 369 356 350 353 351 353 347 334 332 360 325 324 456 454 465 485 336 397 357 364 342 332 328 328 340
281 305 323 301 281 281 301 362 395 430 390 414 403 396 392 381 373 359 351 351 346 353 348 334 331 337 347 413 383 380 377 388 413 419 427 436 460 482 371 366 339 335 335
308 327 306 283 295 339 395 382 400 399 404 406 395 391 378 367 353 349 343 338 352 342 326 344 312 402 372 366 356 346 347 352 361 373 387 399 402 422 446 478 360 362 341
327 285 291 309 396 383 401 396 418 411 409 396 384 375 366 347 347 340 335 345 343 321 332 399 377 356 348 368 378 374 375 369 364 354 356 361 367 378 391 410 422 381 363
280 300 409 393 406 406 417 417 412 401 391 377 367 362 349 341 342 334 343 340 319 323 399 365 355 367 312 320 321 329 337 340 395 376 367 356 350 360 365 372 390 412 427
355 395 398 405 423 420 410 404 391 376 366 365 353 346 343 343 337 345 346 313 321 382 355 357 329 312 307 304 302 308 335 348 365 358 385 387 370 350 346 355 371 378 402
390 409 415 414 403 392 383 373 365 364 355 346 341 339 338 347 353 338 309 326 388 354 348 322 313 296 301 293 318 326 430 412 390 396 402 393 399 370 351 351 353 366 347
408 423 407 393 380 373 366 360 350 344 341 341 343 347 350 349 333 314 346 320 367 344 322 313 297 290 280 297 294 310 422 408 397 388 382 381 382 381 369 353 353 353 349
411 396 386 374 367 354 350 349 348 356 356 345 332 322 320 324 319 367 312 398 345 319 318 303 285 301 282 287 291 294 326 323 335 346 406 399 388 378 380 380 373 363 353
388 377 367 354 346 350 358 356 346 332 331 349 341 337 336 334 341 319 350 369 333 318 293 295 282 275 288 283 282 289 294 307 306 316 332 346 429 413 404 396 385 380 380
369 362 347 345 359 353 340 327 349 335 335 436 482 473 461 454 451 395 382 344 326 317 294 288 293 276 281 290 282 292 275 289 287 304 306 321 345 499 499 488 423 408 384
359 347 342 357 344 330 341 332 327 460 463 463 460 441 440 432 408 383 363 334 310 310 298 281 290 276 282 276 274 290 285 281 290 295 289 317 324 355 474 454 443 517 419
346 341 353 341 334 336 332 328 458 451 439 437 435 431 419 421 381 366 340 330 303 295 293 275 284 283 277 278 273 274 284 285 291 290 284 297 303 316 348 425 428 421 440
340 355 338 331 338 328 321 445 439 433 427 422 429 409 408 389 369 353 328 321 308 292 293 279 270 284 275 279 279 273 268 289 288 290 299 282 289 307 315 342 379 426 407
362 338 327 338 325 318 435 429 427 416 410 419 405 394 395 374 354 342 323 312 306 297 288 282 266 280 276 273 265 269 279 275 281 285 289 299 299 281 302 311 334 346 443
343 324 333 325 315 424 433 425 410 410 412 393 387 385 374 356 345 330 319 306 305 293 286 281 267 278 284 270 266 266 259 282 281 288 288 294 290 297 274 294 301 306 339
324 330 322 313 333 425 431 420 410 404 381 377 378 376 375 346 340 320 317 303 305 292 289 282 268 280 274 274 268 262 267 275 282 280 280 281 291 291 299 303 305 298 307
320 331 312 305 369 412 428 416 394 392 365 363 372 368 363 343 336 319 313 301 305 295 278 286 280 267 275 275 276 274 273 277 276 276 283 282 283 287 290 295 302 295 313
324 307 306 340 362 407 422 406 385 373 362 351 360 366 364 353 334 319 311 302 300 301 292 278 288 279 272 274 277 275 276 278 278 281 279 282 286 285 302 293 293 311 305
319 294 301 333 352 374 423 408 377 361 351 354 342 356 364 351 330 331 310 304 291 297 292 284 279 281 276 277 276 279 278 278 281 281 271 286 281 289 279 290 299 288 304
301 310 329 325 348 335 419 408 386 354 349 355 341 342 358 350 335 329 317 308 297 292 295 290 285 284 282 279 277 278 276 276 272 281 281 279 285 280 288 293 300 293 313

GFSGL_2pvu_pres_018.txt.gz
Presure
209 210 176 153 143 227 239 266 265 256 301 304 316 311 303 288 295 274 277 269 257 261 259 267 271 264 285 306 296 269 280 297 339 297 322 281 292 298 301 337 384 380 384
189 204 220 235 239 265 254 265 260 295 316 317 315 291 278 269 274 277 274 267 264 256 270 271 277 282 289 282 277 281 390 393 396 264 376 380 365 350 293 299 292 299 374
208 225 236 228 241 275 252 270 296 321 318 282 277 286 301 328 373 386 397 379 369 421 413 362 322 307 300 296 380 377 371 373 371 373 366 361 361 354 342 349 353 354 359
222 233 233 239 285 285 282 315 317 293 281 323 341 386 421 386 432 418 418 410 406 397 393 386 382 372 372 367 364 358 357 360 363 368 369 364 366 361 350 338 339 344 345
228 234 241 292 303 297 323 315 286 304 346 426 406 395 382 406 399 409 404 398 395 387 378 370 365 361 359 362 361 358 362 351 341 337 337 336 340 340 359 363 344 340 341
237 246 296 311 307 319 283 285 339 403 392 399 387 397 409 393 398 396 387 386 377 370 361 351 351 350 352 363 361 335 327 348 332 333 469 461 379 338 347 341 382 351 341
259 299 316 316 288 281 330 411 409 410 411 405 415 410 397 395 386 381 379 373 367 353 348 349 347 351 353 333 336 325 398 380 374 370 369 373 386 431 446 402 379 373 353
316 315 314 283 299 363 421 412 420 427 420 412 404 402 393 383 379 372 366 359 347 341 348 345 348 337 330 320 383 365 361 362 369 373 362 350 350 364 396 422 447 481 360
318 284 272 333 420 409 400 418 413 401 391 387 383 377 369 362 363 364 353 344 339 347 348 354 318 326 368 369 340 326 323 330 336 336 340 367 366 353 359 377 403 422 375
272 298 419 412 399 416 416 399 385 374 367 362 359 359 360 358 354 348 341 337 337 343 354 316 324 355 348 328 316 311 327 317 330 326 354 326 340 383 362 354 368 389 404
324 423 409 417 423 396 383 374 365 354 347 346 345 346 346 346 344 342 343 343 349 349 312 324 347 325 318 312 302 313 305 308 411 412 400 361 383 353 390 380 362 364 377
414 408 415 403 391 378 368 357 348 347 354 358 355 353 356 360 358 352 350 346 341 308 333 315 326 311 313 303 301 295 310 329 395 421 413 403 393 396 398 400 416 371 361
407 409 395 383 372 361 353 347 351 357 346 336 331 324 320 321 321 314 314 319 317 333 311 352 317 316 303 294 281 301 294 300 320 331 340 351 409 401 391 385 392 402 366
399 386 373 363 354 349 347 362 350 335 334 346 339 332 357 462 481 354 333 449 385 329 353 324 318 299 294 291 284 287 281 304 296 288 315 320 331 422 424 409 387 391 379
385 365 358 352 350 349 363 343 335 343 335 329 465 460 461 460 466 474 456 316 333 294 344 308 305 300 288 279 285 286 290 283 279 290 297 300 308 295 402 459 444 405 388
362 361 348 348 359 356 334 342 337 332 451 448 444 441 441 445 449 438 430 411 312 332 324 314 296 298 285 277 285 279 284 291 288 276 293 290 290 307 328 475 475 489 418
361 347 351 359 351 334 337 328 317 433 431 432 425 425 424 432 425 419 403 374 359 335 315 309 292 290 284 277 284 275 278 284 283 283 287 299 294 290 306 336 448 437 445
350 350 345 355 333 336 326 316 446 432 422 408 413 421 413 413 417 392 373 357 339 326 308 300 292 289 285 275 281 275 278 267 276 284 281 294 293 302 300 309 342 420 418
344 343 359 335 333 327 313 365 440 424 412 405 414 398 400 406 392 371 356 344 330 323 304 301 290 282 286 273 279 278 278 282 279 278 283 287 296 295 305 296 309 335 373
344 353 335 327 327 314 344 423 429 416 405 405 393 385 396 408 372 357 346 332 324 314 304 303 284 284 284 271 280 272 270 265 264 269 287 274 286 289 299 301 308 301 329
350 342 322 326 320 306 353 426 422 408 406 379 380 379 386 378 362 350 337 328 316 311 293 301 280 279 285 267 278 283 275 264 263 274 279 283 290 284 291 305 301 316 300
342 322 320 311 312 319 348 345 418 397 380 366 369 373 380 373 353 343 334 320 318 308 293 302 283 278 280 268 275 276 271 274 276 275 288 282 287 285 294 295 291 306 313
327 317 319 303 305 336 339 337 422 395 379 360 358 366 370 366 344 340 332 318 312 306 295 298 292 280 279 272 269 275 276 274 270 277 279 289 281 282 285 290 286 303 302
319 316 309 305 303 331 334 333 374 406 375 372 351 352 365 369 344 335 331 319 310 305 298 301 293 281 281 278 270 267 267 274 275 275 277 279 284 280 277 289 292 294 300
309 314 297 304 337 323 330 334 362 419 384 355 366 340 351 365 351 335 332 321 310 308 302 292 301 290 278 276 282 282 273 275 273 275 280 276 278 281 286 286 292 292 297
313 300 302 302 327 319 324 334 359 386 409 363 349 352 336 349 359 352 332 326 313 309 305 297 293 299 297 288 278 278 282 279 278 276 280 281 284 281 288 295 289 303 298

GFSGL_2pvu_pres_021.txt.gz
Presure
194 211 216 216 168 198 225 241 274 262 274 264 283 310 309 314 301 288 284 290 330 389 400 394 359 304 297 282 286 272 276 274 286 261 272 301 274 266 274 282 289 298 314
210 212 213 223 226 247 278 282 286 268 268 314 316 319 307 284 283 425 421 408 405 405 404 415 383 389 382 374 378 368 362 280 302 278 289 283 270 279 264 269 274 274 279
212 210 211 226 256 255 280 295 282 276 320 318 279 281 348 414 409 395 384 383 420 380 367 376 395 418 418 418 414 411 410 409 411 414 355 318 298 276 277 311 397 396 391
208 212 226 246 286 290 296 301 302 315 290 286 395 425 408 390 394 406 390 390 388 400 393 397 398 395 393 390 390 390 390 391 392 392 389 381 385 384 384 379 378 374 376
213 222 257 284 301 299 307 319 310 285 393 424 405 411 408 414 424 420 407 407 403 395 395 394 391 386 380 378 377 373 369 363 363 369 372 370 373 376 376 377 377 371 364
225 231 297 314 316 322 317 281 372 432 412 417 426 419 411 406 406 406 404 401 397 393 384 381 378 374 371 365 355 352 353 353 357 362 358 347 344 346 348 347 353 358 363
238 303 320 326 315 273 318 439 420 413 433 416 403 394 383 379 380 381 382 384 386 383 379 370 362 362 351 347 353 352 351 341 337 339 351 393 362 352 385 372 366 360 344
298 324 325 277 285 366 430 416 421 412 399 388 379 371 365 359 357 357 357 357 358 360 361 357 355 342 349 351 347 327 328 355 378 366 361 363 364 365 366 367 367 370 393
328 325 303 299 427 423 407 412 395 385 373 363 355 348 345 341 347 349 349 348 348 349 348 348 343 340 349 327 319 363 340 330 335 329 330 328 328 336 340 355 375 382 365
330 286 290 431 421 402 405 389 374 364 356 352 348 347 358 359 356 355 356 357 348 345 347 348 347 347 314 310 333 315 314 317 308 331 332 331 345 327 347 341 345 395 372
276 314 410 418 404 397 377 371 361 357 354 358 365 356 349 339 335 331 330 332 343 352 359 356 342 312 357 324 317 305 305 311 314 316 381 432 442 423 404 398 379 361 380
315 411 411 404 392 375 367 354 356 360 370 350 338 340 347 349 349 341 336 341 315 326 341 339 305 357 333 316 303 308 295 303 293 307 300 327 341 352 424 410 401 402 404
424 409 401 389 372 368 352 353 368 352 338 343 338 333 334 346 451 468 489 481 331 357 314 316 319 325 309 304 309 297 294 294 290 300 302 290 311 315 331 400 433 401 393
406 389 384 373 366 350 352 366 347 342 342 328 376 438 438 440 448 464 470 478 462 323 371 313 316 325 316 306 297 284 286 290 286 290 289 295 303 318 307 331 441 439 415
390 379 377 361 355 352 363 347 341 339 325 412 443 437 426 433 439 448 453 446 428 398 363 381 343 314 299 304 293 294 281 286 281 286 290 289 294 306 315 309 474 391 451
376 372 362 357 354 359 345 333 339 324 370 443 430 417 417 428 432 434 434 416 400 394 309 336 289 311 311 292 286 280 287 273 280 279 286 285 281 292 306 305 326 465 471
364 363 353 348 354 348 333 338 319 360 422 428 418 413 415 414 418 417 405 394 378 376 321 312 312 297 309 297 288 275 285 272 279 276 265 253 288 295 279 311 303 328 383
352 358 340 342 354 332 334 321 325 351 429 409 411 397 394 402 407 402 388 374 364 358 337 328 311 298 297 295 288 277 282 278 280 280 280 282 278 286 291 300 310 316 287
346 344 346 355 338 323 329 313 342 345 426 407 383 382 386 400 415 386 376 359 350 343 331 319 306 301 291 290 280 278 278 278 280 270 266 271 279 287 289 295 301 314 319
353 343 354 345 326 326 315 306 335 343 416 396 374 372 380 398 396 375 359 348 341 337 321 314 303 298 289 288 277 280 271 279 275 266 271 265 280 271 289 297 298 303 312
331 348 345 332 319 324 307 332 329 343 424 391 363 365 372 385 386 362 349 337 338 331 316 311 301 299 288 280 283 280 270 279 277 281 273 278 277 276 289 283 296 292 309
347 349 332 320 319 311 304 330 323 339 363 403 369 355 365 377 379 359 346 336 331 320 315 312 299 293 294 277 290 276 275 274 276 269 272 271 277 287 280 288 279 296 301
351 327 325 314 307 302 334 322 321 333 353 418 379 356 351 366 375 359 345 338 325 321 314 308 303 292 296 289 279 273 278 273 276 275 277 278 277 280 279 277 289 288 291
324 328 312 308 294 317 326 316 322 333 381 362 394 362 348 352 364 361 343 337 327 322 315 304 304 297 285 294 285 278 278 272 270 269 268 276 276 276 278 278 289 290 290
326 312 309 293 302 339 315 319 321 337 382 383 417 369 360 338 354 364 345 339 331 325 312 311 308 300 294 294 293 291 282 280 282 281 279 279 279 280 277 281 284 290 291
315 300 303 301 338 316 314 321 324 336 389 385 371 411 357 353 336 346 354 344 333 329 322 314 308 304 303 294 296 295 286 280 277 276 277 282 285 284 285 287 282 290 297

GFSGL_2pvu_pres_024.txt.gz
Presure
125 185 133 210 211 205 204 206 228 234 233 253 290 321 325 331 293 293 297 388 401 424 419 412 407 398 401 398 397 391 390 391 379 347 287 275 279 294 306 286 285 293 294
207 177 181 213 213 211 205 231 250 254 268 322 336 331 323 286 431 426 415 402 393 383 379 380 393 379 375 373 378 383 398 382 387 385 379 301 283 257 277 275 268 277 288
207 220 212 220 211 209 241 237 274 292 336 341 321 290 437 420 410 416 416 415 415 408 403 395 392 390 390 389 386 382 371 380 377 379 375 368 371 368 275 255 258 255 263
217 211 220 215 208 248 251 276 324 323 335 284 450 425 436 426 420 413 410 408 408 413 411 404 397 388 384 378 383 386 390 399 403 409 413 408 416 418 417 387 337 267 260
216 214 227 242 254 257 306 321 340 315 383 437 427 427 416 405 395 389 384 380 375 377 389 399 398 398 391 388 387 387 387 385 387 393 392 389 390 390 390 391 396 396 401
222 227 259 263 275 335 313 340 277 374 429 408 417 401 391 383 374 370 365 361 357 358 363 370 386 392 388 387 386 386 380 377 376 374 368 364 364 371 373 375 380 380 380
248 265 301 311 325 318 337 282 444 423 406 404 387 379 370 366 362 357 352 346 342 343 346 351 358 363 370 375 370 364 362 354 351 355 359 357 359 361 368 371 372 377 378
312 313 328 316 321 310 285 436 417 403 391 377 372 365 361 359 360 358 355 354 354 355 354 350 350 355 362 359 353 346 345 347 352 359 397 413 362 363 390 388 387 372 350
333 323 316 325 286 287 432 413 400 387 378 366 365 361 374 370 359 353 347 343 339 337 341 353 355 344 347 345 339 334 340 352 352 334 327 329 332 343 347 350 352 361 378
286 317 333 287 291 433 408 396 386 378 366 364 363 371 349 346 357 348 344 343 344 343 339 339 351 349 339 339 339 323 328 334 311 310 312 306 411 451 335 323 333 341 343
327 314 275 309 434 407 392 388 373 367 360 367 357 347 348 341 337 381 464 473 463 345 346 319 340 354 350 340 335 320 306 323 301 314 315 309 308 337 358 417 434 421 395
269 287 368 429 407 387 380 371 366 361 369 350 344 341 336 432 454 451 451 454 469 446 330 341 336 351 337 315 323 304 302 294 297 301 295 301 296 303 310 317 330 344 421
301 418 418 404 385 371 368 364 356 367 348 344 333 349 427 443 435 433 441 452 464 479 485 331 314 331 309 335 313 306 294 299 298 291 296 298 291 307 286 328 298 322 441
422 408 396 380 367 361 365 355 362 351 340 331 320 359 434 427 424 431 433 449 466 458 446 320 322 314 305 317 304 297 291 296 281 289 290 289 298 298 306 299 321 316 468
401 381 369 364 360 356 356 354 358 335 331 318 354 429 424 422 421 428 433 442 432 420 406 370 334 312 320 315 296 293 301 287 289 286 288 284 288 293 293 303 301 326 337
378 371 367 361 351 357 353 357 334 335 323 348 355 418 403 399 406 416 424 414 400 392 377 330 315 338 325 309 294 285 291 282 282 285 279 280 277 277 283 291 300 314 332
453 420 391 362 353 346 356 339 324 326 312 343 379 396 386 388 401 412 410 391 380 369 359 373 352 327 315 291 299 296 291 289 273 279 277 280 279 286 280 291 301 296 317
365 362 368 354 344 355 341 324 325 312 339 335 362 389 374 383 402 415 386 375 365 357 365 353 338 321 308 295 285 299 291 291 273 280 278 285 277 278 277 279 297 305 304
396 372 356 344 349 340 328 318 318 312 332 331 357 393 370 378 404 399 377 363 357 355 353 342 327 320 297 292 284 291 288 288 275 278 276 278 266 264 270 279 287 294 302
370 354 333 349 343 330 318 319 301 332 325 331 364 401 369 368 399 389 370 356 350 345 343 334 315 316 298 291 286 290 285 285 277 273 277 275 266 274 275 279 284 294 291
340 341 353 341 327 319 311 294 314 326 321 333 380 407 379 357 379 382 363 350 341 341 336 325 316 311 298 291 286 290 277 281 274 277 269 278 279 278 283 279 281 278 297
355 353 331 321 327 310 299 304 331 317 322 333 387 355 377 359 361 388 360 344 337 331 329 327 316 305 300 293 286 290 281 285 274 276 274 277 276 268 283 280 284 286 278
340 324 324 326 307 300 302 344 316 319 323 329 379 384 416 364 351 369 367 346 335 326 327 327 314 306 303 293 291 292 287 272 283 269 279 274 279 279 278 277 282 282 286
324 323 321 303 302 305 335 312 318 320 322 322 353 401 363 397 356 343 362 360 340 333 329 322 316 307 305 301 294 289 290 292 278 277 275 277 276 275 271 279 283 283 289
321 317 299 306 308 330 306 308 320 320 321 321 340 401 393 390 363 346 338 356 357 338 332 323 318 311 307 303 301 299 289 287 294 292 278 278 280 282 284 280 281 286 287
312 304 304 308 324 296 294 312 318 324 320 319 337 391 401 383 406 357 346 337 359 348 337 328 323 319 313 306 304 299 298 296 284 289 292 291 290 281 279 280 280 287 291

GFSGL_2pvu_pres_027.txt.gz
Presure
186 195 194 177 210 215 216 230 225 229 235 250 253 266 278 297 338 346 335 307 441 440 435 429 424 414 402 391 385 391 393 391 400 396 400 406 406 347 305 282 288 313 317
197 202 179 219 224 225 228 237 235 242 249 256 344 339 331 329 340 283 438 426 418 417 420 421 417 411 406 404 393 387 379 381 381 379 374 383 385 389 412 359 343 279 300
210 170 221 223 231 234 237 240 252 262 353 292 329 330 348 296 438 426 410 400 393 391 390 390 390 396 408 402 390 387 384 382 382 381 378 363 367 374 383 385 389 352 284
211 225 234 229 234 237 247 269 285 338 306 335 347 281 352 424 414 400 388 383 374 369 367 368 371 371 374 387 404 395 384 380 376 376 372 370 364 361 367 383 391 394 392
229 240 237 239 243 287 281 343 327 337 345 296 295 420 416 405 396 384 378 371 364 358 357 354 353 354 354 361 377 398 395 393 389 387 381 373 376 382 391 392 415 417 414
245 235 259 258 340 309 281 340 335 279 291 323 424 411 398 385 385 368 369 361 362 367 364 358 353 346 341 343 353 365 390 386 385 386 385 385 387 390 390 391 395 400 410
280 350 338 295 323 300 283 291 295 312 413 415 404 395 381 379 374 367 373 365 349 345 347 355 368 363 356 349 342 352 359 374 378 373 370 366 366 363 366 369 368 373 378
305 303 281 281 299 297 294 305 334 432 411 397 390 379 377 369 379 359 351 351 349 347 347 346 343 351 352 358 350 346 357 358 358 353 348 346 352 353 355 362 364 370 371
287 271 283 288 288 300 317 418 432 408 393 380 375 371 371 367 354 351 344 337 350 421 440 340 346 337 335 341 354 345 351 346 346 340 351 363 345 340 340 344 348 365 375
293 287 309 309 314 352 426 419 403 386 375 369 364 369 359 350 344 339 372 459 452 447 447 458 475 340 328 339 353 346 345 340 345 331 318 318 306 305 308 428 458 457 350
315 315 316 353 425 413 400 389 375 372 360 369 366 355 345 339 348 365 442 435 430 436 448 460 479 340 311 341 356 347 343 327 319 306 302 313 310 300 307 312 330 340 355
327 338 426 419 401 392 380 367 364 366 365 365 356 341 337 326 362 434 434 437 437 444 457 471 486 330 321 348 355 350 329 308 308 302 299 292 297 301 297 312 308 310 314
432 427 411 407 401 386 373 367 372 359 357 358 336 333 322 351 415 409 414 428 438 452 464 468 464 321 325 362 350 325 314 302 297 297 288 297 292 295 300 299 297 305 320
422 459 479 464 451 429 406 381 365 357 360 336 332 321 345 358 398 397 409 426 440 443 439 434 428 318 325 329 314 316 305 298 293 288 294 285 293 287 289 294 300 301 310
466 445 440 432 413 369 380 364 355 357 339 327 319 331 340 363 387 391 414 428 423 412 408 403 355 316 317 312 314 303 307 293 293 287 286 290 285 290 288 293 287 296 301
390 385 376 369 365 376 363 353 349 342 325 326 310 335 338 400 382 395 420 412 397 392 388 366 334 314 308 311 314 302 301 289 286 293 279 286 284 285 283 282 287 289 300
501 435 433 404 382 363 348 356 343 324 322 306 334 331 340 391 378 400 416 389 382 376 363 358 329 314 305 307 311 298 297 289 290 291 284 279 281 280 285 288 283 285 290
436 415 391 368 349 346 357 336 323 316 308 322 328 330 374 395 372 413 396 379 370 362 354 347 326 314 304 308 306 299 277 290 288 286 284 273 283 277 286 275 265 272 286
375 360 349 351 359 351 330 327 312 309 323 328 325 332 366 399 370 400 390 373 364 352 350 347 333 326 326 309 302 298 281 289 285 287 288 273 279 279 282 272 279 268 281
364 360 359 355 333 327 328 310 308 314 333 322 326 328 339 411 376 367 389 368 358 350 345 340 341 327 321 307 301 294 280 289 284 290 281 285 277 276 277 280 280 289 278
372 353 335 328 330 323 311 306 312 346 312 323 325 325 335 400 383 362 389 367 354 347 339 335 330 323 317 304 306 293 283 289 279 286 285 284 276 276 277 280 282 284 285
345 332 331 326 322 308 308 314 328 304 315 317 328 322 334 407 414 368 363 369 354 342 337 332 328 327 316 302 307 293 286 284 283 286 280 283 277 275 279 278 282 282 284
337 329 323 317 306 306 311 328 290 296 311 322 329 322 329 387 387 386 359 378 357 341 335 331 326 325 317 306 302 300 289 286 285 279 289 274 283 284 277 279 280 283 279
326 318 311 308 310 302 318 300 289 291 301 323 323 322 328 339 419 406 372 352 377 350 338 332 325 321 318 311 304 302 292 291 287 283 282 289 283 277 279 280 283 279 281
320 313 309 310 301 306 327 297 302 292 292 304 318 323 323 334 407 400 411 364 345 374 349 336 326 324 324 317 310 305 299 296 294 294 291 289 289 291 293 291 287 285 288
313 311 312 301 300 318 324 293 304 294 293 302 312 322 324 330 361 412 388 408 360 345 346 357 338 331 327 322 319 311 307 300 299 300 297 294 290 288 281 285 289 291 293

GFSGL_2pvu_pres_030.txt.gz
Presure
192 191 199 162 200 216 197 237 232 235 249 262 273 279 360 356 354 296 291 288 283 426 429 417 408 405 406 412 419 424 413 406 399 386 396 399 400 399 385 346 326 302 315
196 198 206 220 221 222 236 244 244 256 267 262 309 291 317 310 328 289 299 434 427 415 403 393 386 384 381 380 385 393 405 417 412 398 382 373 386 380 385 394 411 384 346
199 204 222 225 231 245 244 241 260 279 255 312 308 298 306 303 291 417 425 413 408 395 388 381 373 369 367 364 365 371 378 386 406 407 397 381 367 362 373 380 390 398 403
209 222 225 236 238 246 245 264 280 310 322 316 304 319 319 376 431 414 398 395 387 383 375 371 371 368 362 360 357 356 359 366 378 397 402 385 384 384 364 361 364 378 394
229 224 236 242 248 265 275 303 334 327 324 325 326 338 441 420 409 392 384 378 376 373 375 375 369 367 365 368 373 356 347 347 355 371 395 398 389 386 383 379 384 380 375
221 236 251 266 263 342 340 338 337 335 333 338 434 425 411 398 387 376 373 371 378 367 359 354 354 354 351 341 350 369 354 343 342 351 370 387 387 390 390 395 398 394 387
247 257 273 288 346 345 340 338 336 337 412 418 408 397 384 376 371 372 375 368 356 353 351 349 352 357 348 347 344 347 368 352 341 343 359 386 389 386 392 394 395 398 401
269 266 257 349 329 326 333 348 396 420 406 397 386 373 371 367 373 377 361 353 345 339 378 421 455 459 465 392 338 338 352 362 354 347 361 370 373 367 367 365 363 367 372
326 268 342 331 342 357 426 426 413 402 394 383 374 365 370 367 372 355 348 340 367 438 446 444 439 444 456 463 336 326 338 349 355 362 354 348 347 347 354 347 347 349 358
261 333 331 349 435 428 418 434 454 431 406 381 369 373 364 366 351 339 337 356 416 418 429 445 440 449 456 467 337 322 335 354 360 345 337 348 338 322 323 322 319 318 403
339 337 391 433 417 432 461 479 457 432 411 389 374 362 361 349 338 325 349 371 405 412 429 443 450 463 474 485 339 325 343 359 342 344 326 318 308 302 304 307 305 303 313
364 446 433 442 450 414 386 374 384 414 384 370 362 357 342 336 323 344 356 398 401 423 444 456 460 463 466 447 340 315 358 345 338 320 308 301 300 301 291 292 302 301 300
446 474 474 415 389 486 396 372 366 369 371 359 356 335 330 320 339 340 395 391 416 438 439 435 436 438 443 323 326 358 348 336 318 304 299 294 298 286 293 296 288 305 298
468 422 399 513 512 431 395 379 384 370 361 356 333 325 316 340 335 361 387 402 431 421 413 411 413 410 330 322 354 349 338 317 303 293 292 294 290 291 285 292 289 290 296
410 395 483 485 430 416 395 375 362 364 349 330 322 313 333 332 339 390 383 422 411 401 396 395 387 352 315 349 343 342 315 302 300 292 293 286 287 284 289 282 288 286 289
388 389 420 413 388 373 358 363 362 338 328 317 311 341 327 334 336 398 378 415 395 387 384 375 359 330 311 322 343 305 308 295 296 290 290 283 287 284 284 278 285 280 287
383 377 367 372 370 371 365 339 334 325 310 308 347 320 327 331 336 399 373 404 385 378 371 359 346 322 307 305 307 315 297 296 296 284 282 279 286 281 279 279 279 284 282
379 370 386 383 371 348 334 338 316 304 310 337 309 323 328 328 337 400 371 397 380 368 360 348 342 322 309 301 313 311 296 290 295 284 277 281 285 277 275 281 277 281 282
375 364 367 355 343 340 330 313 305 307 330 303 314 320 333 326 334 404 375 401 376 368 356 346 341 323 311 303 303 305 297 289 291 278 281 280 285 278 275 270 279 279 286
364 357 345 339 339 322 312 314 303 319 309 289 303 313 330 324 332 391 383 366 381 368 351 345 339 328 315 306 304 303 299 295 289 283 286 280 288 278 283 279 276 277 281
340 341 336 328 320 318 310 313 302 324 304 293 293 300 319 325 326 342 409 369 383 366 355 345 341 334 321 316 306 309 301 296 288 290 279 282 279 287 279 280 279 278 277
337 333 325 321 317 315 311 311 302 333 299 303 294 296 308 322 326 335 408 388 363 374 357 347 337 333 331 327 315 312 306 297 294 289 287 284 282 282 283 281 282 278 277
343 330 321 313 314 313 308 303 312 328 295 305 300 295 306 315 328 330 344 415 375 361 366 351 340 333 328 329 318 309 312 304 290 300 289 283 282 284 282 286 278 279 285
337 330 321 312 299 303 306 310 325 311 302 305 300 294 294 316 323 330 336 420 413 368 357 356 347 338 329 325 323 319 311 304 298 295 301 288 283 281 285 279 286 285 284
321 318 304 297 310 321 325 324 333 297 304 303 294 297 300 315 320 326 335 342 407 411 362 351 354 343 337 328 325 322 318 313 309 296 299 300 294 292 291 289 284 283 289
319 306 301 333 341 343 340 321 295 295 302 301 299 296 302 319 322 326 332 342 366 398 408 364 343 356 347 337 327 323 321 317 312 310 302 302 300 295 294 293 292 291 288

GFSGL_2pvu_pres_033.txt.gz
Presure
184 185 185 191 188 203 214 229 234 230 245 255 275 262 284 277 353 354 353 353 352 353 438 426 416 407 402 398 396 394 392 393 399 397 419 419 425 404 413 436 422 366 336
183 192 191 200 212 217 231 230 245 253 269 250 267 289 345 328 324 335 353 441 436 427 420 407 399 395 385 382 379 378 377 372 377 380 381 405 419 406 393 395 410 403 399
191 192 210 223 219 233 238 233 258 266 274 267 345 337 333 348 399 430 424 416 407 398 393 391 383 379 377 376 376 376 370 371 366 364 364 375 395 406 405 389 390 405 405
188 205 222 222 240 250 247 247 261 276 265 345 354 379 434 430 422 410 401 392 383 377 377 375 373 375 379 378 378 375 370 374 369 363 359 360 373 393 403 396 388 389 396
212 216 228 248 241 236 239 255 279 307 364 430 441 428 414 407 401 392 385 373 369 372 373 374 373 365 358 360 362 354 352 348 348 372 361 355 358 373 396 404 394 381 378
216 235 246 227 257 252 268 286 365 380 438 429 418 417 413 403 396 387 372 371 375 374 370 357 353 352 351 351 355 347 348 344 356 344 365 352 348 357 380 410 404 389 385
233 240 252 254 251 335 324 375 457 436 428 459 473 449 430 411 397 381 374 371 371 356 351 346 345 368 437 461 453 457 462 360 346 338 360 354 344 350 367 396 398 401 399
244 254 257 268 278 331 388 432 432 450 440 401 388 384 417 401 390 377 371 363 350 344 342 363 405 416 432 450 445 438 453 455 342 337 360 355 343 351 366 390 393 391 391
231 259 247 318 359 464 451 447 430 404 383 378 376 377 401 380 368 364 353 341 335 344 360 402 407 428 441 445 444 445 447 461 337 339 370 356 350 357 383 379 372 368 363
249 263 256 366 459 450 444 407 388 460 442 383 365 366 372 365 360 345 336 325 347 359 403 406 435 452 457 457 462 468 469 422 337 339 362 355 364 356 349 347 364 368 356
304 271 374 481 454 421 401 467 462 469 403 367 372 369 363 355 340 331 331 341 352 398 414 444 444 448 454 463 472 479 481 337 325 355 365 355 344 331 326 321 314 313 313
266 377 490 449 416 397 489 515 432 403 381 373 364 361 347 329 326 341 337 344 404 411 433 423 423 426 434 443 454 467 333 316 355 353 343 325 319 308 305 300 299 301 304
378 492 448 413 393 389 380 414 390 372 359 368 353 335 323 320 339 329 339 350 391 429 412 406 407 412 422 430 337 336 314 356 343 334 317 309 304 300 299 294 294 295 294
492 445 407 379 385 379 390 380 374 371 353 337 333 317 324 329 329 338 337 406 384 412 401 396 396 402 384 329 321 316 346 339 331 314 302 301 297 292 289 284 291 293 280
449 409 382 362 377 380 390 379 357 338 343 326 314 330 318 326 331 339 336 402 392 400 392 386 382 371 335 314 311 341 337 331 314 303 295 293 290 287 286 289 282 288 287
416 388 367 352 372 363 360 341 342 337 317 317 327 323 305 324 337 335 337 403 380 394 384 376 366 347 323 306 339 333 331 317 296 296 281 286 287 283 283 284 284 282 284
385 369 356 347 365 352 342 340 324 317 316 305 326 310 295 305 327 333 337 404 377 392 381 372 359 338 318 307 331 331 328 300 293 287 285 285 286 282 280 280 285 279 279
367 352 345 344 348 338 334 322 319 306 313 299 333 308 301 303 309 330 332 372 377 391 377 367 354 336 318 307 311 331 312 297 294 284 286 285 285 277 282 280 281 279 278
362 349 351 345 338 329 325 319 317 309 313 298 335 309 305 299 308 320 331 347 393 383 379 369 352 342 321 310 304 299 314 296 290 286 291 288 279 279 277 286 277 279 274
361 357 353 345 337 329 317 317 311 304 309 306 328 305 304 305 299 315 331 337 383 376 384 371 360 349 333 315 304 301 300 303 291 288 284 289 284 278 275 283 285 278 278
371 361 356 347 340 332 321 299 294 312 317 319 318 304 310 304 297 297 323 333 349 401 371 376 357 349 347 326 311 302 297 306 292 287 288 286 289 277 288 277 283 285 278
378 367 320 332 322 317 299 302 323 329 329 337 302 299 306 303 299 300 321 328 337 362 385 370 367 354 345 340 324 310 305 307 308 295 285 289 287 287 283 285 283 286 286
332 319 326 324 317 303 312 338 323 323 322 299 295 298 303 304 304 307 320 325 333 343 416 377 368 361 351 344 338 327 313 308 298 303 298 294 290 284 290 287 286 283 282
321 330 329 314 305 322 313 313 316 316 316 319 321 323 322 321 321 323 325 324 329 338 350 412 374 360 360 349 339 335 333 326 318 311 313 303 301 295 296 291 296 285 284
328 325 315 323 315 311 308 304 301 300 301 306 315 323 330 334 335 335 332 331 334 340 349 401 404 372 356 355 347 337 332 328 327 315 313 308 311 307 302 293 300 306 300
319 318 320 308 302 299 295 296 301 304 302 302 306 317 327 336 344 346 343 342 340 341 352 361 412 400 376 352 350 346 336 334 328 325 323 317 311 312 309 308 303 298 303

GFSGL_2pvu_pres_036.txt.gz
Presure
184 181 188 190 202 198 205 213 218 227 249 250 251 246 256 268 278 346 429 448 442 437 429 423 416 406 401 398 393 394 396 399 407 402 394 385 387 400 412 439 447 450 476
177 179 196 198 194 197 226 226 225 245 250 270 267 267 271 280 444 444 437 427 420 413 408 401 395 388 382 377 377 380 381 380 383 388 386 377 374 376 392 405 440 434 431
180 194 195 213 215 222 221 236 247 252 260 246 273 271 378 444 434 447 439 431 420 410 399 392 385 375 372 375 379 380 374 375 377 379 377 371 372 364 372 386 402 436 419
197 201 200 220 227 216 238 240 263 268 270 274 351 463 466 461 480 453 434 439 420 408 397 386 375 377 380 380 375 367 363 361 362 362 361 369 372 368 368 371 383 403 435
204 209 220 223 227 241 257 256 262 266 277 426 475 449 435 421 394 387 380 427 409 395 384 378 375 372 368 362 357 353 352 352 352 357 359 357 348 366 366 365 370 382 411
217 218 225 231 243 255 253 272 288 328 442 470 445 409 394 386 401 382 380 404 388 375 371 361 355 351 352 348 355 366 376 426 450 392 356 351 352 344 367 366 362 367 381
221 227 238 241 251 261 282 275 403 467 480 424 398 439 459 451 385 373 381 375 363 352 346 343 338 340 349 372 404 407 417 436 456 464 461 378 347 352 348 366 358 358 371
229 232 244 248 263 259 363 481 475 441 409 397 444 454 439 386 382 377 372 355 342 337 337 348 353 382 407 426 438 441 443 449 451 450 452 435 338 364 343 360 346 348 361
235 237 243 246 263 376 516 471 424 401 455 453 454 419 394 378 367 363 341 328 330 344 344 354 407 450 454 453 458 459 455 452 452 449 461 445 337 335 355 352 339 352 369
239 240 263 261 303 511 458 416 400 400 460 423 398 380 373 368 350 332 325 346 336 342 349 401 438 428 428 434 442 456 465 467 461 461 450 337 331 360 361 343 351 381 397
239 253 254 313 506 456 414 385 395 402 400 390 381 367 351 335 325 330 340 332 345 346 377 426 417 413 419 422 433 446 461 476 484 385 333 338 376 355 358 361 345 351 353
246 244 379 505 462 410 384 365 392 400 374 351 345 346 332 317 333 329 329 345 346 347 394 413 406 406 409 421 432 445 457 405 331 327 345 360 365 349 348 338 325 317 316
307 336 469 476 416 388 366 359 373 355 348 343 343 320 318 324 328 307 307 345 343 385 409 403 397 397 407 409 418 337 321 328 316 360 360 349 340 335 318 308 306 306 304
347 462 492 438 392 373 357 359 359 350 346 331 323 323 307 330 319 303 307 337 343 391 405 398 393 389 373 352 324 323 317 349 348 342 344 330 315 307 305 295 297 295 292
458 469 454 408 374 352 350 348 348 343 332 325 320 322 305 336 320 307 309 329 339 399 402 393 388 373 353 326 315 311 344 336 337 327 318 308 302 300 296 291 288 290 289
444 452 428 388 364 350 349 344 341 336 324 324 313 323 305 337 319 309 309 313 341 386 394 391 383 363 341 320 309 305 330 332 323 309 303 296 295 296 289 288 286 286 288
457 430 390 364 364 355 351 346 341 334 321 317 305 319 310 329 311 307 309 304 334 345 384 392 377 362 340 319 306 325 329 324 310 301 294 292 288 288 283 283 287 285 284
443 406 373 359 370 360 353 348 341 333 318 301 313 324 320 324 304 310 306 304 318 337 391 393 378 361 338 320 309 326 322 319 307 293 292 289 279 285 281 279 284 282 283
428 389 364 351 374 363 352 340 327 313 301 323 330 330 337 311 297 304 305 301 303 331 349 386 385 369 350 326 314 318 324 320 306 294 286 283 281 283 283 281 280 277 283
409 375 355 344 332 320 328 323 314 305 335 315 305 314 302 299 301 307 310 308 315 326 336 403 386 376 354 341 318 308 314 320 306 293 289 289 280 279 283 282 278 276 280
393 362 348 335 321 329 328 313 312 321 319 321 319 317 320 324 331 335 338 332 331 328 326 341 391 383 368 350 334 311 305 301 315 299 283 284 287 283 286 286 281 276 276
377 352 340 325 326 326 314 323 316 314 307 303 304 301 300 305 316 327 336 342 342 335 329 334 347 386 378 360 346 335 312 304 295 301 301 282 282 285 284 282 287 283 280
362 345 331 322 322 316 321 311 304 295 295 299 302 305 304 302 307 321 335 355 353 346 346 339 341 351 382 372 359 342 341 318 308 298 296 297 299 290 284 282 286 284 286
350 336 322 322 317 320 308 300 295 293 292 291 291 293 301 304 306 315 330 357 361 358 352 347 347 355 364 385 369 359 343 338 326 312 308 296 295 300 295 295 290 292 294
345 332 321 317 318 310 299 295 291 292 293 292 294 292 295 305 307 308 324 352 365 366 361 355 353 358 376 370 390 364 359 346 337 333 326 316 309 309 312 313 305 298 300
341 330 314 324 316 301 300 293 288 287 287 290 292 293 294 300 307 308 320 353 370 370 366 361 358 361 368 373 386 392 363 358 349 339 332 331 329 327 321 318 314 313 313

GFSGL_2pvu_pres_039.txt.gz
Presure
188 189 184 180 186 181 193 195 204 228 237 243 239 251 260 258 264 276 379 471 451 475 460 468 479 448 432 417 408 398 393 391 396 391 384 384 394 400 403 410 420 432 440
183 180 185 184 185 198 207 209 237 237 234 236 250 250 256 266 331 462 486 459 445 421 400 395 388 388 426 411 401 393 386 377 379 384 376 375 380 383 389 393 401 411 416
184 187 190 195 208 205 232 237 226 236 241 244 258 257 348 465 477 474 433 416 397 482 409 393 434 420 408 399 392 387 384 384 382 384 380 376 375 371 373 380 390 395 399
187 193 209 212 222 225 230 235 241 263 288 254 310 444 490 463 455 405 411 425 476 432 387 386 394 387 381 375 370 366 364 363 360 363 365 365 366 366 373 381 384 385 387
205 212 228 215 219 239 253 268 267 251 276 341 508 478 440 418 412 444 458 448 397 390 390 381 369 361 354 350 347 343 340 342 345 347 346 349 352 355 357 363 376 390 378
224 226 213 231 237 247 256 246 260 304 416 525 458 426 403 410 465 447 402 393 387 372 361 350 339 335 338 347 350 356 360 365 373 377 377 376 377 375 361 359 361 367 384
217 226 227 236 253 246 249 274 306 443 489 440 407 391 483 461 414 395 384 371 350 337 330 338 342 341 349 353 388 460 459 463 466 454 435 428 436 444 470 368 355 358 358
217 224 242 256 255 256 271 297 467 479 437 402 387 412 409 400 381 361 346 332 324 353 337 340 353 352 385 439 429 430 439 444 465 470 469 454 449 453 465 468 349 357 339
223 241 248 255 273 283 341 460 483 441 403 378 409 380 363 354 355 336 324 326 352 319 323 354 351 388 422 415 414 419 424 441 453 467 461 450 440 443 452 436 345 378 342
233 256 242 286 295 315 466 486 450 409 379 361 373 363 356 350 333 330 319 350 321 308 313 346 361 415 406 404 409 418 429 444 453 468 462 449 448 456 465 336 368 335 362
236 254 252 287 319 422 471 465 424 389 365 350 361 361 346 337 326 325 312 337 316 313 317 348 401 406 397 401 407 420 434 445 465 471 476 460 431 374 334 331 349 359 346
263 252 306 324 361 458 468 441 398 373 359 350 354 346 337 337 323 321 309 335 316 312 308 350 408 400 390 387 392 401 410 409 405 363 338 329 324 348 365 356 354 364 366
249 273 316 349 446 452 447 414 384 364 355 347 344 341 329 332 319 312 333 326 311 310 305 355 405 393 378 371 366 344 327 319 324 319 322 359 357 360 362 347 345 358 326
300 307 334 444 428 450 424 390 367 359 356 346 342 333 323 307 307 320 330 318 314 312 305 346 407 391 371 361 339 321 324 313 334 353 352 346 344 345 337 325 307 307 307
325 335 448 433 434 437 401 367 369 359 357 350 343 330 308 311 333 330 325 307 312 308 307 340 406 391 364 350 327 318 308 346 337 334 340 339 331 313 307 304 300 297 297
341 417 423 427 446 420 378 359 360 362 356 345 327 308 314 336 342 338 309 302 309 310 309 329 385 395 364 345 322 313 305 333 331 333 322 317 299 302 302 291 291 297 291
350 402 441 450 434 396 365 350 340 326 324 322 311 321 349 307 314 309 311 318 320 321 319 328 334 398 379 346 325 315 302 328 326 318 310 299 293 295 294 288 288 281 282
391 449 446 439 412 376 354 343 331 331 329 313 324 321 324 320 314 315 318 328 340 345 341 334 330 382 387 357 332 315 304 327 322 308 304 295 291 288 288 286 278 282 282
372 451 447 425 392 361 347 335 326 328 315 325 320 311 308 310 308 305 305 312 328 345 347 341 330 330 391 375 341 320 307 328 321 305 301 292 288 288 285 283 279 278 279
358 447 435 411 376 352 339 332 328 318 322 314 302 301 300 302 302 307 308 307 319 348 361 349 342 330 339 386 365 334 314 313 320 310 299 295 289 288 286 278 281 282 281
361 433 419 396 364 346 334 328 317 322 313 301 295 296 295 291 292 301 308 306 311 330 366 367 351 344 339 390 382 355 328 310 320 317 308 296 291 287 283 281 278 279 281
436 423 408 382 357 341 331 321 325 314 303 298 296 295 294 295 293 293 301 309 309 322 357 372 368 354 343 342 388 377 352 329 310 310 320 307 298 286 287 286 284 279 279
425 412 396 370 351 337 330 323 320 305 302 297 290 288 288 291 293 294 297 300 310 312 337 381 377 367 356 349 342 389 372 354 332 314 307 312 311 299 289 281 284 286 285
415 407 392 368 346 330 322 315 321 304 296 298 291 290 289 288 291 290 294 298 303 309 323 378 386 376 367 358 358 346 399 373 357 339 324 309 302 298 303 298 296 287 282
403 406 391 364 344 331 320 317 311 313 293 292 294 292 289 289 289 288 293 297 304 309 318 350 386 383 374 367 361 368 356 405 374 360 345 333 320 309 307 297 296 298 298
395 399 392 372 345 332 323 317 303 316 312 291 290 291 288 289 289 287 292 297 304 309 314 342 382 385 379 370 366 368 374 364 403 378 364 353 340 333 322 314 311 315 311

GFSGL_2pvu_pres_042.txt.gz
Presure
206 207 195 189 182 184 183 187 198 202 228 234 255 254 253 290 303 319 303 470 475 445 439 425 405 454 465 446 423 397 436 429 436 427 415 395 394 396 397 395 400 410 418
198 194 184 184 183 190 199 196 228 231 235 230 254 250 286 306 305 429 478 446 425 411 409 456 495 435 408 387 395 395 393 395 400 411 400 395 388 382 381 380 382 390 400
184 189 196 199 203 219 233 236 228 238 241 251 255 278 300 314 518 456 429 409 439 451 462 431 405 394 391 387 375 369 365 364 364 371 369 372 379 385 390 386 384 387 391
194 199 216 217 222 231 226 230 231 240 255 252 236 308 321 482 445 415 441 482 466 438 407 399 386 370 359 350 343 345 350 350 352 354 353 351 354 356 367 371 381 385 385
212 211 223 229 231 221 234 229 235 261 252 273 311 395 468 435 407 388 416 403 384 375 366 350 337 351 356 341 342 355 362 364 365 368 369 369 365 361 351 356 363 370 372
214 208 224 228 225 237 232 235 265 260 272 323 392 469 435 403 383 368 373 366 362 347 334 332 365 330 323 318 355 361 379 441 441 443 447 452 470 462 416 371 358 354 359
216 224 229 234 230 226 247 259 251 271 322 468 474 442 408 379 362 364 368 360 337 332 325 351 334 320 319 338 365 430 421 419 426 434 431 440 465 472 465 426 419 391 358
215 226 235 228 226 255 252 248 265 300 464 449 452 415 384 367 356 358 351 338 330 335 324 347 329 321 322 368 425 411 407 411 419 432 437 449 464 464 471 462 449 445 449
212 236 238 238 260 254 258 263 292 401 454 460 428 393 368 355 353 351 337 333 326 326 316 338 322 322 353 422 412 401 415 421 430 441 449 455 467 456 458 462 459 467 472
240 239 251 252 238 265 270 287 370 447 449 439 403 374 356 348 351 346 324 325 309 317 335 327 321 319 369 415 397 388 394 410 446 452 472 465 453 448 439 436 445 451 460
249 257 230 260 268 265 283 348 407 454 443 417 380 366 357 349 346 337 321 310 319 330 332 320 319 312 412 408 382 376 369 371 378 369 374 445 455 452 454 459 462 431 338
250 246 263 267 281 347 358 400 454 447 423 387 364 362 358 351 344 331 309 326 338 337 319 316 317 309 411 401 372 358 355 342 328 324 324 330 359 368 366 366 344 343 324
251 245 262 299 315 309 398 381 455 435 399 367 362 365 357 329 325 310 341 352 343 319 305 310 318 314 362 397 366 342 324 319 317 316 336 358 369 356 355 359 342 351 347
246 249 271 269 279 413 378 454 444 417 378 356 355 347 328 321 310 353 314 321 320 332 340 341 338 334 342 396 361 335 321 313 313 347 348 351 351 347 352 354 352 356 348
261 266 270 326 397 391 366 452 429 394 363 346 334 327 326 316 327 327 319 316 315 320 334 345 349 344 338 396 363 333 318 306 340 336 334 335 337 340 341 347 333 325 319
273 277 278 362 402 368 408 439 410 374 353 339 331 327 321 323 317 311 317 312 309 313 322 346 355 349 334 400 376 333 312 307 328 328 333 334 332 331 315 306 306 303 299
269 263 356 399 379 356 449 424 389 364 346 332 329 322 321 310 306 304 304 309 320 310 316 337 368 357 340 335 388 343 320 307 327 326 321 319 307 300 300 298 293 290 289
337 348 379 380 364 348 433 411 377 356 343 335 319 321 308 301 298 297 296 298 304 311 313 324 360 372 353 334 389 371 329 308 325 321 316 307 297 291 297 290 284 288 291
342 409 377 368 354 343 421 399 369 349 337 326 326 316 302 302 297 296 299 296 295 303 306 315 336 378 368 349 334 387 349 318 312 320 310 300 294 287 290 289 283 282 282
401 345 366 359 345 370 412 390 362 343 336 324 324 312 301 298 292 288 290 292 295 295 304 306 318 388 381 364 347 348 380 334 310 324 313 302 292 292 285 284 282 284 280
392 371 357 349 334 369 405 385 359 336 329 317 325 312 298 299 291 290 289 290 289 291 296 306 311 329 405 381 360 348 390 376 329 310 320 309 298 294 289 284 282 283 279
371 353 351 344 330 410 398 379 357 335 327 317 318 310 296 295 294 293 290 288 288 288 292 300 309 320 360 401 378 358 349 391 372 329 317 318 309 296 294 285 286 286 283
352 352 346 336 329 405 400 380 353 335 326 322 317 302 308 297 289 292 289 287 288 285 291 295 305 314 330 400 397 378 358 352 392 373 337 316 318 311 301 292 288 285 284
348 342 341 333 398 397 400 389 364 337 328 317 316 305 307 313 306 293 287 289 289 285 291 293 304 317 321 370 399 391 376 359 358 396 374 350 319 316 314 308 300 292 284
342 336 337 329 344 392 389 384 375 340 326 323 314 308 302 298 309 314 314 307 291 288 293 294 305 317 314 345 396 394 386 375 364 367 403 377 360 338 317 317 314 307 305
338 330 333 323 344 349 380 372 346 336 332 322 310 311 314 312 305 309 316 314 294 292 294 296 309 318 314 337 381 398 390 381 375 369 372 384 395 368 354 338 321 315 310

GFSGL_2pvu_pres_045.txt.gz
Presure
210 199 192 192 187 184 184 190 198 218 206 203 239 239 259 260 251 265 283 309 356 470 444 422 428 483 461 430 415 410 405 400 402 389 383 386 395 411 427 432 425 417 419
194 192 189 184 188 197 211 201 208 247 241 248 259 257 244 240 264 295 296 457 447 427 408 393 395 392 389 380 369 361 357 357 360 359 345 349 355 363 374 402 414 411 410
182 190 187 190 215 220 219 240 243 257 262 249 243 264 267 309 310 343 457 446 422 401 384 377 376 372 357 344 339 367 357 348 345 347 353 364 358 353 350 245 372 395 399
196 187 193 210 214 218 241 248 241 250 246 234 254 290 298 294 374 464 444 418 396 382 369 371 356 344 340 332 345 344 335 332 334 362 372 377 377 371 370 363 352 363 375
196 215 213 213 217 225 244 247 247 250 235 251 270 279 275 325 457 446 418 398 379 366 370 351 343 342 338 328 349 339 334 334 366 431 431 428 429 434 443 450 373 361 356
217 207 212 220 205 241 244 243 242 241 262 271 276 303 323 414 453 422 398 376 365 358 352 339 338 334 325 343 340 332 334 398 426 418 416 417 422 428 429 445 463 488 366
214 207 212 214 235 245 251 254 235 258 285 289 284 319 396 451 430 400 380 366 356 353 339 329 326 313 335 336 329 328 389 418 413 414 428 436 439 446 445 451 463 477 471
210 205 213 234 239 252 251 235 256 268 273 263 342 388 445 435 407 382 365 363 352 345 331 325 318 338 339 329 325 324 414 395 388 390 443 452 453 467 465 464 470 471 471
205 216 231 240 257 248 250 249 268 291 273 358 394 374 441 413 383 369 361 357 349 337 320 326 346 342 326 323 326 391 396 378 372 377 369 401 475 466 457 455 455 462 463
216 230 239 253 255 247 247 268 282 268 360 403 372 449 420 388 369 366 361 356 330 315 349 348 335 322 312 318 330 413 376 360 362 352 349 365 443 453 439 434 434 440 453
217 237 250 251 247 261 247 267 275 340 384 377 392 434 398 370 367 366 344 325 317 336 321 326 332 345 349 352 345 407 364 350 338 326 321 324 364 416 450 445 434 436 444
231 245 259 246 252 252 262 273 267 380 388 365 443 409 374 355 340 331 327 323 330 325 318 317 323 341 353 355 342 400 354 336 322 322 319 360 327 357 364 399 450 454 456
246 262 250 250 249 253 267 289 366 398 374 362 423 385 361 343 336 328 326 326 318 321 324 314 322 342 367 356 337 397 347 327 321 313 348 345 353 337 317 361 359 337 334
263 245 253 247 251 267 278 375 351 382 362 433 397 367 351 336 329 323 322 315 310 310 325 317 319 338 377 361 341 398 345 327 319 337 343 346 339 336 351 357 328 323 320
197 253 258 247 266 278 281 332 380 369 352 416 382 359 344 336 325 322 310 305 304 301 304 314 314 326 379 374 347 398 350 330 315 330 330 331 333 340 342 344 345 350 352
252 251 250 262 292 255 342 385 369 360 341 404 372 353 343 323 325 316 303 305 303 303 301 301 310 317 336 387 364 358 380 333 313 327 326 333 336 331 333 336 341 337 334
249 250 277 279 342 339 394 371 364 351 340 396 364 343 339 319 320 311 302 297 296 293 293 297 301 307 317 393 379 346 396 341 317 324 327 331 326 332 326 317 314 311 304
260 288 278 329 340 397 373 363 357 343 391 394 358 339 330 313 316 305 300 295 291 291 292 291 292 301 306 323 396 371 341 381 326 311 323 321 319 309 302 302 297 295 294
279 257 337 360 404 379 358 360 346 335 397 388 362 337 325 314 312 309 295 296 292 293 289 289 288 293 302 309 373 392 363 395 349 314 319 317 310 298 289 293 291 288 288
344 339 379 407 382 361 359 349 337 332 403 385 362 340 331 318 315 307 301 295 295 295 289 289 286 291 293 304 318 408 383 349 397 327 312 317 310 297 291 295 289 288 279
347 411 416 393 369 356 348 343 332 330 405 387 364 343 329 319 317 314 308 306 300 289 289 288 287 289 293 299 311 331 404 379 342 393 320 317 310 302 291 291 287 286 286
410 399 389 379 361 348 344 336 328 341 397 392 371 349 331 321 313 308 307 295 312 309 308 295 292 287 294 297 311 315 413 400 377 340 392 320 317 309 300 291 290 288 283
403 397 382 365 348 344 338 332 326 338 388 382 383 361 336 322 319 309 306 301 298 305 310 313 301 289 295 296 310 312 333 411 398 377 342 390 323 318 311 302 294 290 288
385 384 373 360 346 340 335 328 321 331 336 375 367 354 336 331 322 312 310 314 315 305 310 316 298 291 295 298 312 312 318 389 410 395 377 347 392 338 320 317 307 299 293
373 366 374 354 344 337 331 326 322 310 344 330 322 350 337 333 330 321 313 309 310 311 315 308 296 294 296 304 313 310 317 349 408 408 392 373 362 396 378 325 319 317 307
359 354 359 356 343 339 331 326 322 316 343 338 327 321 347 334 331 324 315 312 315 312 314 305 296 294 298 310 314 309 316 340 383 410 404 387 372 371 353 391 369 330 319

GFSGL_2pvu_pres_048.txt.gz
Presure
206 201 191 188 185 187 184 189 195 205 207 219 221 261 256 259 243 233 272 268 288 305 327 360 445 428 410 392 385 378 370 361 360 345 341 358 366 361 366 375 384 396 414
197 192 189 181 181 184 195 204 210 218 230 210 263 255 259 242 253 273 279 289 374 334 397 444 423 402 389 376 373 361 352 351 352 344 343 349 343 341 341 348 362 368 375
198 191 187 183 187 198 215 212 223 224 238 252 261 244 253 250 278 265 277 317 371 402 439 419 398 380 369 367 353 348 345 344 337 351 346 349 346 341 346 359 377 375 377
194 190 196 191 196 214 212 210 208 238 249 256 253 240 256 262 279 287 326 388 385 438 417 401 376 370 364 353 341 335 334 329 347 347 342 343 389 436 437 437 442 451 411
199 204 189 201 216 213 205 212 215 244 221 255 243 247 260 285 282 323 391 383 440 418 402 379 372 358 358 345 333 320 344 349 341 338 335 409 413 414 426 432 437 435 443
203 196 205 211 211 206 219 220 233 250 251 240 260 265 273 276 310 390 385 445 418 399 378 366 365 358 346 325 334 350 348 337 329 340 416 391 390 397 447 447 449 444 446
198 211 204 219 211 215 213 225 223 256 235 253 254 269 283 264 388 386 390 422 400 379 368 365 348 330 332 353 341 334 327 322 326 354 384 371 372 367 380 446 461 463 455
212 204 208 217 215 212 222 233 250 255 249 253 265 287 269 352 391 371 429 405 372 374 362 332 325 342 330 335 337 346 352 360 352 390 367 357 351 364 379 472 461 466 464
206 210 215 218 213 224 234 249 260 245 260 273 286 287 330 394 374 429 411 373 353 339 331 330 336 329 323 322 331 353 360 360 403 369 356 334 327 341 375 450 442 449 451
209 215 219 215 221 237 250 250 244 255 263 292 287 315 384 377 362 414 384 354 338 331 330 331 323 330 327 323 342 373 362 349 380 354 332 321 316 324 354 446 439 427 438
212 221 209 213 231 238 249 246 247 265 271 285 272 388 377 366 392 392 364 342 332 324 326 316 313 325 322 323 361 378 358 372 361 339 323 319 349 355 332 424 447 432 428
225 219 226 233 252 272 244 261 249 302 289 298 395 385 367 356 403 375 352 339 324 327 314 307 306 305 314 316 365 381 352 392 351 333 319 315 347 351 322 343 388 443 441
219 230 231 240 253 249 243 265 267 283 264 381 391 370 362 354 387 364 344 327 326 320 306 307 303 304 302 310 332 387 353 394 348 330 318 320 342 341 345 317 347 347 371
227 241 260 270 249 249 265 304 356 350 411 401 369 367 352 407 376 354 340 324 323 310 303 303 295 295 294 305 315 384 364 397 351 329 317 334 337 335 333 349 326 317 330
245 258 249 250 259 264 272 252 258 404 407 371 365 357 345 399 370 349 338 323 319 303 298 295 293 294 293 296 306 322 380 381 361 332 317 325 328 332 338 336 333 332 336
253 268 249 261 281 300 351 364 415 412 387 358 360 350 339 391 366 344 332 322 316 300 299 292 291 291 290 292 301 309 357 361 386 338 318 321 332 333 328 334 343 342 344
274 249 261 283 282 260 340 416 413 393 367 362 353 341 336 388 365 342 333 323 311 312 294 292 291 292 290 287 293 304 318 383 388 355 321 320 332 329 334 334 333 339 342
252 264 292 335 358 390 418 412 395 375 356 358 348 337 327 386 364 343 335 321 318 309 303 294 289 292 289 290 291 294 308 350 368 385 328 318 324 328 328 318 316 317 315
264 331 311 376 389 410 405 402 384 363 350 349 341 333 326 388 367 345 334 325 318 318 310 304 300 290 286 290 288 293 305 320 393 377 342 319 319 321 313 308 305 299 300
271 307 386 411 398 401 394 393 374 357 344 345 338 326 335 389 370 348 337 327 318 312 310 309 311 310 312 310 297 293 300 315 386 380 392 326 319 315 306 298 296 293 290
368 384 404 403 391 383 377 377 362 348 341 340 333 322 344 380 382 361 340 328 322 315 308 307 298 301 306 311 302 295 296 312 313 417 374 378 320 315 308 296 291 291 288
385 407 398 389 382 371 364 359 362 346 339 334 330 321 329 368 371 368 353 334 321 319 312 309 310 304 302 316 304 293 297 311 314 328 417 372 368 320 314 304 293 290 288
403 391 384 383 373 362 357 350 361 345 338 332 327 321 315 340 336 362 351 333 330 322 315 308 309 309 311 310 297 293 296 312 314 311 388 418 372 369 321 313 304 294 291
387 381 381 376 370 371 373 361 349 349 341 333 328 320 318 309 336 332 355 335 326 328 322 314 314 313 312 309 296 292 296 310 315 308 328 430 416 374 382 322 312 310 297
390 389 380 376 370 366 372 373 359 352 342 335 330 323 317 309 310 331 329 319 326 327 323 314 312 308 308 311 297 291 294 309 312 309 321 358 427 409 383 372 330 321 311
372 364 355 349 346 345 343 341 363 356 346 341 332 325 320 312 313 313 327 326 318 311 330 319 312 314 313 317 297 292 294 308 312 307 319 345 394 422 404 388 362 385 326

GFSGL_2pvu_pres_051.txt.gz
Presure
205 208 207 217 210 210 206 203 195 187 195 198 200 217 215 221 233 256 258 232 256 288 292 277 338 387 374 444 429 408 387 377 376 374 356 356 357 355 355 356 360 368 366
188 189 192 215 213 232 209 209 206 199 212 207 210 220 220 234 261 254 257 231 240 292 273 355 362 391 442 425 400 381 374 367 366 363 339 341 343 337 341 357 358 363 363
199 196 198 210 226 227 206 202 206 213 222 207 222 220 233 253 263 232 258 276 297 285 357 358 389 442 421 392 375 373 367 360 355 346 335 337 358 357 353 351 352 352 353
202 201 207 213 221 209 203 211 210 217 219 219 223 233 248 262 252 262 281 275 268 370 378 387 442 419 387 371 373 367 348 334 334 364 360 356 352 343 339 356 408 413 419
194 199 208 218 220 204 209 209 206 216 223 231 228 244 264 246 240 280 295 345 363 381 388 381 418 384 378 368 341 333 347 346 344 348 347 346 345 361 417 396 393 393 396
200 205 211 225 233 203 211 213 212 221 223 235 247 271 258 247 279 285 264 366 382 391 369 418 384 386 346 334 340 338 334 331 334 342 360 365 368 406 381 370 364 368 366
205 211 223 236 212 207 218 213 208 224 234 246 265 248 263 288 288 306 301 383 388 375 423 384 359 347 332 339 332 337 332 331 347 386 373 362 399 370 357 342 338 357 393
211 219 234 208 200 215 219 218 220 234 248 259 257 261 272 288 268 350 412 391 375 363 391 363 346 330 333 321 322 327 324 342 384 382 365 403 364 350 336 327 323 356 456
232 236 201 211 221 222 228 226 235 249 255 255 263 268 255 299 325 416 393 378 365 406 371 350 333 332 318 316 314 312 319 341 390 372 399 368 351 336 326 325 353 366 447
227 199 211 225 225 218 238 237 249 241 266 263 264 283 292 362 423 400 378 367 355 384 360 342 324 323 310 312 309 304 314 331 390 356 394 354 338 326 326 356 347 359 443
202 215 224 230 221 242 239 249 244 264 264 260 265 292 327 427 408 375 367 358 401 369 350 333 324 311 308 305 298 300 307 321 388 360 380 344 329 324 348 353 329 342 442
218 222 231 229 237 241 249 238 262 261 264 275 286 379 427 413 381 368 360 351 389 358 346 331 322 306 299 298 297 297 297 310 364 386 378 339 325 342 339 349 330 324 372
221 234 203 233 238 249 240 260 262 267 279 293 394 428 415 395 367 361 354 403 379 352 339 325 317 303 297 294 295 293 293 304 320 381 384 338 323 328 336 336 349 318 328
234 213 237 240 249 275 261 264 272 278 286 392 422 413 404 378 362 357 347 400 375 348 335 324 315 303 298 292 294 294 290 295 310 384 396 340 322 320 329 337 334 335 314
231 237 243 258 242 261 262 272 274 314 397 413 406 405 387 359 357 349 343 395 372 345 336 323 314 306 292 293 292 292 289 291 302 322 388 351 323 319 330 331 333 340 336
238 250 258 266 256 274 276 290 355 386 406 407 405 391 372 351 351 343 338 392 372 347 337 319 316 307 303 295 291 292 291 290 294 316 381 375 327 319 332 331 328 340 336
258 271 269 255 274 275 372 396 388 406 402 386 388 377 359 344 348 338 336 391 373 352 334 326 316 317 311 306 303 295 289 292 293 307 385 384 333 320 328 331 331 332 339
275 257 253 273 266 399 394 409 407 395 386 375 372 364 350 340 342 336 331 391 375 356 338 327 318 314 313 309 311 310 311 312 292 301 330 381 342 319 321 328 322 325 330
260 261 267 325 383 410 410 405 390 385 381 367 362 361 342 337 335 333 325 361 381 363 337 329 320 314 309 305 299 299 305 313 292 295 317 385 368 321 318 320 314 314 309
278 330 346 408 418 409 398 390 380 378 368 358 351 356 343 334 331 330 322 344 374 373 355 333 319 316 310 304 304 298 298 315 294 293 315 366 385 332 318 316 307 305 301
291 388 381 409 402 391 393 388 386 373 368 362 357 349 341 335 330 328 324 316 336 368 356 356 331 318 312 304 304 312 303 314 292 292 319 310 410 385 323 314 308 300 296
383 368 401 395 389 395 400 393 381 374 370 376 366 353 347 340 331 328 323 318 308 333 351 347 328 324 319 309 302 307 311 311 294 292 308 312 315 409 357 321 309 302 292
389 401 387 391 377 365 356 353 348 345 343 344 354 365 353 343 334 329 323 319 309 309 328 326 332 324 320 316 304 307 309 309 302 292 300 315 306 334 417 357 320 308 299
395 397 389 364 353 349 346 346 344 344 342 336 333 328 351 350 339 332 326 319 313 309 311 323 324 312 331 322 312 308 305 308 303 289 294 309 306 309 350 429 382 322 310
396 380 360 355 356 357 358 353 335 335 340 341 336 333 331 326 333 333 328 321 317 312 310 312 320 324 312 319 325 312 311 310 317 290 292 300 314 304 322 369 438 386 329
374 361 362 362 375 376 371 364 360 356 352 347 344 340 337 333 331 328 323 322 320 317 314 313 317 321 323 314 307 310 316 317 316 293 296 297 316 304 319 342 411 434 391

GFSGL_2pvu_pres_054.txt.gz
Presure
193 200 191 191 191 185 195 202 202 211 213 236 236 212 205 211 220 215 227 243 252 271 251 250 290 290 374 365 396 391 444 425 409 397 380 376 373 370 364 360 352 352 355
190 199 187 194 178 177 192 202 206 216 239 235 211 204 205 224 226 229 238 251 265 243 269 275 286 311 374 400 386 437 412 390 388 377 347 339 338 339 340 342 343 365 365
200 197 190 191 180 179 202 207 216 245 233 206 206 217 233 240 239 244 252 265 261 287 278 288 372 388 397 383 432 405 390 361 346 349 353 347 347 346 350 355 355 352 355
199 193 193 193 176 202 212 213 241 227 204 205 225 234 228 237 241 246 266 256 280 279 295 361 426 399 381 405 399 380 354 343 345 342 346 342 340 342 356 376 372 375 385
193 190 192 182 206 211 213 238 211 203 211 219 225 233 238 240 258 265 253 281 277 282 295 419 400 384 369 399 371 351 343 338 330 331 331 335 364 395 393 384 376 405 388
191 194 190 207 206 221 233 199 210 222 214 233 238 234 245 259 257 267 274 281 280 295 430 406 385 372 409 376 350 337 330 322 321 318 321 357 401 390 373 388 384 373 353
193 202 205 210 228 220 197 213 212 221 229 240 236 250 259 244 276 271 281 285 293 436 414 385 373 376 385 361 340 331 317 320 313 308 321 411 388 363 403 368 359 346 340
202 204 209 232 220 203 212 211 224 233 236 238 247 263 264 266 269 276 298 344 427 415 385 375 364 373 371 348 332 320 316 308 306 308 317 406 371 401 363 349 338 333 356
205 209 230 213 201 212 204 220 228 237 241 252 266 253 269 265 274 302 389 431 402 394 376 367 353 386 364 341 330 314 310 306 304 303 312 362 399 375 350 337 345 358 356
213 237 216 203 208 213 222 227 236 243 250 262 265 261 266 275 295 394 420 422 405 377 368 358 376 373 352 336 327 311 305 300 301 301 307 326 403 365 341 330 347 357 343
239 203 206 207 216 221 229 239 244 246 263 259 269 273 274 285 402 410 419 409 384 366 359 350 390 363 345 330 324 309 301 297 302 300 302 314 399 366 337 329 341 342 348
205 212 212 212 225 228 241 242 247 266 260 276 282 277 290 408 408 413 410 395 367 356 350 355 383 360 341 327 322 309 300 297 299 301 299 306 383 377 337 327 332 342 343
185 212 223 225 233 241 248 252 266 263 274 270 281 396 409 412 410 404 394 373 357 352 346 357 377 354 340 328 320 311 298 299 302 302 297 304 335 389 339 325 332 337 342
209 227 229 232 241 244 256 259 266 274 284 289 294 409 410 400 393 391 384 358 350 347 343 351 374 347 339 323 321 314 309 303 300 297 297 302 315 390 342 324 333 334 339
225 232 236 241 246 262 260 264 264 272 400 407 418 410 399 391 384 371 374 354 347 340 338 368 374 351 335 327 320 318 314 310 309 311 313 301 311 390 345 323 335 333 333
232 237 246 247 264 262 271 265 273 385 409 412 401 394 384 381 375 365 363 349 342 338 333 389 373 355 335 328 319 315 317 310 314 315 318 301 310 390 349 324 332 334 336
242 252 252 263 266 272 270 276 401 400 412 398 388 382 378 379 367 354 359 345 338 337 329 346 377 360 340 327 321 312 313 308 299 307 316 300 309 389 352 326 330 331 333
257 263 270 259 266 264 371 382 382 407 401 393 403 389 384 373 363 356 355 343 335 335 328 330 380 367 347 333 319 316 311 308 304 300 314 302 304 387 361 326 326 323 326
268 271 266 275 274 358 384 389 403 396 393 376 375 384 381 375 367 363 353 344 334 331 329 320 337 369 361 338 324 318 314 307 312 305 314 307 299 317 386 330 323 318 318
267 267 267 366 387 378 387 397 395 391 370 354 346 347 347 350 348 368 359 349 339 331 329 321 316 331 353 351 334 320 316 308 305 304 311 298 294 314 401 342 321 315 310
281 274 354 381 370 388 398 391 381 365 352 348 343 341 343 337 340 341 358 352 342 334 331 325 316 307 326 347 332 324 320 314 305 306 309 307 291 317 310 402 329 316 308
322 382 373 372 396 395 394 386 366 350 351 353 354 351 348 336 327 330 330 338 346 339 332 325 320 310 307 324 321 324 323 318 307 307 309 313 291 299 311 320 400 324 311
379 365 385 398 393 386 380 366 361 356 354 374 365 356 348 343 340 335 333 330 326 342 334 329 322 317 310 308 323 315 318 326 314 307 306 308 300 291 306 306 357 403 323
370 398 396 386 377 371 364 363 358 402 390 377 367 359 355 349 346 344 339 336 332 329 326 328 325 319 315 310 310 321 317 310 329 312 310 307 311 292 292 310 304 343 414
400 390 377 369 441 430 350 330 393 380 359 339 337 338 338 337 334 332 329 325 324 328 327 325 322 321 320 317 312 314 319 320 309 318 311 313 315 294 292 299 309 304 335
381 371 411 411 372 341 380 367 353 347 355 393 420 416 415 407 392 373 357 345 337 331 325 323 322 321 321 320 319 319 321 321 321 309 305 311 310 314 306 295 315 301 311

GFSGL_2pvu_pres_057.txt.gz
Presure
201 198 197 188 199 197 190 196 191 195 195 190 212 242 221 202 211 213 215 232 246 249 265 265 260 278 277 311 350 418 430 405 394 446 413 395 370 359 353 353 353 357 354
203 195 195 184 192 193 191 184 194 195 206 214 240 219 202 210 207 215 228 246 247 266 265 269 280 279 290 373 417 428 396 385 416 414 363 351 350 355 355 354 351 353 354
203 205 207 193 191 191 184 195 201 205 217 241 212 203 207 216 215 235 245 249 262 260 279 278 282 297 386 433 428 395 385 395 402 367 347 347 336 333 335 338 346 355 362
215 199 192 191 195 191 204 203 211 221 246 225 207 206 218 221 229 248 249 260 269 276 275 282 295 369 440 423 395 382 372 405 371 348 337 325 324 326 324 329 416 408 400
189 194 194 192 204 201 204 207 221 227 212 206 211 215 216 237 247 250 264 257 279 274 282 287 306 427 427 403 381 373 370 383 355 340 327 321 319 317 317 377 393 380 371
201 191 201 206 202 202 206 210 220 227 208 212 215 218 237 246 246 265 256 269 275 282 318 345 420 430 410 383 372 366 395 365 344 330 318 314 311 311 314 400 418 405 370
190 209 204 201 201 205 213 222 216 205 212 212 224 238 245 248 263 271 263 277 288 335 414 419 428 409 386 373 365 355 378 355 337 323 315 311 307 309 308 380 402 367 355
206 204 194 199 205 211 220 221 209 207 212 226 237 249 249 263 270 268 271 277 384 424 420 425 412 390 371 363 354 387 362 346 334 322 313 305 309 308 306 376 375 351 344
199 193 197 205 210 216 226 213 205 211 229 241 253 250 265 271 261 275 279 393 409 421 413 416 394 370 363 355 352 373 352 341 331 318 312 307 307 308 307 339 375 347 343
194 204 205 204 218 228 215 204 220 237 244 249 251 270 257 269 277 278 400 438 425 405 395 397 376 363 357 350 341 365 345 335 328 317 310 309 308 307 306 327 374 345 333
204 206 207 221 228 216 199 222 238 243 249 251 262 262 264 276 291 382 426 418 407 392 384 384 364 354 350 344 380 359 344 332 324 315 308 306 306 304 307 322 384 345 335
205 213 224 235 217 199 227 236 242 252 260 265 268 269 273 279 410 422 419 403 389 384 377 370 355 348 343 341 373 355 342 330 321 318 315 308 307 304 310 320 383 345 332
218 222 240 227 219 233 232 244 253 263 262 268 281 285 281 400 415 411 396 392 378 374 374 361 350 345 340 353 372 353 339 329 324 323 313 315 316 319 320 320 381 342 333
216 225 244 222 231 239 246 258 264 257 259 274 286 367 396 422 410 398 400 386 379 367 357 356 347 341 337 359 370 352 334 333 321 321 323 317 321 322 307 325 370 337 336
195 245 224 236 242 249 259 266 270 269 267 278 397 388 397 409 402 390 396 389 380 363 351 353 345 340 333 352 371 353 337 331 324 318 320 309 308 321 304 356 365 333 335
250 233 239 245 250 266 270 270 274 283 284 394 377 389 395 399 386 368 359 383 378 366 354 353 340 337 332 334 376 359 342 331 324 320 313 311 304 324 301 325 360 331 335
237 240 245 254 270 263 270 265 291 410 391 367 387 393 392 387 365 352 351 345 352 376 364 357 341 334 330 326 378 363 343 333 321 319 311 311 308 322 299 320 361 330 330
244 250 260 281 272 272 285 316 399 387 365 393 388 388 385 379 351 345 344 343 343 339 373 357 345 333 331 321 326 365 359 338 326 319 314 313 308 322 296 316 371 331 326
252 264 282 276 267 290 407 394 378 371 405 401 385 372 375 364 353 349 347 344 346 342 334 357 348 337 330 324 318 325 354 346 335 320 316 308 306 313 296 314 385 336 323
269 266 279 267 288 394 379 367 387 402 395 384 373 368 362 354 349 343 347 346 340 335 333 330 347 341 332 326 321 312 327 343 330 329 320 311 306 308 301 306 313 349 325
270 277 278 387 381 367 384 395 397 388 376 369 450 432 330 326 401 394 370 359 348 342 337 334 330 342 333 329 323 316 307 324 323 327 324 317 313 308 320 295 312 407 335
277 295 389 374 392 404 403 390 377 418 428 422 409 338 406 396 385 373 364 359 353 348 343 338 334 331 334 331 328 321 316 307 320 319 324 320 311 308 308 293 302 307 399
360 385 376 400 408 395 383 409 419 405 394 383 374 370 361 353 337 335 335 335 333 329 327 326 328 329 328 326 329 324 318 314 308 321 315 323 317 313 308 314 291 304 307
383 377 413 402 390 379 420 405 390 378 371 369 367 364 361 359 357 362 401 402 387 357 341 334 330 326 323 325 323 322 322 315 313 309 322 314 315 314 310 308 309 291 306
390 412 397 389 434 415 392 378 478 468 457 448 442 437 431 425 420 412 395 338 337 392 384 363 349 339 333 326 323 321 322 320 318 316 315 322 316 310 311 312 310 296 293
406 394 398 424 405 384 459 457 416 375 362 357 351 348 348 344 336 331 329 331 335 341 344 337 334 365 358 346 338 330 325 322 320 317 316 320 323 318 307 310 317 302 299

GFSGL_2pvu_pres_060.txt.gz
Presure
195 200 203 201 204 211 216 198 192 192 195 196 205 209 206 216 230 223 207 210 215 216 229 254 260 266 264 265 285 294 336 427 453 435 418 394 382 427 404 376 357 354 357
199 201 203 206 208 202 190 191 201 195 193 207 204 203 214 218 226 206 215 211 215 245 254 264 262 254 275 288 309 376 429 435 433 418 388 377 418 398 367 349 346 340 335
202 202 197 187 190 194 203 196 192 209 205 196 203 215 218 233 213 216 212 229 253 251 260 257 267 274 281 309 413 429 420 426 416 389 377 367 396 364 343 338 331 327 327
197 191 192 191 200 205 190 200 205 203 198 211 210 220 236 227 211 211 231 255 257 261 261 274 279 279 291 426 417 429 422 409 387 375 367 404 375 347 337 327 321 320 321
193 196 204 210 200 196 198 203 201 206 215 206 223 239 221 210 206 236 257 265 258 259 273 280 297 301 425 430 427 420 404 386 372 363 362 379 356 341 329 323 319 316 318
207 198 197 198 202 196 207 196 211 205 220 223 235 245 211 222 245 256 260 264 263 268 273 289 435 438 427 423 413 402 386 369 361 354 387 364 345 334 325 321 310 309 314
194 200 199 202 196 204 195 210 203 215 213 220 246 222 228 245 252 260 262 273 276 277 282 422 420 425 414 405 400 385 366 362 355 361 369 355 336 328 317 314 310 308 314
195 195 196 197 194 197 208 201 214 215 219 231 234 233 241 247 264 261 267 276 281 298 413 415 422 406 395 395 385 366 358 357 351 374 363 347 332 328 314 309 309 311 310
201 200 199 192 198 206 201 215 215 222 237 234 240 240 246 269 256 266 278 283 311 415 414 412 402 390 389 383 368 357 353 350 344 370 355 343 329 325 314 308 308 306 309
198 195 191 193 206 207 215 218 224 226 230 238 242 245 271 264 266 274 294 391 412 395 417 402 399 385 378 376 358 351 348 344 378 363 350 343 328 325 319 317 311 311 309
195 188 202 207 215 212 221 233 253 231 245 241 251 263 267 270 274 288 416 405 386 415 402 394 394 384 372 367 352 347 343 340 373 358 346 340 332 327 315 313 316 323 315
185 205 208 217 221 221 239 228 234 247 246 255 263 275 270 278 292 411 400 378 402 405 388 369 391 382 364 361 351 344 340 338 368 352 340 335 323 323 322 320 324 329 310
202 213 224 223 227 255 229 236 248 248 254 265 272 274 287 303 407 395 372 390 398 393 373 353 377 378 359 359 350 340 337 336 367 351 337 333 324 320 324 318 315 319 341
213 225 227 226 248 231 240 250 249 255 280 266 279 294 333 408 388 365 383 394 387 382 358 346 347 375 361 360 349 340 336 334 374 357 342 331 324 319 314 307 323 306 391
220 228 192 215 234 240 249 254 263 286 272 280 290 421 405 367 367 392 394 382 373 373 349 343 342 344 333 361 346 336 335 332 376 362 342 328 322 318 312 309 323 305 379
238 216 225 236 239 245 258 266 286 272 278 309 414 382 378 393 391 393 379 368 364 362 348 345 342 345 339 356 348 339 333 329 330 364 344 330 319 318 309 315 319 305 370
224 246 238 238 244 258 266 276 275 283 318 385 371 393 399 399 386 371 364 362 352 352 349 343 339 339 339 330 353 339 331 327 323 339 356 331 320 320 311 309 315 305 369
240 240 242 250 264 272 271 274 278 370 391 380 391 398 391 380 373 449 451 446 359 306 328 338 343 341 333 327 342 339 332 327 321 314 357 323 329 319 310 309 317 303 389
240 242 251 265 272 289 282 284 357 392 386 408 402 382 373 436 420 413 424 422 405 389 386 380 359 349 340 334 328 331 334 327 320 315 327 342 326 324 313 310 322 298 336
243 251 265 273 287 283 282 379 394 397 411 399 385 380 419 401 384 378 376 393 393 385 377 373 364 352 343 339 331 324 334 329 323 316 308 326 323 323 322 313 315 295 310
252 265 274 286 280 282 410 397 408 409 395 391 428 412 392 376 367 364 354 348 344 338 335 333 332 332 337 338 337 329 324 332 326 322 315 307 321 321 326 310 305 305 304
267 280 289 279 280 374 407 415 401 430 437 418 398 378 409 462 451 439 418 390 366 351 343 338 336 334 329 325 325 326 326 324 329 325 318 312 308 320 320 318 309 315 292
286 291 287 284 417 415 410 430 432 416 403 390 457 477 418 365 354 378 432 425 415 403 390 388 388 377 355 338 329 325 323 323 322 324 323 315 312 311 318 319 315 303 313
292 285 288 414 415 406 424 420 401 391 480 435 392 370 354 346 337 336 337 334 339 356 410 347 333 333 391 368 347 336 328 324 321 322 319 320 314 312 315 318 317 312 304
286 292 417 413 402 415 413 394 381 416 388 373 364 354 349 344 338 333 329 343 344 339 327 323 325 329 335 334 350 356 345 337 328 324 320 320 321 318 316 319 318 314 313
297 415 410 398 437 419 395 377 374 385 371 362 355 351 348 349 350 349 350 354 356 354 345 339 339 342 342 346 351 345 340 359 350 340 329 322 320 320 319 318 322 319 310

GFSGL_2pvu_pres_063.txt.gz
Presure
197 192 193 195 194 200 205 201 194 194 193 195 206 200 195 203 204 214 210 217 220 230 239 207 222 247 270 258 265 276 290 300 333 437 440 443 430 429 416 394 385 379 415
193 194 196 196 208 189 184 197 191 190 204 196 195 200 201 219 211 211 215 224 233 247 203 228 253 275 263 269 283 298 329 385 443 446 430 425 416 406 387 380 372 408 385
194 197 202 203 189 185 189 191 197 190 194 199 202 195 213 203 212 216 228 254 227 227 249 259 267 270 272 281 296 353 443 446 432 423 415 407 392 378 373 369 398 381 362
198 200 198 190 184 190 193 199 189 196 197 200 190 210 212 217 219 233 227 219 248 251 260 270 272 271 282 297 432 429 426 423 413 404 398 386 373 368 366 392 376 365 347
196 197 188 183 189 193 208 194 198 204 197 193 207 217 220 220 240 223 225 246 252 259 272 266 276 292 305 439 421 417 413 399 395 392 383 368 363 360 365 384 369 344 337
194 193 184 193 204 209 195 207 202 197 202 201 223 222 225 243 221 240 249 250 262 271 263 268 298 400 423 409 401 415 399 391 386 383 365 360 357 355 382 365 358 341 333
190 188 199 211 200 197 199 205 189 204 201 218 224 228 210 222 247 247 254 272 268 270 278 314 424 418 397 372 409 405 395 387 384 365 356 356 350 380 368 353 348 333 330
196 203 202 210 189 202 203 182 204 211 214 221 234 212 226 238 250 257 265 257 273 289 336 421 411 387 364 412 395 390 390 382 373 359 353 350 352 372 359 346 339 328 327
203 185 197 209 207 203 182 203 213 214 221 237 214 229 234 250 257 260 281 266 278 380 415 406 374 362 403 400 376 366 387 372 365 355 352 346 344 369 354 342 336 326 325
200 203 210 206 194 191 203 215 213 211 235 217 232 231 255 253 263 286 270 279 354 418 393 361 376 398 391 389 360 359 379 367 360 352 349 344 377 364 349 339 329 325 326
206 204 205 191 203 204 217 208 223 235 221 231 236 250 258 265 277 272 283 316 417 370 363 388 393 389 382 377 351 348 374 365 357 347 345 343 340 366 347 340 329 324 327
210 201 198 205 196 216 208 223 234 230 235 236 245 258 264 271 271 280 370 404 375 372 396 389 388 374 370 370 345 344 341 363 355 346 342 342 338 363 348 336 327 324 322
201 184 204 193 214 213 220 227 233 239 237 243 255 265 280 267 276 299 398 382 374 397 398 382 368 359 360 362 346 343 347 350 354 342 340 338 365 363 344 333 325 318 317
210 203 203 217 221 216 231 236 242 239 244 254 267 282 289 276 290 399 387 381 399 395 377 362 360 359 355 352 348 341 343 337 354 340 338 335 338 362 342 324 321 314 316
203 195 232 222 217 237 237 240 239 243 250 264 278 280 282 296 405 393 395 405 385 375 369 445 435 420 377 305 343 331 336 335 355 339 334 333 327 361 341 327 319 309 317
215 220 219 229 241 238 236 239 241 244 263 275 279 280 296 415 397 402 405 387 376 397 421 417 431 421 398 361 342 335 342 338 331 340 333 331 322 345 347 329 319 311 304
231 210 237 246 241 234 240 247 255 267 274 279 280 292 412 403 402 387 382 380 427 403 387 377 405 404 391 369 350 349 347 339 327 325 332 328 324 321 357 335 324 313 304
217 244 249 250 235 242 248 258 270 284 291 289 294 422 414 405 393 426 427 418 400 376 357 351 347 382 388 383 375 360 349 340 331 325 331 328 325 315 333 342 329 315 308
246 254 240 237 247 250 259 271 284 291 310 300 429 419 404 436 417 403 393 385 370 375 393 380 356 347 359 368 367 359 350 341 337 328 325 329 325 318 316 334 329 318 305
253 237 239 249 250 258 273 286 289 292 303 426 411 422 425 407 392 388 450 468 464 455 441 426 400 357 344 337 334 331 331 335 337 330 322 330 327 322 312 319 321 318 306
233 244 248 252 258 276 287 292 291 306 422 408 444 416 397 395 484 472 391 369 353 344 336 331 415 393 359 344 335 330 328 327 324 330 327 323 329 322 317 307 319 330 313
248 251 252 259 278 288 293 306 313 421 406 440 417 394 379 384 381 367 361 350 343 339 335 329 336 329 400 374 355 346 341 337 329 322 322 323 323 327 319 314 312 318 322
254 254 268 282 288 294 302 303 418 401 422 415 393 378 366 392 376 363 352 348 342 338 336 329 326 343 329 323 383 396 385 367 350 332 323 321 322 321 325 318 310 316 320
259 278 284 294 293 299 305 417 400 411 409 388 376 423 406 387 370 361 354 345 341 344 346 343 337 337 343 335 322 319 324 334 371 351 336 325 321 321 319 321 319 308 317
280 288 299 292 298 318 413 400 409 406 392 461 432 406 385 371 364 358 352 354 360 359 364 361 354 354 347 344 335 326 326 332 337 365 355 341 332 324 321 320 320 319 314
290 308 285 301 324 410 398 408 399 479 459 425 396 377 369 362 357 362 441 520 507 496 477 434 409 390 371 356 349 341 338 341 341 344 341 362 349 339 330 323 319 319 320

GFSGL_2pvu_pres_069.txt.gz
Presure
199 202 204 199 201 196 206 210 199 196 197 199 200 197 186 193 191 194 202 199 196 205 204 206 198 225 234 246 240 243 249 269 289 305 297 315 415 411 429 428 418 410 406
210 203 201 201 225 209 198 202 199 199 201 203 187 187 191 197 201 201 196 202 203 199 209 234 226 230 246 242 254 247 260 285 299 303 302 412 402 418 421 409 395 398 397
201 207 226 204 202 203 198 197 200 204 194 186 191 193 198 195 197 196 201 204 203 211 222 224 226 245 242 261 245 259 281 296 305 304 409 399 402 409 408 392 375 397 392
227 214 199 196 188 198 200 195 189 191 190 184 196 193 197 197 187 196 192 212 214 224 227 219 240 242 259 243 257 276 293 305 300 372 402 391 407 398 394 372 384 389 376
206 205 205 203 202 200 204 201 200 204 199 194 199 201 185 194 196 201 211 215 223 231 213 240 242 253 243 256 274 288 313 298 369 404 389 406 398 382 383 362 387 379 367
201 195 195 200 201 198 195 201 198 198 201 197 183 201 193 204 209 209 211 217 228 208 240 241 258 240 256 273 288 315 295 357 405 393 399 391 376 368 373 356 377 372 365
198 202 206 207 202 202 200 198 202 195 186 187 194 202 209 207 213 207 220 228 225 244 240 246 240 258 269 288 313 296 352 406 396 395 389 374 364 358 368 353 364 370 363
210 206 203 202 200 200 203 203 197 208 200 199 200 208 206 211 205 221 225 235 247 241 240 240 260 266 288 311 297 363 408 399 395 390 377 370 363 355 363 352 355 364 361
203 203 203 204 203 203 200 208 206 208 198 196 206 209 211 200 223 223 234 250 243 238 238 259 272 290 306 294 367 414 403 394 390 377 373 409 397 361 355 349 350 359 353
205 210 210 208 204 195 212 201 208 201 192 204 207 218 209 221 223 235 252 245 246 239 260 275 289 301 306 360 416 403 394 387 386 401 435 425 402 362 346 348 342 354 349
194 208 210 207 205 215 213 207 199 196 212 207 222 209 223 222 235 250 243 240 245 262 278 294 296 307 432 414 400 395 428 429 423 413 414 423 400 364 341 342 335 348 345
205 207 208 203 209 210 199 201 212 216 217 214 212 226 223 237 249 239 240 243 262 278 289 299 309 422 414 400 430 417 413 428 400 386 435 420 399 363 343 336 338 348 344
204 205 205 215 212 202 204 212 219 208 215 225 229 228 240 251 233 241 242 259 276 287 293 311 431 416 436 424 406 386 380 382 385 362 356 416 393 357 345 335 339 346 341
215 216 220 217 215 222 209 216 212 227 231 234 234 248 250 235 243 252 266 281 287 315 320 437 419 440 416 398 387 387 376 364 360 348 351 371 383 358 345 337 340 342 341
226 227 225 225 224 194 230 231 233 239 231 243 250 237 244 243 263 271 283 296 317 318 433 417 423 420 393 379 398 469 432 408 370 361 360 352 378 359 346 341 337 336 337
240 238 238 239 220 235 237 237 232 232 249 236 234 241 246 270 274 284 293 327 315 408 422 426 415 398 382 371 374 374 399 386 370 394 372 355 379 363 351 344 335 332 333
249 248 221 239 238 234 233 236 243 243 229 233 238 248 269 269 283 287 327 328 383 427 421 456 427 410 406 389 370 361 349 343 337 329 377 356 368 367 353 343 332 329 330
244 240 240 238 237 239 239 243 232 232 237 239 251 263 270 285 288 323 320 352 423 412 459 445 448 429 407 385 366 354 344 340 333 331 377 356 348 361 348 340 332 327 330
252 246 242 241 238 240 229 232 237 240 244 260 265 280 286 306 319 309 345 421 409 395 376 364 360 374 393 377 363 351 345 337 333 328 320 358 345 335 335 334 333 326 329
240 238 234 235 228 230 234 240 244 257 265 267 287 281 309 312 307 335 416 401 401 385 373 359 353 356 360 359 359 351 345 337 335 330 325 343 349 335 329 327 332 328 327
228 232 231 229 233 240 247 247 258 266 271 293 277 280 317 326 337 419 401 395 380 370 366 364 359 377 367 359 349 344 343 336 334 338 332 325 360 345 332 329 324 327 325
229 229 233 237 246 246 254 262 265 283 294 275 291 317 322 341 387 400 398 384 369 369 371 366 372 402 393 376 368 358 348 341 338 340 336 334 322 362 346 334 331 323 322
236 237 243 246 254 255 263 276 288 284 273 315 315 319 337 413 397 385 387 373 367 380 379 374 412 414 402 445 487 445 423 372 350 342 342 332 334 321 318 355 346 332 322
245 244 246 259 258 270 286 294 269 316 316 303 326 333 412 396 383 385 376 368 388 387 392 415 421 441 429 452 504 496 438 419 390 361 346 337 333 332 322 319 363 345 329
246 259 263 266 282 276 266 312 316 306 299 331 330 409 395 383 385 377 382 406 410 419 420 420 421 432 414 450 519 531 528 423 409 393 372 350 337 335 330 321 322 357 336
263 271 288 307 294 309 313 313 304 318 327 363 401 388 386 385 382 416 429 433 430 420 415 419 437 418 403 422 491 474 474 435 414 399 385 366 347 337 334 325 326 366 353

GFSGL_2pvu_pres_072.txt.gz
Presure
208 205 205 206 208 209 212 208 196 195 215 211 201 194 196 195 196 193 191 197 195 197 205 194 203 203 215 207 218 227 237 253 253 246 248 256 270 316 330 323 425 410 421
209 215 212 207 204 205 207 202 227 223 194 199 191 195 193 192 199 198 201 196 203 188 206 202 210 211 205 213 225 235 250 256 246 249 255 267 315 324 322 420 407 414 404
205 198 197 200 198 204 222 230 204 195 194 194 193 200 205 198 195 199 195 201 185 196 204 203 208 209 211 223 233 247 258 243 248 257 276 307 325 318 421 409 402 400 384
198 199 203 222 230 214 212 202 201 197 196 198 199 197 202 204 207 207 210 209 202 201 200 209 211 218 224 229 245 257 243 245 254 281 301 330 315 420 412 399 395 385 374
202 199 200 202 203 201 200 196 196 199 197 196 199 198 200 205 205 211 203 202 198 197 201 214 222 226 233 242 257 241 244 252 284 299 337 323 422 410 401 396 385 377 368
208 206 200 200 198 199 199 200 200 199 198 198 204 204 205 194 213 194 203 201 197 195 216 215 228 235 245 257 240 244 249 279 303 336 320 424 409 397 395 385 377 373 369
205 204 202 200 200 201 198 196 197 199 203 206 207 208 196 213 215 201 198 195 210 215 218 228 235 249 253 241 245 248 278 304 334 316 425 405 398 395 396 384 381 389 385
209 206 204 205 201 196 194 198 200 203 202 195 208 202 214 206 197 193 205 207 217 223 231 235 249 241 243 241 256 284 305 335 324 425 406 410 425 428 419 417 423 409 383
203 201 207 211 210 208 204 204 202 202 202 206 189 209 201 199 193 208 206 221 224 238 234 247 232 241 241 255 284 303 334 355 423 409 438 416 416 427 415 406 415 402 374
203 204 204 204 206 204 203 203 205 204 196 214 201 213 203 198 213 207 235 206 242 235 249 229 238 242 252 286 305 333 337 420 415 434 404 383 383 407 393 388 410 391 367
214 212 214 215 213 212 212 213 215 214 204 212 218 216 219 223 232 238 239 243 241 254 229 241 242 255 288 301 331 347 424 419 427 398 380 371 368 381 369 355 403 384 360
225 224 221 221 205 215 216 220 217 216 217 221 222 230 239 248 239 241 238 244 246 233 240 243 257 287 285 327 319 428 424 416 404 376 372 434 393 361 355 349 397 376 353
251 258 256 243 199 236 236 236 235 236 244 254 254 249 238 241 242 241 249 232 231 239 242 265 291 279 330 331 434 418 449 418 389 374 371 432 401 369 353 353 390 370 350
221 235 265 264 263 256 254 257 257 251 246 245 246 245 245 245 248 238 230 231 240 245 274 292 287 318 322 439 422 400 437 419 398 382 364 362 419 377 364 359 374 365 347
259 257 263 262 263 260 255 248 245 248 251 259 253 248 244 236 234 235 240 242 253 275 295 285 311 319 436 420 399 382 372 425 399 378 360 349 341 336 362 363 365 362 348
258 259 264 260 241 231 237 258 266 259 250 242 236 230 230 237 240 243 248 266 282 295 283 323 315 347 416 402 386 373 369 377 389 369 354 346 339 332 329 363 370 364 353
269 270 263 228 230 252 251 242 238 240 228 229 232 232 243 244 243 256 270 284 278 301 321 308 337 415 396 383 377 372 362 360 381 364 351 342 336 333 340 360 360 369 353
255 237 239 246 245 240 243 241 230 227 230 238 235 242 246 248 272 269 294 278 307 318 312 328 416 399 389 374 364 367 363 361 360 358 351 342 336 332 327 358 349 362 345
246 248 245 242 240 234 233 239 239 238 236 241 247 252 262 269 284 295 296 318 318 314 325 387 399 391 379 365 368 372 363 359 371 354 347 344 334 332 326 337 346 342 333
242 240 234 234 241 247 244 238 237 240 251 262 254 265 274 280 282 323 323 319 318 329 395 400 387 384 372 370 377 373 366 366 388 369 349 339 335 330 334 323 348 336 330
250 237 246 245 238 242 243 243 248 264 249 267 262 280 273 291 324 329 321 324 334 349 400 385 389 384 396 393 384 376 375 406 402 383 363 347 337 330 333 328 346 341 331
250 245 241 244 241 244 247 262 251 264 264 273 263 277 298 326 335 329 332 333 384 399 388 401 420 421 418 407 402 405 413 411 421 434 421 361 348 334 335 334 322 351 336
244 241 244 245 251 260 254 263 265 268 266 272 287 299 327 340 340 338 341 379 399 403 446 440 435 435 430 420 414 415 417 416 411 412 423 408 375 347 335 335 329 320 351
247 249 260 257 255 261 268 267 268 270 278 303 322 333 343 339 335 404 403 405 440 448 446 444 447 437 427 417 418 426 422 406 405 468 438 411 391 360 342 336 333 326 317
261 253 257 261 266 273 272 260 276 291 321 338 340 345 337 358 410 411 434 452 454 454 454 451 442 431 418 418 428 424 409 398 493 475 464 416 397 370 352 341 334 333 322
260 262 268 272 266 256 273 292 318 344 342 342 338 353 418 421 438 460 453 462 464 457 448 441 434 426 422 426 429 410 396 402 498 502 487 415 399 382 366 350 339 333 329

GFSGL_2pvu_pres_075.txt.gz
Presure
204 204 208 210 212 212 208 204 207 213 208 203 208 222 219 216 223 198 196 202 198 201 204 202 205 214 206 215 206 200 215 214 222 220 245 244 265 243 257 262 292 348 343
205 204 205 206 213 214 215 210 202 201 207 221 231 207 207 206 203 201 200 198 202 201 200 206 213 194 219 215 204 211 219 217 224 245 243 259 241 257 262 294 351 338 438
218 220 211 205 210 211 205 204 193 210 231 231 208 207 205 201 203 201 202 198 203 204 207 213 211 221 208 203 205 216 216 226 249 252 259 243 258 259 286 347 333 442 427
216 211 209 211 212 209 205 203 204 204 206 200 197 199 201 202 196 198 195 202 200 202 207 201 219 203 202 208 215 218 227 251 253 256 243 256 259 289 305 337 434 423 414
206 204 204 203 203 203 203 205 207 204 200 198 195 194 193 190 193 195 196 198 204 204 203 210 201 207 210 214 221 227 249 251 254 240 255 258 284 294 342 430 414 439 441
208 208 208 211 207 205 207 199 198 197 195 195 195 196 197 198 196 194 204 205 190 214 205 201 208 221 217 228 231 249 248 248 235 249 253 274 300 337 428 419 440 431 414
206 205 211 213 210 199 203 204 203 201 199 201 203 206 207 208 206 205 197 208 208 204 209 182 224 222 237 257 250 252 251 236 245 253 272 300 297 426 419 422 408 393 389
219 215 210 210 210 208 207 208 206 204 201 198 203 209 211 212 211 213 210 211 218 180 225 229 240 254 244 249 251 240 238 247 256 282 304 334 326 424 415 412 390 377 371
226 223 218 215 213 212 210 211 208 206 207 206 206 217 215 213 217 217 222 228 236 235 252 254 240 244 252 242 233 239 248 251 275 294 337 321 424 440 419 399 379 372 374
252 239 230 226 225 225 222 223 225 226 228 228 234 232 235 236 240 242 245 252 260 247 240 257 253 247 232 229 243 248 251 275 296 329 323 425 402 394 409 396 376 419 383
245 250 249 246 246 246 245 243 237 237 233 232 239 251 249 243 250 258 260 254 249 260 252 245 229 228 232 244 244 252 285 315 320 327 376 405 389 380 404 391 365 415 382
243 228 232 214 211 222 240 224 218 236 241 252 259 258 259 255 249 236 245 251 243 240 231 227 232 240 245 250 276 287 285 333 327 336 411 392 378 405 405 381 362 405 376
239 246 229 228 248 231 239 268 264 272 261 261 258 251 238 229 245 242 233 234 235 229 230 242 242 252 267 280 287 318 337 328 334 411 395 378 372 407 389 370 355 342 341
224 234 236 237 268 220 269 277 273 267 267 258 235 231 239 243 229 233 233 231 235 243 241 254 267 274 276 281 300 337 334 337 384 401 387 368 369 391 376 362 349 342 334
232 244 233 232 217 240 244 239 248 246 246 248 247 241 235 235 238 244 249 244 241 252 266 272 279 271 280 298 331 341 340 335 397 390 374 363 364 363 369 356 345 338 333
235 235 245 244 237 247 255 249 250 256 249 244 237 232 245 248 244 244 244 250 265 263 277 269 272 280 301 325 344 335 349 394 388 379 367 367 361 362 354 353 344 336 330
217 245 237 247 228 264 257 251 257 253 239 244 248 248 247 247 245 253 263 262 270 262 268 277 274 295 333 346 340 395 397 383 388 379 373 366 358 357 356 348 343 335 329
236 219 241 234 249 260 249 255 248 248 255 255 241 249 248 252 260 255 267 254 272 266 275 280 306 342 348 339 413 403 398 403 394 385 381 371 362 352 364 345 342 333 329
213 243 242 241 261 265 255 251 253 255 251 253 251 256 255 253 263 262 263 266 268 275 287 326 350 348 335 415 410 425 449 429 411 395 383 373 364 359 378 350 338 330 330
242 239 241 266 252 251 251 255 251 254 253 251 249 252 256 263 261 267 267 276 281 306 349 350 337 385 417 428 454 450 438 426 410 399 388 378 371 373 387 359 338 331 329
231 253 258 250 245 240 240 252 251 249 245 251 254 259 260 268 262 277 277 293 343 352 343 343 417 428 448 459 454 446 439 432 411 403 394 393 394 397 390 366 345 333 327
262 253 248 246 241 250 254 249 249 251 251 259 263 266 269 270 278 290 329 353 344 321 420 434 444 472 460 457 457 450 443 427 416 406 400 400 400 398 420 375 352 338 328
261 255 242 247 261 258 252 256 253 258 262 268 267 269 277 284 314 350 343 351 408 416 411 436 437 461 466 466 457 450 437 426 414 404 405 407 402 397 401 405 379 347 333
248 244 254 260 255 262 256 254 264 269 267 269 276 283 311 351 347 343 425 416 402 390 404 413 472 475 468 454 445 440 432 418 412 417 416 407 395 391 393 401 388 359 340
248 260 263 269 261 260 267 266 267 267 277 291 326 354 352 347 419 411 397 384 415 440 466 483 478 467 446 440 437 431 425 422 425 421 408 393 387 449 403 398 386 365 344
269 271 266 266 269 267 265 267 284 302 339 358 351 368 418 400 388 383 425 473 479 484 485 474 459 448 445 438 434 430 427 428 425 403 390 389 462 453 427 397 384 367 348

GFSGL_2pvu_pres_078.txt.gz
Presure
221 221 221 222 217 216 214 213 213 214 210 210 210 215 207 203 202 199 219 210 209 205 203 203 203 203 206 207 204 215 217 192 219 215 217 229 234 242 262 246 264 252 252
209 212 212 213 205 209 209 209 217 219 206 206 208 206 204 202 206 206 212 211 211 206 210 202 212 207 204 206 214 210 196 219 214 227 230 241 253 263 244 259 244 255 263
225 218 219 204 217 218 220 218 211 206 209 209 206 203 203 205 207 206 208 209 206 206 209 206 206 206 213 213 215 219 210 204 226 238 251 262 242 261 253 242 258 266 276
221 201 205 223 211 205 215 219 210 206 206 207 209 206 210 212 212 211 209 207 206 202 201 203 209 214 215 210 220 228 223 235 244 262 252 255 252 243 239 254 266 277 354
224 232 209 201 219 216 218 206 203 207 206 221 218 214 214 213 209 203 197 201 204 205 210 209 211 216 227 229 233 234 245 254 256 251 255 249 234 239 253 264 307 357 348
247 226 231 228 224 222 221 220 224 221 213 211 209 204 205 206 205 204 203 205 214 218 221 226 237 234 238 244 252 255 267 258 256 248 239 229 238 252 274 289 346 354 364
273 279 266 254 242 235 231 227 225 224 222 220 218 218 217 219 219 222 224 227 229 238 242 234 228 236 251 256 256 239 235 248 235 235 238 247 268 291 284 325 354 349 415
230 231 237 278 262 252 245 237 234 228 226 223 220 235 227 227 228 233 239 246 226 218 237 245 249 255 250 245 249 245 233 231 238 245 251 275 281 282 300 352 358 418 399
239 218 224 246 247 232 233 238 240 230 231 231 234 236 239 226 227 235 239 241 268 251 249 256 244 239 229 245 236 229 237 248 244 262 277 282 276 292 336 356 346 411 390
199 240 222 224 223 232 235 237 241 242 242 230 230 241 240 232 287 272 270 267 267 260 251 233 234 243 237 229 240 248 245 253 265 268 278 272 283 314 354 347 410 394 385
229 205 230 219 213 217 222 206 230 236 243 241 243 240 228 221 240 248 246 243 231 238 244 242 232 227 243 250 248 254 263 265 275 272 275 290 319 352 348 409 389 382 381
226 222 230 222 211 212 208 240 235 231 229 241 236 255 264 260 248 247 254 253 247 244 242 245 246 248 251 252 253 261 267 275 272 279 288 326 350 350 411 397 384 372 371
226 167 218 222 222 223 215 220 236 225 219 249 234 240 260 267 261 252 243 245 251 255 252 251 254 253 250 254 262 264 275 276 276 289 319 353 333 411 401 389 379 370 369
229 223 223 212 210 216 216 202 211 226 245 216 241 213 259 223 253 253 252 251 251 252 254 251 250 253 258 262 265 274 276 269 294 347 351 334 420 404 397 388 374 366 365
228 213 223 216 215 221 234 226 240 241 224 243 242 258 256 250 248 244 241 252 252 252 253 254 253 258 265 270 273 273 273 297 344 347 358 424 423 425 404 386 372 365 360
227 225 222 215 222 217 231 230 222 236 243 248 251 259 249 243 239 240 256 256 256 257 253 253 263 273 272 274 270 285 302 342 338 422 416 434 453 438 405 386 374 364 357
233 227 221 223 217 225 227 232 226 245 249 243 263 256 251 241 242 262 261 260 261 254 254 268 270 271 275 265 291 325 352 420 424 434 451 443 441 430 411 387 374 365 354
234 222 216 234 236 228 236 234 246 248 244 248 259 250 239 238 258 256 263 258 251 263 268 263 273 275 289 304 353 352 428 421 398 479 460 446 431 420 407 389 375 363 353
229 227 231 228 234 223 236 243 244 246 247 261 262 241 245 260 258 262 253 257 267 262 269 275 278 294 317 354 366 418 403 382 403 413 457 449 430 416 402 389 378 365 357
226 232 231 233 222 240 244 247 250 251 260 256 243 260 265 266 261 260 267 266 267 275 275 291 299 347 350 404 400 386 385 421 454 468 459 445 430 418 395 387 380 372 363
236 233 231 223 245 243 248 248 253 261 242 248 269 262 262 260 269 267 264 274 276 284 294 314 358 352 398 382 375 436 450 462 474 464 454 441 431 411 398 391 384 384 387
228 239 240 239 237 276 267 263 261 247 256 267 271 264 263 267 265 271 277 279 294 306 360 375 402 387 372 369 443 465 475 476 466 455 445 433 422 411 399 393 388 392 392
245 234 234 257 270 255 250 242 254 274 271 264 262 266 266 273 279 285 294 307 345 365 406 393 381 369 366 480 480 484 476 464 447 440 434 425 414 405 394 393 392 390 397
238 245 260 271 262 247 271 277 266 265 261 269 266 278 280 292 300 336 367 365 375 396 382 374 368 475 490 486 482 471 458 444 439 434 426 417 404 400 401 397 392 386 392
263 258 273 276 269 275 275 265 262 267 268 280 290 301 310 374 371 350 332 399 384 376 373 385 498 494 488 477 466 452 446 441 436 429 423 415 411 413 408 402 388 384 388
263 271 281 275 271 264 265 266 270 282 291 318 352 376 367 376 410 396 383 382 399 442 504 497 492 483 474 463 453 447 441 438 435 431 423 422 419 410 398 385 379 380 387

GFSGL_2pvu_pres_081.txt.gz
Presure
218 214 220 222 234 230 216 218 217 214 217 221 220 214 211 216 218 207 204 208 207 206 229 208 207 216 223 220 219 222 213 203 222 218 221 228 242 240 256 259 265 240 256
212 218 223 235 215 196 223 225 227 236 217 218 226 224 212 212 207 205 208 208 210 210 214 216 219 216 217 216 212 216 222 219 227 233 238 228 236 265 263 248 255 249 241
219 222 208 201 204 205 205 201 212 210 206 227 211 202 206 204 201 202 204 204 205 219 218 211 215 214 217 220 222 227 231 234 226 225 238 235 261 250 239 251 240 237 251
216 209 205 213 208 213 218 205 210 217 217 210 206 209 213 207 207 210 214 213 213 215 200 217 220 224 228 232 229 234 244 238 235 250 266 256 235 248 242 240 238 253 260
248 245 242 235 223 214 202 218 232 219 217 218 224 223 226 225 224 222 223 223 225 227 230 234 209 223 230 232 235 244 269 269 268 261 238 241 242 232 236 250 253 268 278
218 225 214 226 224 221 218 217 226 257 251 256 251 242 246 246 242 238 238 236 233 228 228 225 227 235 289 280 272 266 231 236 238 249 248 234 239 245 254 264 269 276 278
233 197 237 234 224 199 240 225 218 231 249 241 236 236 230 238 239 232 204 246 252 252 243 257 245 246 243 243 249 246 242 240 244 248 248 249 253 258 263 270 285 277 289
228 207 229 241 236 239 237 238 216 210 218 215 223 222 219 234 226 239 235 237 245 239 265 270 270 240 253 249 258 252 246 250 257 253 252 258 259 265 269 281 273 293 301
227 220 221 177 155 175 235 219 229 234 228 216 220 208 207 222 212 233 228 208 229 223 227 232 265 264 259 243 251 256 251 249 251 251 253 262 265 273 275 272 291 304 350
212 183 216 227 229 227 160 234 231 213 218 221 219 225 214 240 223 236 241 216 254 225 257 268 254 249 248 235 240 258 259 253 253 259 259 261 271 271 269 293 305 334 353
212 227 220 151 187 221 227 233 232 226 217 224 222 215 222 218 228 245 247 240 249 245 251 263 230 251 243 243 256 257 254 261 259 261 266 258 273 269 292 302 351 350 428
230 220 211 213 192 228 224 220 227 228 226 224 223 222 215 224 219 244 246 245 243 234 252 259 255 243 239 243 250 254 261 260 268 267 267 274 274 290 300 340 389 429 443
229 222 218 216 222 222 225 227 224 226 230 222 221 234 225 222 246 244 237 239 246 243 254 259 251 239 247 253 254 261 261 271 261 271 274 274 288 302 329 390 437 411 449
219 223 217 219 224 226 228 230 232 231 230 220 225 232 231 250 245 238 240 242 243 250 255 236 243 254 259 256 261 261 268 260 271 271 278 289 298 336 428 415 388 396 446
222 218 215 223 229 233 230 234 238 225 237 233 234 238 224 245 239 236 240 253 260 259 257 241 253 258 257 263 262 265 260 275 269 282 289 299 398 411 388 380 407 457 441
226 220 221 231 235 237 236 233 227 240 230 232 238 246 227 237 232 253 271 267 254 242 242 256 262 262 261 266 263 270 273 274 288 289 306 405 398 377 364 419 417 454 433
224 216 233 231 239 234 226 239 239 227 229 238 237 245 231 234 236 269 262 244 242 255 266 268 261 266 265 269 276 277 288 289 305 347 416 396 373 358 433 438 448 444 424
221 227 234 239 233 227 229 236 233 233 237 235 245 237 233 240 255 259 265 266 262 267 263 267 264 265 276 276 286 291 309 322 381 391 393 372 360 383 440 444 439 438 419
222 241 242 231 209 231 232 233 230 236 237 244 241 234 244 250 247 243 256 268 268 266 263 264 274 275 283 290 300 356 376 399 354 386 368 365 468 459 452 445 435 428 414
238 243 238 213 230 233 229 228 238 239 242 235 237 250 253 243 265 275 268 266 265 272 277 275 281 291 301 311 381 423 408 391 377 374 379 477 470 472 461 443 430 418 408
247 235 226 227 229 230 230 239 238 247 243 238 251 245 263 278 277 267 265 268 277 279 282 292 296 308 350 425 411 394 379 379 464 490 482 481 474 462 454 442 429 417 400
234 216 233 232 244 247 241 249 255 238 250 254 264 273 268 268 273 273 276 280 287 294 300 316 363 420 410 391 380 392 407 501 494 488 486 472 460 447 442 432 420 405 396
233 237 244 250 253 249 255 239 245 259 266 266 277 268 276 274 278 284 292 295 306 376 435 417 404 391 380 400 403 453 505 495 490 482 468 453 440 433 428 421 410 402 393
245 253 256 250 256 246 252 252 247 264 278 271 278 280 282 289 292 301 321 442 424 414 399 386 388 401 396 427 511 502 496 486 474 464 450 438 432 428 419 411 404 395 387
257 252 241 258 257 252 252 270 267 267 279 285 283 291 297 307 445 432 418 403 395 392 399 393 396 490 516 505 496 485 479 468 458 450 442 435 429 421 415 403 395 394 394
250 256 259 257 252 282 268 274 285 280 285 300 300 324 435 424 411 401 403 408 399 394 400 516 507 507 498 489 482 473 465 455 448 440 434 432 427 422 412 406 403 401 397

GFSGL_2pvu_pres_084.txt.gz
Presure
227 235 225 218 225 225 225 219 213 216 218 215 223 216 227 232 198 239 208 205 231 204 201 204 205 221 204 204 213 218 221 224 223 223 227 236 229 236 237 270 267 264 238
223 219 227 229 228 212 196 218 204 198 226 216 201 199 229 222 221 209 210 207 207 214 214 213 213 215 221 226 225 226 227 231 241 233 229 236 257 264 249 238 239 253 244
215 212 211 216 215 207 208 194 193 232 188 198 216 205 198 198 202 217 213 211 217 213 223 227 228 227 228 236 242 242 239 245 251 252 256 242 231 237 248 252 260 258 258
253 241 242 249 228 248 252 202 204 189 207 198 209 212 210 211 219 218 217 224 246 246 244 245 240 236 234 244 244 237 233 242 262 272 271 258 265 261 264 246 257 259 262
227 219 214 217 216 206 216 211 205 197 200 205 207 209 202 209 190 218 254 246 240 233 228 232 208 204 204 232 230 237 220 249 257 258 251 254 242 243 248 264 266 261 264
214 200 206 202 228 211 215 213 211 212 214 216 205 214 223 202 223 225 225 223 218 224 216 216 233 224 252 258 246 219 228 252 212 267 261 260 250 243 260 258 264 260 264
194 197 193 198 203 201 228 232 223 232 240 161 247 240 165 226 228 217 211 221 218 219 217 215 233 217 252 254 238 252 245 255 257 265 261 254 257 261 261 263 259 264 270
211 203 206 203 211 193 245 193 196 158 160 191 233 229 237 242 236 229 219 216 220 228 216 225 219 250 240 243 243 248 246 249 255 264 240 252 255 257 259 263 265 263 272
201 204 200 197 205 221 208 228 227 222 191 231 228 226 232 233 229 228 235 238 231 212 234 234 229 240 238 234 261 262 259 258 261 244 251 255 255 258 262 265 263 275 276
202 200 193 193 205 208 215 216 221 218 221 216 229 233 230 229 234 230 228 233 225 221 236 244 245 237 238 235 255 268 268 237 247 253 252 260 259 257 257 263 272 276 279
203 195 193 203 202 215 204 215 220 227 216 231 234 236 231 227 236 239 240 241 226 234 233 248 239 229 235 241 250 259 267 264 252 257 262 254 257 256 266 268 279 279 293
196 201 196 206 205 211 210 213 218 228 217 234 235 234 225 229 238 225 230 227 236 231 235 240 230 229 240 244 247 261 257 259 265 260 263 261 264 269 268 276 279 292 306
208 200 197 198 207 206 212 212 216 223 223 228 237 232 223 223 228 229 234 241 231 235 238 231 232 239 243 246 256 256 268 265 261 262 265 272 265 278 278 277 292 302 387
204 205 196 204 211 205 208 214 217 219 221 231 240 235 222 236 238 238 241 238 236 240 245 243 241 242 243 256 263 268 263 268 264 266 267 272 278 279 282 296 307 364 406
208 194 205 191 208 204 213 212 221 216 221 240 242 230 234 236 247 243 241 232 236 245 239 239 243 249 253 259 267 264 267 264 267 269 277 281 284 290 299 332 410 399 383
203 204 212 209 211 213 212 223 218 219 226 245 224 232 239 244 243 240 241 243 242 242 238 239 253 253 260 263 263 264 269 267 275 278 281 290 300 314 408 405 390 372 363
212 215 210 213 215 211 222 222 219 225 245 249 226 239 243 240 240 237 244 239 242 242 239 250 252 261 268 269 271 271 275 278 284 286 300 323 414 420 396 379 364 398 439
218 220 216 215 210 222 221 222 228 242 254 242 241 240 243 243 246 238 242 243 244 239 266 254 268 264 270 274 278 283 287 289 297 320 426 418 403 380 373 392 404 471 454
214 220 217 218 223 223 227 233 235 251 244 242 242 242 243 247 242 247 245 241 244 269 260 274 270 274 278 289 288 290 297 324 430 413 402 385 372 396 395 392 479 460 448
222 223 225 223 228 230 241 244 250 233 246 243 241 245 251 249 243 241 242 266 259 266 279 272 278 289 293 296 301 326 421 414 394 383 381 395 388 380 497 484 472 460 449
229 227 226 228 230 238 256 255 236 246 255 250 254 251 249 240 259 279 269 268 283 278 284 290 298 299 307 346 417 408 394 390 395 398 384 404 506 496 488 477 470 458 443
226 226 228 236 246 249 242 240 249 263 259 250 250 251 248 261 264 268 280 282 291 295 299 305 318 425 414 400 398 402 402 394 385 427 516 506 495 487 480 468 456 446 435
228 219 245 249 245 244 250 264 267 252 257 261 248 261 275 272 280 285 294 297 307 318 386 421 407 402 409 410 401 392 386 490 514 510 500 490 482 473 462 451 438 429 424
242 259 248 236 267 255 268 258 256 260 257 272 274 271 282 293 293 304 309 370 422 413 405 405 417 412 398 389 499 515 508 511 501 491 481 471 462 456 443 433 425 419 413
247 241 258 264 263 255 254 260 260 273 278 272 284 285 292 306 337 428 421 417 418 421 419 410 401 498 522 513 505 501 496 488 483 478 465 455 447 442 433 426 421 411 406
250 271 270 260 259 260 261 272 266 274 284 290 293 312 379 435 430 441 441 431 420 466 538 534 528 518 506 495 486 477 473 471 466 459 448 442 438 434 429 422 413 407 401

GFSGL_2pvu_pres_087.txt.gz
Presure
251 242 244 240 231 226 247 236 230 231 236 226 212 214 223 247 237 223 214 223 198 226 226 223 214 217 210 212 240 255 241 241 235 220 218 205 216 231 236 235 250 253 238
238 240 240 234 231 229 223 224 224 225 213 214 209 225 226 208 201 217 208 194 217 205 206 207 208 202 217 253 223 233 221 220 218 207 231 217 214 249 217 254 246 236 260
260 256 257 246 222 217 217 220 213 216 203 213 185 186 182 190 201 200 198 200 199 200 209 210 209 172 209 223 219 218 221 213 216 211 218 220 239 240 235 243 228 225 262
233 238 237 216 214 228 217 223 242 222 203 200 211 193 182 195 197 201 201 203 169 201 208 222 234 237 228 223 209 215 214 218 218 223 228 232 229 240 252 266 271 253 237
198 191 203 215 228 208 202 214 204 202 196 190 190 190 198 204 199 203 170 173 210 234 235 229 228 225 224 227 223 226 229 215 235 224 238 241 237 230 241 241 263 265 264
193 198 196 196 180 193 193 195 194 213 211 195 195 204 204 202 203 223 243 243 197 200 216 228 228 229 229 233 229 229 216 220 213 248 231 238 242 245 244 255 260 269 272
217 211 203 184 197 201 202 203 186 208 193 202 217 208 221 226 222 220 192 205 240 240 239 233 228 234 241 229 228 241 234 237 240 237 228 240 234 242 252 259 265 263 265
209 214 205 205 202 200 201 202 198 193 207 200 197 189 216 219 226 222 224 235 240 237 234 225 225 241 220 231 227 233 239 245 251 233 239 241 241 249 251 263 266 269 258
197 201 208 216 203 202 201 196 190 192 205 210 201 215 185 213 217 222 226 224 240 239 234 222 218 219 224 229 233 239 232 239 241 240 237 232 248 246 256 264 266 266 270
192 198 192 201 212 212 209 208 201 195 191 202 211 208 213 212 209 225 220 218 225 239 234 225 219 229 239 246 245 246 241 237 238 239 233 244 246 246 264 263 266 272 269
192 194 195 190 208 209 213 214 204 208 194 211 213 212 213 214 212 224 218 221 226 237 234 214 236 239 244 245 238 239 239 239 242 229 246 250 248 256 256 266 266 271 276
190 192 203 203 200 216 212 211 210 202 206 214 213 214 214 212 210 223 220 216 230 249 246 237 245 250 253 238 238 239 242 239 236 249 249 259 254 265 263 266 268 275 274
180 203 208 208 210 216 214 214 215 217 221 223 216 215 212 208 218 222 208 227 244 249 245 251 244 246 242 241 245 241 236 239 249 255 261 252 270 265 269 270 278 278 283
200 204 205 202 210 206 213 212 206 218 214 219 215 214 209 220 225 218 227 240 248 240 249 244 244 243 245 238 236 238 245 251 256 263 257 271 266 272 275 280 284 287 291
206 205 207 201 203 191 207 212 206 217 222 218 218 221 222 225 219 225 238 233 235 247 254 249 244 242 241 238 238 248 248 251 255 264 276 268 279 282 289 287 294 301 368
203 208 201 187 213 213 210 203 211 226 224 221 224 224 225 222 226 248 253 237 236 249 248 244 237 241 240 244 248 250 260 264 269 279 279 280 288 290 301 309 370 417 399
213 202 201 211 212 218 208 209 207 228 220 224 227 227 223 230 253 247 238 247 250 257 243 248 246 240 249 250 262 271 265 284 282 282 287 291 304 320 414 405 397 388 383
205 203 207 211 211 220 212 205 218 225 226 227 227 229 244 260 245 239 256 255 257 243 248 242 250 251 260 267 266 277 277 285 287 296 309 339 421 407 394 390 392 396 388
203 206 209 214 211 214 209 212 229 228 227 229 240 245 251 248 244 256 251 250 245 251 250 253 261 265 271 278 285 280 289 300 310 381 416 406 370 391 401 400 388 379 388
212 211 215 219 212 211 215 232 232 229 237 240 250 244 252 264 267 264 252 257 252 257 264 269 276 290 289 287 294 303 328 407 416 402 389 393 402 404 394 380 430 514 501
215 215 220 213 215 220 239 231 235 239 246 241 246 269 264 269 253 256 264 261 269 275 280 290 292 295 310 375 391 424 413 402 403 409 406 403 392 387 522 520 510 498 486
215 217 214 218 236 232 236 238 243 250 257 260 277 273 271 258 266 265 276 278 282 291 297 304 387 429 429 422 413 410 426 419 411 399 433 521 511 515 510 502 491 480 471
215 218 231 235 237 240 241 248 257 254 278 272 274 260 264 277 280 280 285 296 302 310 441 436 425 389 440 437 429 412 398 473 524 518 510 509 502 497 490 481 471 464 454
224 241 236 239 240 248 245 261 269 275 269 274 264 278 268 279 288 299 311 429 445 459 468 465 455 438 419 535 548 541 534 523 513 504 497 486 479 478 471 461 454 445 437
238 241 239 245 246 264 261 278 266 284 266 279 281 280 293 305 334 486 502 495 643 630 614 598 584 571 558 543 531 518 508 497 487 477 471 468 467 464 455 446 437 429 421
241 244 248 251 264 278 268 285 271 282 273 283 295 309 466 500 491 617 646 630 613 596 583 569 554 539 524 512 500 488 476 468 462 460 458 456 453 449 440 433 428 422 415

GFSGL_2pvu_pres_093.txt.gz
Presure
257 240 240 224 222 205 196 177 168 177 190 190 230 228 226 233 238 229 222 216 220 216 225 243 218 204 210 204 220 205 201 222 180 199 225 223 208 225 213 245 240 229 227
228 241 252 253 250 249 246 240 243 251 252 246 239 231 225 221 224 231 228 217 219 220 216 207 205 202 166 192 194 177 195 184 146 176 210 221 223 196 227 239 240 236 232
231 234 236 239 239 251 234 237 246 238 237 248 248 236 239 216 222 240 226 205 214 209 210 202 201 200 195 190 193 196 206 189 194 215 199 198 223 217 226 228 239 241 241
211 218 220 221 221 229 229 234 229 224 228 228 226 217 214 208 217 221 217 206 203 198 207 198 212 197 209 200 199 190 182 195 209 209 218 222 219 218 228 228 244 242 223
223 198 201 201 198 210 214 211 212 212 212 213 206 211 206 203 196 203 203 206 211 195 192 198 204 191 203 201 183 181 216 222 218 220 223 223 221 223 227 230 239 241 230
195 213 213 218 222 223 219 221 220 223 223 220 218 206 194 194 193 192 192 192 197 199 203 194 186 199 183 183 239 218 220 220 217 221 218 222 215 223 230 229 236 227 232
185 189 189 187 189 192 193 191 198 199 200 204 204 203 207 208 209 208 206 215 221 215 209 209 205 215 209 208 190 230 227 216 219 221 221 219 223 228 232 227 231 235 249
181 181 196 195 194 193 183 192 195 192 196 197 199 202 202 200 211 209 202 203 204 205 207 208 214 204 206 197 199 209 222 220 225 215 218 224 225 230 229 230 234 249 261
200 190 187 186 192 192 193 188 187 192 195 193 192 188 187 195 202 205 208 206 203 201 204 208 215 222 213 201 205 208 225 224 215 220 226 226 230 233 233 234 248 264 262
166 185 183 187 184 182 187 183 187 197 193 189 192 193 200 208 202 204 202 207 203 194 200 204 210 216 213 202 202 220 226 218 221 225 228 226 237 238 236 239 270 260 264
188 187 191 194 189 185 183 186 185 183 184 196 196 194 195 199 201 204 200 204 210 198 200 203 211 216 212 208 216 228 221 217 228 231 226 235 237 246 246 273 264 261 254
207 195 203 201 200 193 187 179 188 190 196 197 192 194 195 199 201 206 194 202 205 201 204 213 211 219 211 213 230 224 225 232 226 232 240 234 245 247 274 259 258 262 262
190 182 184 213 189 193 196 198 193 199 197 195 194 193 198 199 203 203 201 206 202 209 215 207 219 217 213 225 233 236 231 232 236 240 236 241 264 273 258 270 265 263 262
176 172 172 197 181 177 180 191 198 203 195 194 193 202 199 207 207 206 207 224 217 216 207 220 218 219 223 234 237 238 242 239 236 238 262 274 266 262 271 271 260 265 275
171 167 199 198 193 201 205 199 191 202 206 192 192 196 202 210 207 206 224 232 222 209 222 223 223 224 236 236 245 239 240 239 249 276 271 264 269 277 270 268 284 285 283
189 192 193 200 204 207 204 205 196 203 191 163 212 195 204 212 204 208 241 216 219 223 225 223 229 236 238 244 240 244 241 273 273 272 275 281 285 281 291 288 298 303 315
209 208 208 204 204 211 206 208 194 192 209 218 194 203 213 200 213 236 237 227 224 228 226 236 230 247 239 250 243 251 282 285 276 295 287 287 298 297 309 312 344 433 411
205 207 211 212 215 201 199 202 215 214 212 195 205 207 211 219 226 235 227 226 228 237 235 247 246 244 251 257 290 293 282 297 287 288 307 317 326 373 440 427 420 417 422
209 213 207 190 206 200 209 214 211 208 194 210 206 216 218 227 241 230 228 234 238 238 253 244 254 261 295 296 289 296 294 314 326 405 453 462 481 502 503 500 502 504 502
206 206 201 210 213 214 208 207 198 197 215 207 222 226 227 246 229 232 241 229 255 256 256 262 304 299 289 292 309 322 434 608 637 624 611 595 584 571 560 551 543 537 529
214 215 214 214 204 201 213 224 199 221 206 225 224 234 246 230 240 239 254 259 254 260 289 297 286 298 318 475 666 653 640 626 616 606 592 580 569 558 549 540 530 523 516
206 204 199 207 211 217 216 205 221 222 227 232 241 244 239 244 239 261 256 259 270 299 290 302 322 565 580 575 578 584 586 583 575 567 559 549 541 535 527 518 511 505 498
223 224 222 204 204 213 227 222 228 233 235 249 240 246 234 261 261 248 272 300 285 296 318 462 535 466 547 540 538 530 524 523 525 522 518 515 511 505 497 490 484 481 481
232 210 223 230 231 228 232 237 237 242 248 242 242 256 266 253 264 297 296 295 310 401 494 375 479 470 464 458 453 495 501 494 488 484 481 478 475 471 467 466 465 465 464
230 233 235 232 236 238 243 238 248 243 243 243 263 251 263 283 298 284 303 334 488 492 479 471 473 470 466 461 452 440 440 468 470 470 469 467 464 461 459 457 458 455 450
236 233 233 227 234 238 248 248 246 244 263 255 244 271 302 278 298 320 442 481 475 468 464 457 455 450 459 459 447 442 431 422 453 452 448 445 445 446 448 447 446 442 438

GFSGL_2pvu_pres_096.txt.gz
Presure
257 242 229 193 188 182 178 181 185 183 180 165 169 180 181 186 176 181 172 177 192 228 224 220 217 209 217 210 210 213 212 211 207 206 201 197 184 181 186 209 215 213 205
241 253 254 247 239 233 228 192 188 187 176 195 198 198 233 242 240 229 227 217 228 256 248 233 212 221 222 185 205 206 192 195 196 196 187 183 216 219 217 221 218 225 219
252 233 226 225 227 231 235 234 230 230 233 233 235 240 241 243 250 238 232 222 216 206 219 213 201 186 203 199 192 191 193 196 189 184 203 195 197 206 208 218 210 221 225
209 207 231 226 225 230 237 241 233 233 234 227 242 219 234 215 212 207 211 211 208 201 201 200 201 203 203 204 211 205 211 207 205 206 202 202 202 203 193 203 228 228 215
227 195 211 205 195 196 201 202 201 214 216 211 214 188 194 191 215 195 210 211 213 210 210 209 205 203 204 206 208 205 203 200 198 202 215 209 221 203 206 205 231 219 214
196 195 195 224 222 223 223 223 224 225 221 215 215 216 213 208 207 207 202 194 189 186 202 202 205 201 185 194 197 198 195 193 198 199 202 208 208 211 203 219 219 216 223
186 195 192 194 196 193 196 196 194 194 195 196 197 193 194 183 185 202 199 197 183 188 195 202 199 200 202 195 200 204 202 197 195 196 201 203 206 210 198 219 216 219 222
189 197 203 190 186 186 184 201 202 194 200 197 192 190 187 194 196 195 193 192 195 195 194 198 199 202 206 203 194 195 205 203 204 200 204 209 214 216 203 217 218 225 227
192 193 195 206 201 201 198 187 185 191 194 186 188 191 189 190 185 182 181 196 200 197 196 197 197 197 204 204 201 199 224 210 206 207 207 211 216 212 216 219 225 231 218
192 185 191 181 185 182 166 184 191 191 197 194 185 183 180 189 189 197 196 199 199 196 195 202 196 201 202 204 203 205 226 226 219 215 210 219 215 222 218 231 231 223 243
199 193 192 195 203 195 176 187 207 199 192 210 195 188 182 184 188 190 195 199 200 195 191 193 193 194 206 203 205 201 224 233 216 218 222 219 227 222 237 234 234 245 237
201 198 191 194 189 175 182 178 202 184 190 193 182 183 182 178 184 188 190 191 197 204 192 196 195 195 206 203 205 209 232 224 225 224 229 233 224 241 242 242 243 246 242
195 200 202 201 175 203 205 194 169 176 196 187 180 181 181 185 195 206 205 195 205 193 198 212 193 204 205 209 213 224 244 230 227 235 236 231 245 247 244 249 249 249 269
198 201 205 201 204 202 183 198 199 176 199 194 194 192 192 199 204 199 199 201 195 207 211 193 205 208 206 225 222 242 240 235 238 226 246 250 248 251 253 251 274 286 256
205 204 195 203 200 194 192 198 192 181 187 192 203 203 202 203 201 198 200 204 209 211 193 204 214 205 225 225 235 247 240 237 235 250 251 250 259 253 280 294 286 276 284
206 208 208 189 192 197 181 178 200 200 198 205 201 207 212 209 200 186 209 214 204 215 204 220 210 224 233 234 250 241 243 245 257 250 260 263 279 300 276 287 300 322 355
222 216 213 205 204 203 199 202 203 208 206 212 211 211 194 189 209 216 207 205 221 207 223 216 226 241 236 252 247 240 254 258 263 266 275 304 286 298 321 469 458 442 546
216 208 209 167 209 206 205 208 203 203 209 208 199 201 208 215 214 207 204 224 206 227 225 232 241 241 251 248 245 262 262 270 277 312 299 398 663 647 576 428 609 595 583
236 233 225 220 215 216 215 215 215 213 208 212 213 212 209 205 208 223 220 207 231 228 241 242 249 254 244 264 267 271 279 320 306 461 656 647 637 626 614 602 591 579 569
235 228 236 244 236 218 215 211 202 216 215 216 205 204 206 226 221 212 226 235 240 244 251 255 253 259 269 272 280 321 310 487 513 504 495 575 587 584 577 568 558 550 542
230 225 224 229 238 245 241 235 231 195 205 207 227 228 223 215 238 235 238 246 245 254 263 247 271 268 281 328 315 505 502 502 498 492 485 531 527 532 535 532 529 523 518
237 240 237 238 244 243 240 238 236 235 235 231 235 239 241 242 247 247 248 252 267 254 270 267 278 294 320 497 491 490 482 476 471 470 467 482 503 496 493 497 498 498 496
230 238 235 232 248 246 241 239 240 241 238 237 250 252 245 249 251 250 266 259 263 268 274 287 315 384 489 389 478 471 466 486 485 466 454 458 481 483 480 476 476 478 476
240 246 242 236 232 243 257 251 250 253 248 242 242 246 250 259 261 258 259 266 271 276 319 306 491 406 460 471 463 464 501 496 487 465 445 434 459 461 467 468 467 464 461
239 236 240 248 245 241 246 244 240 240 248 248 239 260 250 256 260 244 259 275 316 299 478 476 476 477 465 459 463 500 509 495 481 468 441 427 444 449 448 456 455 455 453
249 246 243 249 244 236 241 245 243 249 245 251 240 246 256 242 271 274 302 285 315 475 429 470 471 458 454 462 505 524 506 522 503 474 439 424 415 446 440 440 446 445 443

GFSGL_2pvu_pres_102.txt.gz
Presure
256 233 186 193 189 188 185 185 182 186 183 182 181 179 180 184 182 183 171 172 183 174 167 172 177 170 169 172 179 196 201 246 219 203 193 215 203 212 187 196 198 195 192
241 249 265 189 191 183 187 183 180 190 177 174 178 173 181 179 183 181 177 171 166 170 171 169 181 176 171 198 220 247 223 206 213 212 196 196 191 198 186 190 189 197 189
202 231 244 264 205 189 178 182 187 178 172 175 183 182 179 170 164 171 179 176 180 177 172 173 177 194 261 247 214 204 219 208 198 191 185 184 183 191 197 195 194 194 187
194 195 224 233 246 268 227 186 182 180 177 176 172 168 170 170 171 177 171 175 171 177 189 237 270 245 227 215 201 192 190 188 189 184 183 189 192 190 193 193 190 199 209
212 191 187 202 234 229 258 260 259 195 182 180 179 180 180 179 176 180 201 248 260 245 223 216 215 203 194 197 189 185 190 189 189 197 188 186 189 203 206 206 204 198 204
225 208 204 185 189 191 234 221 225 234 238 246 248 244 240 257 244 239 218 214 216 214 202 202 193 194 190 189 192 193 189 189 181 191 189 181 196 202 202 199 203 196 197
202 222 206 204 202 201 197 199 200 206 214 232 234 229 225 217 216 208 205 202 201 197 197 193 192 196 200 196 192 188 190 185 191 182 179 192 197 202 202 202 209 203 203
200 204 225 207 199 196 195 195 194 193 193 196 196 196 196 193 191 191 184 201 194 182 180 181 191 192 192 194 184 190 192 193 173 186 196 201 192 204 205 199 200 202 207
192 196 194 218 211 201 195 195 192 187 184 195 191 192 196 196 191 191 197 177 178 194 192 181 165 207 199 172 186 191 177 175 182 198 203 207 211 214 205 201 201 210 212
191 195 211 196 197 222 205 200 194 198 192 197 193 194 204 176 187 184 188 187 184 177 186 178 195 197 182 186 182 193 185 186 201 206 197 195 214 204 205 209 213 211 211
203 203 192 194 199 198 224 217 209 202 200 196 195 191 183 193 192 210 188 183 203 189 182 174 184 188 174 204 187 188 207 200 215 207 196 219 210 206 214 214 213 211 223
208 199 203 202 196 212 233 223 213 214 214 206 201 202 204 204 172 201 186 194 203 204 188 206 199 212 198 208 197 202 215 207 212 218 214 215 202 217 219 219 225 230 239
200 205 213 220 224 227 227 226 224 221 221 211 216 209 205 206 198 200 206 207 208 211 203 207 200 182 204 208 213 207 208 221 214 214 218 222 217 227 226 235 250 251 246
216 222 220 230 229 222 222 221 215 211 209 208 206 222 218 221 205 180 204 205 210 209 209 212 209 211 207 208 216 218 218 222 222 232 232 230 230 248 257 253 263 271 274
228 232 230 232 234 233 226 220 216 220 227 228 224 224 218 216 216 215 215 213 213 217 212 218 217 216 215 215 219 225 233 249 252 248 258 261 266 269 268 260 269 271 278
232 230 230 264 262 257 242 242 237 238 240 241 213 236 229 222 219 221 223 225 220 225 226 225 220 221 234 248 252 247 235 249 240 244 262 261 262 259 264 270 272 283 294
238 261 254 252 246 230 232 230 236 232 238 241 233 237 238 238 240 239 241 241 240 240 240 244 247 239 246 239 237 257 253 246 265 261 254 266 262 270 267 281 294 329 390
259 250 205 226 239 236 232 228 234 223 220 224 228 229 229 233 249 248 242 241 236 236 237 238 237 242 247 251 254 256 266 256 247 262 266 265 261 280 296 329 385 539 529
237 230 236 237 229 229 228 216 219 208 226 234 229 232 232 233 235 242 247 225 236 241 239 237 254 248 253 256 262 262 252 264 264 265 268 281 300 329 436 553 541 523 505
229 228 221 217 231 221 233 235 227 221 223 230 241 247 249 219 233 237 234 240 239 234 245 258 257 252 252 245 253 264 268 265 259 279 297 325 463 546 563 551 530 506 483
224 229 233 227 222 229 239 239 237 219 235 227 217 227 237 234 237 228 231 236 239 244 253 251 257 261 264 264 267 272 253 281 291 316 356 498 429 555 542 532 508 482 461
237 237 241 229 229 228 229 230 227 221 223 234 228 219 236 236 231 230 234 240 252 257 254 262 266 256 257 267 244 266 284 301 318 497 489 557 552 549 539 516 485 459 444
227 221 221 222 220 221 217 222 230 227 228 235 232 239 229 228 237 238 247 266 256 265 252 253 254 263 241 256 277 291 307 324 489 480 553 550 565 546 529 492 460 440 454
233 234 237 233 233 232 233 227 233 229 233 241 233 236 242 242 237 260 257 273 263 247 242 261 260 266 266 286 298 307 335 486 472 450 425 569 554 542 503 461 438 430 456
238 230 235 233 231 234 236 230 228 230 234 242 241 239 251 267 262 253 245 253 241 259 265 237 258 277 286 297 307 453 482 468 440 417 559 547 544 512 460 436 426 445 455
230 234 231 227 226 223 230 237 241 238 231 235 256 263 246 261 246 272 266 282 267 240 272 270 283 291 297 309 463 475 464 437 413 517 549 542 520 455 434 424 416 442 447

GFSGL_2pvu_pres_105.txt.gz
Presure
191 239 256 195 193 185 189 193 183 199 195 171 176 182 184 179 173 177 175 173 174 188 172 181 173 175 177 173 181 173 173 163 163 184 180 203 249 216 208 190 194 192 188
213 179 242 212 191 202 190 192 189 188 182 182 181 181 182 187 187 185 186 183 173 176 177 170 172 176 178 181 168 182 168 180 189 185 255 236 215 203 191 191 181 184 196
196 216 184 230 217 188 193 189 180 183 192 195 195 184 178 182 186 188 180 181 182 172 173 176 180 178 169 177 169 176 182 185 201 211 215 175 206 192 190 183 188 183 187
210 228 202 183 229 241 198 190 195 184 178 179 181 187 183 181 184 184 176 166 179 182 188 168 176 172 187 171 182 187 213 212 214 196 202 189 193 188 198 199 193 193 193
175 202 217 209 197 211 231 232 194 190 199 190 183 181 178 172 178 179 183 182 177 179 177 177 188 173 179 179 224 221 210 198 198 193 193 192 199 204 196 191 199 193 185
192 199 202 231 214 185 201 212 228 238 200 190 184 182 177 180 179 179 166 167 188 191 177 180 235 179 229 218 211 201 197 191 193 190 199 194 201 187 185 195 180 173 181
200 203 193 205 198 230 196 190 191 200 218 227 234 234 234 204 198 195 193 233 199 203 235 218 219 214 207 200 198 177 189 179 177 189 189 174 204 190 181 187 196 200 193
201 203 191 194 201 216 228 224 204 191 190 185 201 208 210 212 212 212 216 221 219 217 213 208 200 198 192 188 198 187 180 192 199 190 176 183 210 190 189 192 201 196 208
171 204 189 205 189 211 187 203 223 220 207 208 193 185 189 190 186 193 198 201 202 200 202 200 206 204 210 191 197 188 190 195 191 203 180 193 193 199 197 194 204 208 205
225 180 201 194 187 200 200 191 193 206 208 232 214 209 211 202 196 193 188 189 183 197 197 201 186 184 192 188 182 194 194 195 194 192 192 209 205 210 197 217 214 216 224
221 217 213 210 198 199 193 190 214 203 195 189 197 207 229 213 209 208 206 205 203 202 201 205 201 205 191 206 184 199 211 212 214 210 203 209 221 223 217 220 225 227 232
216 213 212 215 212 195 204 209 193 197 203 207 219 212 212 227 224 222 218 218 217 216 214 210 207 209 209 211 186 216 215 220 220 218 218 220 223 224 235 241 244 260 241
199 199 200 201 206 209 203 194 203 204 199 202 215 218 229 223 228 226 218 207 215 219 207 218 221 219 221 228 229 233 227 221 218 217 231 236 240 244 254 250 247 236 267
208 208 202 199 200 205 208 209 202 211 215 216 219 228 225 220 224 230 224 217 208 216 223 223 233 233 231 233 232 240 237 247 253 252 248 239 237 236 270 265 266 270 266
207 212 214 204 204 206 208 210 215 223 220 242 227 233 238 237 234 235 236 234 247 242 248 248 253 256 260 255 249 262 259 231 239 243 251 263 264 266 264 272 268 275 265
213 218 219 219 218 222 225 237 233 235 232 226 252 248 254 243 240 241 245 243 234 231 238 240 243 247 249 259 240 236 237 241 243 250 250 263 263 265 269 263 265 281 271
227 230 231 233 232 238 233 225 227 226 235 237 240 241 239 238 236 242 232 225 231 225 236 239 239 237 236 245 227 242 241 235 242 252 253 260 257 262 263 293 284 275 291
239 237 233 235 228 228 233 234 189 261 249 237 248 240 227 225 232 219 224 222 229 237 233 235 231 219 235 229 238 244 238 249 236 250 275 255 263 286 281 278 295 323 356
260 245 243 264 251 250 248 247 237 243 237 236 227 228 228 223 223 220 214 230 227 224 219 216 229 228 227 236 241 249 233 241 247 260 258 264 308 283 291 315 339 580 563
269 256 253 246 240 243 246 244 221 225 235 221 226 226 224 224 228 227 224 235 227 225 239 228 236 250 239 248 248 251 254 268 249 282 320 283 287 309 328 530 581 567 537
261 224 250 247 236 244 229 228 235 224 218 216 226 228 228 223 222 224 228 224 238 233 230 243 241 232 252 237 242 259 245 253 280 268 318 303 318 331 480 518 566 536 504
252 250 248 235 249 239 240 237 238 240 228 236 224 224 231 230 230 244 243 227 227 245 248 237 231 252 234 231 236 241 263 263 322 287 316 312 382 465 396 563 531 496 470
246 246 235 240 239 239 229 228 248 222 222 229 226 236 238 229 234 232 221 231 243 235 221 235 256 243 231 241 259 268 253 320 295 300 321 481 419 434 565 525 488 462 451
247 244 245 245 252 247 235 233 231 230 230 227 235 239 219 233 233 236 244 237 237 250 250 234 232 245 245 280 270 287 267 309 308 326 473 342 431 557 515 479 455 442 446
245 241 229 249 247 237 222 227 226 222 224 226 231 237 240 247 241 240 243 252 245 252 269 272 242 264 263 315 311 297 294 311 456 464 447 426 423 502 466 445 441 428 455
246 236 237 237 234 234 238 236 238 240 235 239 236 241 243 243 252 244 253 255 266 247 247 265 264 297 314 295 293 298 313 441 381 449 425 407 495 465 443 436 427 415 451

GFSGL_2pvu_pres_108.txt.gz
Presure
200 235 190 201 248 224 212 199 186 197 202 204 197 191 193 184 193 197 192 173 189 170 162 176 170 177 174 180 177 180 172 181 178 180 173 182 182 177 182 178 196 189 213
191 215 224 197 203 238 206 206 195 195 184 191 187 198 181 176 180 181 185 185 182 190 196 189 188 174 181 174 169 167 168 189 182 170 187 174 178 182 175 193 189 222 215
200 216 196 234 203 200 204 200 201 197 184 190 185 189 188 187 191 191 189 180 183 184 182 178 179 181 181 180 184 185 180 176 168 188 174 181 179 178 184 214 195 210 189
199 195 202 197 221 193 230 204 188 200 194 195 194 189 180 181 183 187 187 185 187 188 185 183 180 183 179 183 178 171 188 184 180 179 183 189 182 190 221 205 205 195 188
194 176 204 163 195 209 181 211 227 190 191 192 202 189 190 197 195 187 188 180 182 189 183 189 185 180 189 191 182 189 183 183 190 185 185 190 217 221 209 201 195 176 187
183 199 178 194 163 198 207 219 185 229 212 220 184 183 183 182 183 188 191 187 188 189 184 184 183 180 180 191 185 177 182 184 191 210 188 218 207 194 199 177 196 183 177
183 211 224 213 186 201 194 201 231 203 195 222 220 219 185 234 183 182 184 182 181 182 179 187 180 180 189 179 178 190 214 210 214 215 206 208 189 193 191 195 194 193 190
187 198 169 208 208 194 188 187 197 192 225 201 189 203 210 216 221 217 215 202 186 188 183 196 211 210 204 207 211 211 211 208 210 206 195 194 202 202 192 188 202 205 200
193 198 185 213 213 185 201 206 203 191 197 200 226 219 202 192 189 192 205 210 210 209 205 204 205 209 212 207 189 195 200 192 182 201 204 203 212 211 203 206 208 219 197
195 195 191 212 239 233 201 201 199 185 202 203 204 191 193 208 215 219 223 220 211 193 193 191 207 202 197 196 202 205 208 207 207 214 213 211 212 208 221 218 218 223 234
177 185 191 183 186 201 213 221 202 194 200 195 205 205 195 199 215 212 197 201 202 200 211 206 227 236 223 224 224 220 219 221 224 214 208 224 228 229 227 232 244 260 263
204 208 195 196 210 207 202 225 220 221 215 214 205 213 199 209 194 211 210 205 212 222 223 226 231 231 225 229 236 225 228 225 227 224 228 227 252 257 259 259 252 243 234
218 211 221 191 201 201 217 222 225 214 221 212 220 216 219 204 203 204 205 211 210 223 226 235 229 235 237 228 228 230 229 230 223 248 256 245 262 252 239 233 239 249 252
195 196 195 219 200 200 203 217 208 204 206 203 198 206 205 210 211 210 217 221 231 234 236 229 250 247 248 249 253 248 266 260 236 254 245 230 237 251 229 256 255 253 240
201 203 206 216 222 211 211 209 208 205 205 206 209 202 219 223 197 215 225 239 228 219 249 256 244 235 237 242 243 249 230 240 241 232 245 234 236 246 253 250 255 252 252
208 224 215 215 224 210 207 205 204 205 207 202 226 230 192 198 208 234 231 226 232 239 230 239 238 240 239 232 247 234 240 234 238 247 240 242 250 258 241 253 251 248 261
213 215 224 249 232 218 212 208 204 209 210 204 206 202 240 227 184 228 226 253 229 229 240 239 249 221 230 237 239 229 229 232 248 231 242 254 231 244 256 238 251 248 270
224 224 222 217 211 205 212 212 214 210 215 217 230 228 227 228 226 259 246 226 225 240 244 238 240 240 232 239 228 226 241 228 250 247 248 251 248 240 255 250 270 329 265
242 203 227 220 220 222 224 228 224 220 229 231 225 238 249 244 246 237 247 237 230 230 234 227 221 230 236 228 233 233 221 244 251 216 249 254 249 254 278 296 269 317 314
240 243 250 259 253 248 249 251 251 274 249 245 263 238 229 236 240 243 231 227 227 216 217 237 225 231 232 222 233 251 251 233 252 258 220 240 258 298 240 311 294 341 556
263 263 295 265 267 272 262 249 242 261 235 243 217 238 239 232 236 237 234 216 237 231 225 230 232 224 229 244 251 235 252 252 252 258 253 305 260 330 313 293 435 531 509
246 241 267 258 267 267 262 254 242 246 222 235 243 241 247 249 250 235 239 236 234 240 236 230 226 241 241 239 244 249 242 242 262 251 258 324 297 275 322 409 401 497 478
263 258 250 257 258 258 241 251 260 243 244 247 242 245 233 229 248 245 239 239 226 230 247 243 236 243 227 253 232 248 238 259 268 287 338 284 305 309 461 445 431 449 462
260 268 256 247 260 232 250 260 259 259 251 231 238 242 247 223 238 233 240 241 242 242 241 234 240 252 250 234 239 277 238 281 323 303 293 308 317 459 443 426 478 459 447
254 258 255 244 246 240 244 268 242 239 241 242 248 244 243 250 253 252 255 255 255 253 242 237 244 234 231 274 235 250 294 312 286 295 307 323 451 371 426 413 467 447 433
247 253 261 262 240 238 244 246 241 233 234 243 240 239 242 241 240 234 241 241 242 256 251 240 232 260 239 289 266 313 310 288 285 306 327 437 369 427 410 435 455 434 420

GFSGL_2pvu_pres_111.txt.gz
Presure
204 195 207 224 199 200 259 255 206 209 202 192 211 173 178 180 179 171 192 200 181 173 198 177 182 187 200 176 197 179 167 162 170 162 184 186 184 176 190 182 189 187 183
204 183 194 202 214 210 226 270 206 199 200 202 200 202 201 197 201 210 207 201 193 191 191 188 183 184 178 174 174 170 186 181 181 179 181 184 181 182 196 180 192 188 184
195 188 207 214 219 196 198 224 272 208 192 189 187 194 203 200 200 200 196 192 192 186 178 184 169 171 179 180 182 185 185 188 186 184 179 180 186 182 174 186 182 198 189
181 188 209 200 203 208 198 196 219 251 222 193 188 188 183 184 183 189 184 184 186 183 183 184 182 182 186 183 176 177 178 181 180 182 184 182 177 181 182 189 192 201 208
193 190 194 200 188 206 213 213 180 211 193 190 207 202 201 199 198 192 188 186 182 176 179 182 191 185 183 192 191 186 187 196 190 181 183 181 197 198 184 192 202 220 211
199 181 205 183 207 216 168 200 209 208 192 218 174 204 181 180 202 199 199 193 197 188 189 175 174 174 174 187 188 185 182 183 187 182 179 180 198 206 205 201 206 183 198
208 212 205 216 193 197 194 201 199 205 221 197 202 210 197 186 177 181 180 178 178 182 183 181 177 178 175 179 182 179 175 178 201 214 187 209 204 201 202 198 190 192 186
202 202 208 208 199 202 216 177 205 177 193 207 207 213 194 195 212 220 223 219 191 188 190 190 192 192 192 201 209 210 203 206 202 203 202 199 195 201 196 196 198 206 209
191 201 199 208 199 197 197 198 178 192 213 204 199 204 206 211 204 184 181 174 193 211 211 207 203 202 204 204 179 200 200 197 194 191 191 198 214 229 220 201 228 232 232
199 198 204 217 199 193 207 195 168 215 194 195 174 202 211 194 205 204 199 204 212 212 214 215 212 208 213 213 212 211 207 204 203 235 229 232 231 231 233 231 227 228 232
183 192 198 218 174 170 212 197 205 214 183 213 210 206 209 166 177 191 197 203 216 187 209 190 211 209 200 205 213 205 233 229 234 237 241 234 238 257 260 258 252 256 256
198 190 206 207 181 195 207 201 195 212 186 195 190 201 210 225 220 210 215 209 199 213 214 185 217 207 208 197 219 248 241 230 234 230 232 263 250 254 253 253 256 251 246
199 184 205 195 192 197 194 207 211 187 172 204 196 211 215 241 227 214 215 209 203 208 203 236 199 221 226 232 230 218 233 229 258 246 236 243 249 250 240 252 237 227 243
223 194 208 197 196 205 191 214 199 213 213 193 198 193 204 210 216 215 213 214 213 211 201 241 217 203 235 201 233 215 209 234 238 241 235 248 246 245 253 236 234 244 231
204 214 200 197 196 207 221 201 197 201 197 199 209 215 227 215 203 203 205 206 184 214 186 191 209 230 217 227 215 229 226 228 247 254 243 250 220 237 231 231 241 237 248
212 211 214 213 206 219 199 201 197 194 194 204 207 207 195 204 206 200 204 201 205 204 197 210 205 200 227 220 227 234 250 247 243 239 221 238 226 236 233 249 236 245 248
212 212 212 221 220 197 204 202 201 201 201 213 209 210 231 225 201 206 215 195 204 206 202 202 206 221 243 251 234 245 230 225 234 220 241 235 224 242 237 246 251 257 261
222 224 237 235 209 203 205 204 209 204 203 203 207 226 216 225 213 207 212 209 201 211 214 217 238 261 259 245 232 241 243 243 239 243 243 249 244 236 228 251 249 261 275
244 226 191 209 213 214 212 210 205 210 204 211 200 236 214 204 210 215 211 197 212 222 240 255 251 251 238 239 239 233 233 242 246 249 238 241 240 240 251 242 263 248 265
219 206 219 214 212 223 212 203 201 217 215 223 225 213 224 214 198 240 254 253 257 225 255 239 262 235 229 233 236 244 240 238 247 249 246 250 255 246 266 271 242 291 341
229 228 226 226 225 224 164 229 218 228 228 225 229 238 254 272 264 275 254 265 262 250 246 235 226 221 237 240 243 248 242 250 235 256 257 250 270 253 236 284 258 341 300
235 237 236 231 237 236 235 234 237 238 240 268 279 275 267 264 254 259 253 250 257 256 244 238 242 237 245 238 241 235 225 250 247 252 249 241 259 238 293 301 312 303 334
243 247 247 250 251 260 273 278 284 278 261 251 241 258 260 255 255 261 247 248 247 255 249 241 248 244 228 245 248 251 252 258 252 245 257 251 280 313 339 282 318 325 439
282 277 275 274 273 272 273 270 267 260 264 254 254 249 248 244 245 246 244 248 242 262 224 255 248 243 244 245 250 235 249 260 268 264 294 274 243 281 302 308 322 437 356
280 276 276 272 272 266 267 264 263 256 259 256 249 251 253 251 240 239 236 243 243 269 270 263 244 252 255 270 273 274 247 278 258 261 274 314 284 294 311 387 427 423 412
263 267 271 267 263 263 261 264 254 275 260 260 262 259 254 250 252 251 250 252 248 241 248 252 253 245 253 262 270 286 306 298 323 321 294 287 298 312 392 412 422 414 399

GFSGL_2pvu_pres_114.txt.gz
Presure
190 201 222 223 213 220 218 213 282 282 220 199 194 193 186 189 181 175 182 187 179 180 184 178 178 162 193 176 181 198 205 210 190 185 186 179 182 178 174 183 182 187 186
189 198 207 215 181 219 209 204 264 284 224 208 201 192 187 185 184 175 173 173 189 187 190 188 199 171 182 186 188 184 182 179 177 172 171 180 181 187 189 191 186 186 197
203 189 196 203 189 185 216 195 229 254 219 205 201 201 196 191 190 184 185 184 188 198 204 177 186 191 182 190 179 181 187 183 188 184 183 184 183 185 196 193 190 194 186
197 195 194 191 220 185 206 209 200 231 196 198 202 201 194 196 204 195 194 200 204 198 191 190 190 187 193 192 190 189 187 180 181 184 189 193 190 180 182 189 178 189 199
195 190 199 204 207 210 197 213 200 189 224 250 179 193 193 185 182 183 185 183 187 184 186 188 183 183 178 180 175 181 189 186 189 181 182 170 192 188 185 203 190 206 198
200 210 189 193 178 205 211 192 206 198 183 214 220 252 183 188 185 189 191 190 174 186 171 196 193 193 189 191 174 183 183 174 167 162 189 190 191 182 210 176 216 203 201
184 190 195 187 194 203 215 183 205 197 206 204 181 211 216 214 205 185 177 190 192 190 181 190 201 182 180 173 180 190 197 205 207 184 213 177 182 199 200 209 208 203 193
199 186 196 198 203 194 200 212 204 195 199 177 182 194 175 178 177 210 216 218 204 183 199 203 217 216 212 207 196 208 183 184 186 191 201 215 202 194 199 204 211 236 217
194 197 199 205 193 223 196 212 195 211 166 208 200 208 200 197 203 189 197 197 195 191 183 184 191 194 197 198 199 202 202 186 189 189 195 156 200 199 209 205 200 245 240
187 191 180 214 212 200 203 202 211 203 194 194 183 213 176 163 197 200 200 202 198 190 191 195 195 196 197 208 205 205 205 203 205 195 193 186 221 240 205 228 226 238 229
203 205 192 213 210 182 192 205 193 214 208 201 203 222 212 233 183 170 180 197 182 188 202 203 194 205 209 193 197 205 207 175 185 214 239 241 249 222 225 241 238 224 238
202 204 210 226 196 199 201 202 210 212 232 194 210 195 204 219 209 212 198 213 208 200 205 213 217 208 222 214 219 218 214 209 219 220 219 205 224 227 207 212 221 228 240
208 183 187 193 198 198 205 202 194 223 193 208 186 190 197 224 208 187 179 210 229 195 204 204 216 198 223 218 204 222 209 217 216 216 221 212 220 231 216 217 228 245 249
203 190 193 198 197 182 193 195 202 194 223 217 212 207 205 199 207 186 182 212 217 222 190 202 223 211 239 238 221 215 227 205 216 214 215 217 206 217 223 224 248 242 241
207 206 220 194 193 193 191 200 191 211 203 210 214 201 193 210 224 214 206 202 203 207 217 200 212 222 227 224 212 214 204 209 211 218 199 200 217 212 244 258 250 239 241
194 196 194 190 199 193 191 194 210 215 213 197 189 201 199 216 209 203 204 200 193 204 199 203 206 212 224 223 213 203 219 206 215 201 227 217 235 258 249 257 249 237 241
222 205 211 204 202 204 193 216 223 192 196 209 208 213 193 223 199 211 204 196 191 206 210 200 205 204 231 223 217 201 212 214 229 206 259 260 253 237 233 252 245 239 245
205 197 206 200 201 197 208 208 204 210 213 211 194 210 198 204 196 208 199 205 204 204 203 208 203 219 197 220 213 216 233 254 256 257 250 253 252 264 248 243 239 252 251
219 212 207 207 215 216 212 212 205 211 203 211 211 207 238 226 207 206 206 203 204 202 209 216 217 222 220 220 235 259 259 265 251 261 261 256 253 251 251 255 240 241 257
239 249 225 215 215 228 214 211 212 214 209 212 240 240 228 209 211 213 206 223 196 215 218 231 225 224 239 274 275 248 258 256 269 254 242 236 240 261 258 260 248 266 277
226 219 215 223 212 225 210 204 212 224 203 242 235 202 207 206 218 217 214 214 221 235 233 234 258 277 264 270 253 254 266 253 244 241 244 243 252 250 266 278 254 269 280
235 233 228 233 225 229 240 220 216 232 244 237 216 217 216 213 219 228 229 239 235 241 266 274 260 244 258 258 256 247 245 237 242 246 252 253 254 263 267 270 288 327 332
250 246 239 225 223 223 229 214 248 242 236 239 236 238 236 238 240 245 245 269 291 282 276 264 264 265 252 254 256 252 255 253 250 254 248 255 267 272 304 301 266 326 272
260 261 257 255 251 250 247 245 245 245 244 243 244 254 256 257 286 295 283 276 270 265 263 262 259 255 255 253 260 256 247 244 251 265 250 282 323 292 324 324 282 290 303
278 274 267 261 261 260 258 260 261 264 287 295 276 289 268 273 277 274 274 265 263 246 260 270 269 264 266 271 256 269 279 279 279 296 324 305 306 314 292 284 297 305 326
290 301 292 283 298 296 297 290 286 287 274 271 275 279 274 261 255 257 256 257 262 267 267 268 268 266 269 269 274 276 302 268 309 319 318 313 287 285 293 295 307 361 415

GFSGL_2pvu_pres_117.txt.gz
Presure
204 204 194 194 188 194 219 182 216 225 196 200 192 200 193 201 191 186 193 195 191 183 177 179 175 180 177 174 183 178 174 186 174 183 190 183 184 194 178 183 184 184 184
203 207 198 202 173 206 206 217 228 206 220 206 200 188 206 193 194 193 187 183 184 184 184 184 174 173 179 185 183 188 170 199 182 188 194 193 192 185 187 184 190 189 194
202 197 201 190 181 188 209 210 179 214 260 215 199 199 200 194 187 190 187 187 183 182 183 184 184 187 182 185 187 182 194 187 193 192 190 188 184 181 191 201 192 189 200
204 198 193 194 196 193 207 194 210 211 232 277 231 216 194 194 192 188 185 184 182 183 180 183 188 190 190 193 191 199 190 191 188 179 178 178 184 193 183 178 171 183 190
208 205 200 193 202 193 212 221 191 215 203 243 229 239 211 192 192 193 191 188 184 184 188 186 187 187 189 187 190 184 180 176 173 177 201 197 185 182 182 190 196 202 200
209 202 190 190 192 190 192 192 228 191 209 219 235 207 208 203 198 195 193 194 193 192 204 153 184 177 160 187 171 174 180 186 184 183 173 169 208 207 192 208 199 200 173
208 205 192 191 201 194 178 182 202 203 204 204 199 203 192 187 194 179 186 192 186 182 190 175 158 192 183 182 181 180 206 186 177 181 208 206 203 198 192 188 181 186 192
202 206 192 193 191 191 200 196 183 204 204 194 187 214 216 204 191 192 187 186 184 174 182 178 179 195 195 197 182 157 186 209 208 189 183 193 186 187 190 189 190 204 218
204 195 195 192 203 189 199 199 191 197 189 215 191 206 197 213 201 210 186 188 189 188 198 185 182 201 209 207 206 195 191 187 185 185 184 190 192 197 192 209 194 192 215
201 207 200 177 189 188 183 190 207 207 183 195 220 209 197 201 199 204 209 210 212 206 205 205 202 188 173 176 182 182 175 197 180 195 203 222 222 222 208 218 215 205 212
215 213 189 197 195 194 196 193 201 190 214 216 207 213 204 218 184 202 201 187 202 199 190 192 184 190 194 190 186 194 209 194 220 215 212 208 212 211 223 217 228 215 235
192 191 202 201 199 201 183 211 180 204 196 181 194 198 196 215 209 196 206 211 177 195 223 190 196 206 189 187 191 206 201 199 198 212 223 241 208 199 239 235 227 202 224
180 196 198 210 192 187 187 195 214 194 211 201 190 189 213 190 236 204 187 212 206 198 200 227 209 209 201 197 179 213 203 225 201 192 225 230 218 217 221 226 231 219 206
199 205 224 226 223 229 215 209 187 208 224 199 186 204 208 195 200 218 217 186 182 188 191 185 207 219 245 199 198 211 213 218 220 214 224 214 218 211 223 218 225 224 233
213 201 190 196 190 218 210 198 190 181 191 194 200 180 212 205 198 198 229 219 190 216 215 210 217 216 222 231 207 199 214 214 209 210 203 216 212 218 225 229 231 237 251
197 209 208 203 206 201 193 212 183 194 200 202 201 203 202 208 198 214 199 225 212 211 202 201 218 193 209 237 224 218 209 207 213 199 217 216 217 215 233 233 250 261 268
206 201 200 203 202 205 213 208 210 203 205 207 191 195 204 204 193 181 197 191 192 199 205 188 205 210 194 227 222 215 207 207 215 216 214 225 223 234 230 256 280 256 262
206 206 204 202 205 205 201 204 199 194 191 195 202 202 197 193 189 202 211 195 206 207 208 210 209 201 228 232 224 205 215 211 203 223 226 218 238 247 263 267 269 253 256
218 219 217 215 214 212 200 193 198 200 214 210 199 197 199 206 200 198 208 214 218 207 206 201 206 225 237 228 217 213 212 225 224 224 237 239 239 280 260 265 265 265 264
221 213 219 214 214 213 214 214 212 219 214 202 208 202 202 205 205 205 206 206 206 203 227 225 216 238 233 221 219 226 224 221 233 248 267 277 261 274 264 261 263 261 269
245 230 225 231 227 233 214 204 230 204 202 201 204 216 218 206 204 220 220 204 205 243 212 218 236 236 228 230 226 225 233 246 255 272 271 271 267 269 273 275 279 283 268
228 240 244 235 207 213 226 231 220 220 211 221 212 204 206 208 225 219 219 245 225 216 233 241 232 230 237 238 245 252 255 288 276 270 258 258 263 272 275 286 274 292 277
255 237 228 230 230 215 204 204 208 224 209 211 221 220 222 232 245 241 225 226 230 239 241 238 243 244 253 242 278 279 281 260 256 264 271 276 275 282 268 287 288 294 326
231 227 231 243 250 250 236 230 236 236 235 233 230 236 248 249 236 239 240 244 243 241 249 252 244 286 284 286 261 261 275 270 273 286 280 281 269 276 287 334 328 311 275
231 242 243 240 234 235 232 227 228 234 239 239 243 247 242 241 242 249 250 247 248 271 291 281 273 275 273 275 279 279 283 295 295 286 269 278 269 332 309 279 281 290 287
253 250 247 244 241 243 243 241 253 256 267 267 266 265 262 260 263 281 299 294 285 274 269 285 282 282 277 289 298 301 294 273 279 273 290 306 314 300 292 281 288 288 300

GFSGL_2pvu_pres_120.txt.gz
Presure
302 233 222 209 206 195 193 194 220 191 216 183 200 194 200 195 195 209 202 192 185 182 179 167 173 158 176 162 176 184 190 178 180 185 179 182 184 182 192 192 195 196 185
314 228 216 203 205 201 194 195 235 207 197 207 193 201 192 192 204 200 198 198 207 187 184 191 189 179 193 187 184 186 183 181 188 165 180 179 191 199 193 204 185 190 182
321 225 213 206 201 203 189 198 219 206 205 232 204 198 197 199 183 186 202 187 185 187 184 180 181 184 182 184 181 182 182 184 176 181 182 190 190 192 163 173 184 177 186
326 225 208 210 199 189 196 194 178 213 208 236 216 215 213 204 188 179 186 190 184 180 179 177 182 181 181 182 180 183 180 180 179 181 176 183 184 176 183 177 177 185 184
257 224 212 207 203 205 194 199 193 218 216 191 227 248 212 214 207 190 189 184 188 182 183 189 183 179 181 184 188 187 173 176 188 194 195 188 185 162 181 184 183 191 193
238 220 213 205 202 199 194 198 199 214 219 194 220 225 243 252 194 183 186 185 184 180 186 182 181 187 187 184 179 150 185 193 200 184 185 180 184 209 194 194 165 202 188
230 218 212 204 200 191 194 191 191 198 203 221 212 187 206 228 239 201 184 187 188 178 175 169 174 172 178 181 181 192 191 188 182 186 185 194 199 185 195 203 189 195 179
224 217 213 205 196 204 198 186 202 192 190 197 206 209 194 220 217 222 208 191 187 186 184 175 175 189 192 194 202 191 186 188 187 193 184 187 189 193 184 189 179 191 191
216 207 213 204 201 203 192 188 197 201 184 190 219 199 203 184 206 205 193 203 203 200 185 185 184 183 180 183 183 181 178 201 188 190 182 200 185 188 183 186 197 189 203
221 211 214 205 198 204 188 185 192 197 193 201 192 195 209 195 201 196 192 200 182 182 187 187 191 181 181 183 180 192 187 186 199 203 192 184 174 198 179 193 181 211 200
215 213 215 202 204 203 197 186 185 197 197 196 197 192 197 234 205 197 183 200 180 177 173 187 203 193 182 189 195 197 195 193 192 192 190 192 195 197 203 188 187 202 206
214 209 203 203 205 199 193 192 197 191 195 185 185 181 199 199 206 190 215 201 191 191 201 198 190 194 201 198 192 191 191 184 191 205 214 214 203 215 204 192 213 221 187
207 222 199 202 184 200 202 188 197 182 196 194 199 193 192 199 205 193 208 209 215 211 212 212 218 220 207 195 195 206 209 201 196 193 195 187 191 215 255 255 247 225 195
211 225 214 160 195 189 194 185 198 188 198 194 205 198 193 202 198 204 207 203 187 205 202 201 204 220 224 206 196 201 184 182 199 216 216 218 233 229 226 227 225 214 208
212 203 202 193 213 208 208 209 183 191 194 191 187 186 187 193 197 188 221 212 193 191 205 194 187 181 197 220 228 227 220 207 190 228 215 204 223 216 209 224 223 219 216
217 210 201 192 188 209 209 218 192 203 203 206 205 208 211 196 200 191 187 172 192 202 200 186 215 212 181 208 212 201 210 223 219 208 207 221 225 207 209 228 223 225 224
230 202 213 203 197 192 189 170 202 206 223 220 187 221 206 196 199 194 194 165 211 206 209 204 209 206 206 183 204 213 206 216 205 206 216 205 203 213 232 232 230 226 233
211 204 201 198 199 202 191 203 201 209 211 207 183 211 216 223 215 217 211 199 204 210 183 202 194 203 207 203 214 204 202 212 207 217 203 243 215 231 237 236 239 230 239
215 208 203 201 202 206 198 200 201 185 203 210 197 192 219 207 206 211 199 207 207 190 203 203 212 207 204 208 204 214 199 232 215 223 237 220 231 237 229 237 253 262 288
216 211 210 213 201 199 201 204 202 200 198 193 202 203 200 200 202 213 196 187 211 214 216 212 205 214 203 210 213 222 222 213 239 229 229 235 232 255 250 264 290 290 271
227 224 218 213 208 201 205 212 211 213 201 215 215 211 212 218 214 214 213 210 204 205 207 205 185 215 201 229 225 213 220 235 231 239 238 251 250 261 281 269 281 282 303
228 231 230 222 215 213 215 213 213 209 198 191 212 214 214 207 206 208 221 223 219 224 206 209 227 231 223 215 230 238 240 241 242 258 254 260 284 271 279 286 296 303 267
240 239 236 227 228 224 226 219 218 222 223 222 230 211 224 222 222 222 224 213 205 204 214 217 220 223 235 240 237 243 254 249 259 261 283 287 274 283 298 314 280 254 268
235 238 236 232 219 228 237 234 237 235 233 225 228 224 224 226 231 216 207 217 219 217 225 228 236 238 244 236 258 261 260 259 295 284 287 283 292 319 279 266 267 274 293
255 254 242 239 233 230 231 228 232 231 238 245 229 230 237 233 227 228 235 243 229 229 231 244 237 236 235 266 279 277 278 286 266 280 286 306 285 271 268 269 277 319 320
248 254 246 246 248 253 252 247 247 238 232 228 223 229 247 244 237 231 238 241 244 240 244 246 265 266 289 271 290 289 278 276 288 308 294 282 277 267 272 308 323 315 281

GFSGL_2pvu_pres_123.txt.gz
Presure
226 226 245 231 272 228 222 210 203 199 202 194 205 202 201 217 204 193 191 183 187 163 183 184 173 180 174 172 180 182 183 158 171 167 172 167 181 182 188 186 181 187 185
223 234 248 257 275 220 221 208 200 188 196 214 204 208 203 221 201 193 183 189 184 182 174 170 185 169 170 171 156 162 182 180 180 170 193 190 187 183 186 182 183 187 189
156 228 252 248 277 222 220 209 204 192 203 202 197 219 205 199 215 203 199 193 185 188 188 189 188 175 173 185 172 179 174 178 183 190 183 182 183 180 189 186 182 181 206
198 231 238 258 281 223 217 208 204 196 195 194 210 196 228 204 198 209 199 196 193 183 191 187 197 193 185 177 178 178 184 183 191 182 183 180 185 178 184 179 185 190 184
234 234 242 240 245 225 216 203 203 200 196 193 212 194 198 184 219 208 193 188 192 193 205 192 180 179 181 180 175 173 179 183 185 183 191 179 190 178 170 197 197 176 173
236 213 262 270 239 223 215 205 198 198 190 199 190 223 233 239 221 213 208 198 196 183 177 181 184 181 180 177 172 179 181 189 180 182 179 159 170 183 192 195 184 181 194
239 254 244 282 237 224 214 205 198 202 191 201 197 222 215 188 235 231 211 216 203 184 179 179 177 174 174 178 178 178 190 187 175 174 178 189 182 190 174 185 182 191 183
252 249 265 295 235 225 214 206 200 201 185 202 196 190 215 201 221 208 235 227 195 194 208 183 180 180 177 178 173 173 180 180 181 184 181 181 186 169 187 194 187 187 189
254 275 287 300 233 223 212 204 203 198 205 197 199 194 208 211 197 195 230 228 232 202 189 184 183 183 186 180 181 179 181 181 183 181 176 178 185 192 173 181 190 184 177
269 310 288 302 227 219 214 208 201 197 197 187 199 197 195 196 212 200 194 218 221 217 221 211 194 194 183 179 178 175 180 183 184 192 190 180 183 189 183 193 193 194 193
286 266 289 262 223 212 213 206 202 199 192 195 186 194 188 207 185 172 192 191 183 213 209 205 200 191 182 189 178 182 190 173 181 182 182 186 184 185 184 189 188 187 179
270 259 265 236 218 202 207 206 205 196 200 190 189 191 198 189 195 195 196 200 194 190 185 184 184 183 185 185 185 185 179 180 190 185 182 181 181 182 187 191 195 196 201
246 271 237 224 213 213 205 205 212 204 206 210 198 180 184 201 196 193 191 191 214 198 195 193 193 192 191 191 191 188 185 185 186 189 183 184 223 221 237 229 233 217 231
256 239 202 211 222 214 207 203 212 200 199 207 194 197 198 201 180 180 188 196 202 204 209 217 215 208 203 198 195 192 190 190 197 191 203 192 192 215 197 212 200 178 197
238 226 220 210 200 205 195 200 214 193 181 194 188 192 197 185 197 191 194 196 199 175 203 195 219 202 198 210 192 185 180 188 205 182 191 200 201 205 200 212 208 166 216
233 237 221 207 208 212 214 211 205 203 180 187 184 189 193 202 200 190 194 194 209 191 194 201 212 204 177 184 196 175 194 203 197 213 213 215 216 215 202 199 203 216 222
222 225 201 206 217 213 202 207 201 200 194 200 164 176 191 188 194 202 204 206 205 218 203 213 189 193 199 197 164 209 204 206 213 212 210 204 215 195 202 212 227 220 218
227 237 219 203 208 190 191 209 215 203 198 217 206 203 216 210 191 200 184 200 225 187 209 228 211 199 202 205 205 214 176 191 204 206 206 208 204 203 217 223 226 228 226
226 219 203 215 212 213 202 204 207 204 208 198 198 195 183 216 217 207 198 205 191 205 209 182 223 217 209 207 205 217 208 207 208 210 206 216 216 220 226 216 219 229 237
229 227 222 212 221 214 201 197 198 200 202 201 208 204 218 211 202 190 221 205 220 217 195 220 217 209 197 211 213 215 208 203 217 221 207 215 221 214 218 232 235 239 247
237 223 226 218 228 221 225 214 204 200 212 204 197 203 203 201 205 203 208 213 208 208 216 198 191 207 156 213 209 207 215 205 205 205 224 234 239 228 230 242 250 242 256
231 235 223 216 216 206 209 209 207 202 195 197 211 202 202 196 205 205 196 199 202 214 214 210 215 202 204 206 217 228 220 216 220 225 216 230 236 233 248 244 246 270 259
239 214 234 225 216 218 206 208 198 198 200 212 205 194 193 205 207 191 217 216 216 206 209 206 205 206 204 216 221 212 224 228 223 247 233 236 249 246 243 285 292 290 296
234 236 224 225 222 230 211 205 214 213 207 217 211 216 210 211 213 218 206 205 210 205 203 205 216 224 221 227 228 220 234 239 253 242 249 244 241 251 275 272 294 309 298
247 235 235 229 227 227 222 218 224 210 209 211 210 212 206 207 206 205 203 226 224 225 231 228 216 232 237 227 231 251 240 230 235 242 241 252 259 292 283 294 304 284 284
260 247 240 222 229 223 229 229 230 230 227 224 222 230 228 227 229 226 216 235 226 227 236 232 220 216 233 227 240 247 246 244 242 241 274 285 280 293 307 295 282 278 280

GFSGL_2pvu_pres_129.txt.gz
Presure
169 202 184 165 203 202 174 199 206 208 188 239 230 225 243 202 189 194 210 195 226 202 189 193 191 178 173 170 168 173 173 166 164 169 173 172 181 184 170 169 174 177 160
201 206 209 203 203 210 182 215 160 189 145 240 228 227 235 203 192 195 202 220 218 214 174 197 201 180 175 176 167 172 171 173 175 177 173 179 181 187 168 172 173 172 185
122 122 199 211 211 205 216 143 173 180 182 243 235 252 237 199 192 196 210 193 217 216 189 190 194 175 181 173 167 173 171 166 164 169 182 176 175 171 156 175 181 177 177
214 194 119 136 210 169 225 201 186 224 216 242 232 235 234 197 197 194 199 208 201 216 196 187 199 188 182 178 180 176 180 179 181 170 173 179 161 172 184 169 180 175 171
236 183 208 118 135 200 226 218 209 221 223 218 247 230 237 205 195 194 212 198 204 204 216 232 208 190 180 182 183 182 173 174 174 187 166 160 178 181 180 171 181 183 171
223 225 220 145 223 190 176 146 208 228 236 225 241 233 237 214 202 191 208 204 200 204 202 212 236 219 185 183 180 178 166 179 184 180 183 190 182 167 192 188 185 173 177
217 218 217 219 231 224 217 199 179 228 220 246 235 229 220 215 199 193 199 213 216 203 193 194 213 221 208 189 186 191 183 190 189 179 180 170 185 190 184 178 177 175 184
226 223 225 227 219 209 220 169 201 232 225 230 236 248 222 224 203 207 191 201 207 201 209 200 192 199 207 212 192 183 183 183 179 178 165 179 179 190 187 184 187 187 187
234 238 234 240 227 224 225 187 217 229 238 232 231 254 222 224 205 199 195 194 203 231 203 209 203 199 191 199 206 206 198 195 192 190 188 189 189 169 170 171 184 151 182
241 243 248 234 224 201 188 224 228 227 228 238 231 255 225 225 211 204 195 185 205 205 195 192 199 191 195 194 192 189 188 184 181 172 170 166 171 172 174 176 177 190 189
235 230 212 237 235 221 170 228 228 195 213 237 253 264 230 230 215 205 201 193 197 213 223 214 217 231 205 223 201 194 193 188 179 179 182 180 175 177 179 197 188 184 200
240 241 239 228 236 242 255 231 232 238 245 257 256 253 237 226 218 206 200 192 194 195 199 181 211 198 206 217 241 233 206 204 200 196 195 195 194 191 199 209 215 206 189
251 251 249 250 243 251 269 267 244 246 221 274 265 260 233 226 216 210 199 198 191 187 193 212 205 205 203 192 200 205 217 228 228 222 219 217 213 213 211 184 190 182 175
290 278 275 270 274 274 274 266 195 264 258 250 259 271 228 224 215 207 201 201 193 195 200 198 194 193 199 201 203 199 195 196 193 192 191 193 192 191 189 183 189 188 190
288 289 291 273 272 268 243 266 259 235 233 244 284 291 230 220 214 209 205 200 200 196 174 197 194 198 203 194 191 189 188 188 189 192 189 189 193 190 190 189 187 180 185
408 287 299 272 265 261 264 256 251 240 242 244 272 247 219 215 214 210 204 211 200 191 184 197 186 183 182 179 192 184 194 197 194 185 181 199 197 193 201 201 201 189 205
365 204 294 281 264 265 264 259 257 248 269 255 244 233 212 214 214 212 206 213 204 199 177 192 198 204 191 183 191 192 193 187 194 193 192 191 201 209 192 232 239 233 188
378 169 276 290 276 271 270 270 229 268 257 243 235 224 212 220 212 215 212 205 205 198 184 195 190 191 202 203 203 200 215 207 209 205 208 203 200 233 232 203 211 213 203
356 379 308 230 285 274 252 253 240 254 242 238 227 222 223 212 203 193 193 193 191 191 203 203 196 189 195 193 205 200 208 203 195 217 199 208 212 228 223 209 218 230 213
336 346 367 272 274 282 254 279 249 235 239 235 223 221 210 204 212 213 211 200 180 182 219 220 201 202 194 204 210 206 210 210 201 203 218 219 221 207 199 216 229 204 210
318 323 270 266 278 275 265 283 248 223 244 228 223 215 222 209 204 219 195 193 209 217 193 199 203 206 206 216 206 205 209 217 228 219 206 203 208 223 216 223 200 220 213
297 310 271 270 250 272 249 248 225 243 239 229 207 216 213 215 208 212 206 211 209 194 206 208 220 229 228 216 223 213 221 211 203 200 217 208 219 225 207 204 216 215 204
297 283 260 259 264 248 240 238 226 231 228 218 225 210 221 208 216 213 223 228 227 224 225 201 200 199 214 210 205 202 203 205 203 206 216 206 219 202 202 214 219 216 225
288 263 272 262 269 249 235 226 227 214 219 217 207 213 216 214 223 204 202 205 199 216 216 210 215 214 205 216 213 205 204 205 214 218 207 215 201 216 221 215 218 235 219
287 258 271 251 269 239 239 234 224 229 235 228 223 233 232 215 212 212 216 206 215 218 187 209 210 207 207 209 218 229 228 226 205 206 217 225 208 217 228 236 213 229 208
289 264 262 265 270 235 235 229 221 235 225 222 219 208 223 212 209 223 206 209 217 223 211 223 206 220 227 219 207 206 216 219 215 224 222 219 230 230 218 227 222 238 229